[[{"header":{"parameterUnit":"m.s-1","parameterCategory":1,"la1":31.0,"la2":29.5877,"lo1":-88.7671,"lo2":-86.6584,"dy":0.0162,"dx":0.0185,"nx":115,"ny":88,"refTime":"2025-04-19T12:00:00:Z","depth":0,"parameterNumber":2,"parameterNumberName":"U-component_of_WINDS"},"data":[0.0,0.0,0.0,0.0,0.0,0.0,0.0,0.0,0.0,0.0,0.0,0.0,0.0,0.0,0.0,0.0,0.0,0.0,0.0,0.0,0.0,0.0,0.0,0.0,0.0,0.0,0.0,0.0,0.0,0.0,0.0,0.0,0.0,0.0,0.0,0.0,0.0,0.0,0.0,0.0,0.0,0.0,0.0,0.0,0.0,0.0,0.0,0.0,0.0,0.0,0.0,0.0,0.0,0.0,0.0,0.0,0.0,0.0,0.0,0.0,0.0,0.0,0.0,0.0,0.0,0.0,0.0,0.0,0.0,0.0,0.0,0.0,0.0,0.0,0.0,0.0,0.0,0.0,0.0,0.0,0.0,0.0,0.0,0.0,0.0,0.0,0.0,0.0,0.0,0.0,0.0,0.0,0.0,0.0,0.0,0.0,0.0,0.0,0.0,0.0,0.0,0.0,0.0,0.0,0.0,0.0,0.0,0.0,0.0,0.0,0.0,0.0,0.0,0.0,0.0,0.0,0.0,0.0,0.0,0.0,0.0,0.0,0.0,0.0,0.0,0.0,0.0,0.0,0.0,0.0,0.0,0.0,0.0,0.0,0.0,0.0,0.0,0.0,0.0,0.0,0.0,0.0,0.0,0.0,0.0,0.0,0.0,0.0,0.0,0.0,0.0,0.0,0.0,0.0,0.0,0.0,0.0,0.0,0.0,0.0,0.0,0.0,0.0,0.0,0.0,0.0,0.0,0.0,0.0,0.0,0.0,0.0,0.0,0.0,0.0,0.0,0.0,0.0,0.0,0.0,0.0,0.0,0.0,0.0,0.0,0.0,0.0,0.0,0.0,0.0,0.0,0.0,0.0,0.0,0.0,0.0,0.0,0.0,0.0,0.0,0.0,0.0,0.0,0.0,0.0,0.0,0.0,0.0,0.0,0.0,0.0,0.0,0.0,0.0,0.0,0.0,0.0,0.0,0.0,0.0,0.0,0.0,0.0,0.0,0.0,0.0,0.0,0.0,0.0,0.0,0.0,0.0,0.0,0.0,0.0,0.0,0.0,0.0,0.0,0.0,0.0,0.0,0.0,0.0,0.0,0.0,0.0,0.0,0.0,0.0,0.0,0.0,0.0,0.0,0.0,0.0,0.0,0.0,0.0,0.0,0.0,0.0,0.0,0.0,0.0,0.0,0.0,0.0,0.0,0.0,0.0,0.0,0.0,0.0,0.0,0.0,0.0,0.0,0.0,0.0,0.0,0.0,0.0,0.0,0.0,0.0,0.0,0.0,0.0,0.0,0.0,0.0,0.0,0.0,0.0,0.0,0.0,0.0,0.0,0.0,0.0,0.0,0.0,0.0,0.0,0.0,0.0,0.0,0.0,0.0,0.0,0.0,0.0,0.0,0.0,0.0,0.0,0.0,0.0,0.0,0.0,0.0,0.0,0.0,0.0,0.0,0.0,0.0,0.0,0.0,0.0,0.0,0.0,0.0,0.0,0.0,0.0,0.0,0.0,0.0,0.0,0.0,0.0,0.0,0.0,0.0,0.0,0.0,0.0,0.0,0.0,0.0,0.0,0.0,0.0,0.0,0.0,0.0,0.0,0.0,0.0,0.0,0.0,0.0,0.0,0.0,0.0,0.0,0.0,0.0,0.0,0.0,0.0,0.0,0.0,0.0,0.0,0.0,0.0,0.0,0.0,0.0,0.0,0.0,0.0,0.0,0.0,0.0,0.0,0.0,0.0,0.0,0.0,0.0,0.0,0.0,0.0,0.0,0.0,0.0,0.0,0.0,0.0,0.0,0.0,0.0,0.0,0.0,0.0,0.0,0.0,0.0,0.0,0.0,0.0,0.0,0.0,0.0,0.0,0.0,0.0,0.0,0.0,0.0,0.0,0.0,0.0,0.0,0.0,0.0,0.0,0.0,0.0,0.0,0.0,0.0,0.0,0.0,0.0,0.0,0.0,0.0,0.0,0.0,0.0,0.0,0.0,0.0,0.0,0.0,0.0,0.0,0.0,0.0,0.0,0.0,0.0,0.0,0.0,0.0,0.0,0.0,0.0,0.0,0.0,0.0,0.0,0.0,0.0,0.0,0.0,0.0,0.0,0.0,0.0,0.0,0.0,0.0,0.0,0.0,0.0,0.0,0.0,0.0,0.0,0.0,0.0,0.0,0.0,0.0,0.0,0.0,0.0,0.0,0.0,0.0,0.0,0.0,0.0,0.0,0.0,0.0,0.0,0.0,0.0,0.0,0.0,0.0,0.0,0.0,0.0,0.0,0.0,0.0,0.0,0.0,0.0,0.0,0.0,0.0,0.0,0.0,0.0,0.0,0.0,0.0,0.0,0.0,0.0,0.0,0.0,0.0,0.0,0.0,0.0,0.0,0.0,0.0,0.0,0.0,0.0,0.0,0.0,0.0,0.0,0.0,0.0,0.0,0.0,0.0,0.0,0.0,0.0,0.0,0.0,0.0,0.0,0.0,0.0,0.0,0.0,0.0,0.0,0.0,0.0,0.0,0.0,0.0,0.0,0.0,0.0,0.0,0.0,0.0,0.0,0.0,0.0,0.0,0.0,0.0,0.0,0.0,0.0,0.0,0.0,0.0,0.0,0.0,0.0,0.0,0.0,0.0,0.0,0.0,0.0,0.0,0.0,0.0,0.0,0.0,0.0,0.0,0.0,0.0,0.0,0.0,0.0,0.0,0.0,0.0,0.0,0.0,0.0,0.0,0.0,0.0,0.0,0.0,0.0,0.0,0.0,0.0,0.0,0.0,0.0,0.0,0.0,0.0,0.0,0.0,0.0,0.0,0.0,0.0,0.0,0.0,0.0,0.0,0.0,0.0,0.0,0.0,0.0,0.0,0.0,0.0,0.0,0.0,0.0,0.0,0.0,0.0,0.0,0.0,0.0,0.0,0.0,0.0,0.0,0.0,0.0,0.0,0.0,0.0,0.0,0.0,0.0,0.0,0.0,0.0,0.0,0.0,0.0,0.0,0.0,0.0,0.0,0.0,0.0,0.0,0.0,0.0,0.0,0.0,0.0,0.0,0.0,0.0,0.0,0.0,0.0,0.0,0.0,0.0,0.0,0.0,0.0,0.0,0.0,0.0,0.0,0.0,0.0,0.0,0.0,0.0,0.0,0.0,0.0,0.0,0.0,0.0,0.0,0.0,0.0,0.0,0.0,0.0,0.0,0.0,0.0,0.0,0.0,0.0,0.0,0.0,0.0,0.0,0.0,0.0,0.0,0.0,0.0,0.0,0.0,0.0,0.0,0.0,0.0,0.0,0.0,0.0,0.0,0.0,0.0,0.0,0.0,0.0,0.0,0.0,0.0,0.0,0.0,0.0,0.0,0.0,0.0,0.0,0.0,0.0,0.0,0.0,0.0,0.0,0.0,0.0,0.0,0.0,0.0,0.0,0.0,0.0,0.0,0.0,0.0,0.0,0.0,0.0,0.0,0.0,0.0,0.0,0.0,0.0,0.0,0.0,0.0,0.0,0.0,0.0,0.0,0.0,0.0,0.0,0.0,0.0,0.0,0.0,0.0,0.0,0.0,0.0,0.0,0.0,0.0,0.0,0.0,0.0,0.0,0.0,0.0,0.0,0.0,0.0,0.0,0.0,0.0,0.0,0.0,0.0,0.0,0.0,0.0,0.0,0.0,0.0,0.0,0.0,0.0,0.0,0.0,0.0,0.0,0.0,0.0,0.0,0.0,0.0,0.0,0.0,0.0,0.0,0.0,0.0,0.0,0.0,0.0,0.0,0.0,0.0,0.0,0.0,0.0,0.0,0.0,0.0,0.0,0.0,0.0,0.0,0.0,0.0,0.0,0.0,0.0,0.0,0.0,0.0,0.0,0.0,0.0,0.0,0.0,0.0,0.0,0.0,0.0,0.0,0.0,0.0,0.0,0.0,0.0,0.0,0.0,0.0,0.0,0.0,0.0,0.0,0.0,0.0,0.0,0.0,0.0,0.0,0.0,0.0,0.0,0.0,0.0,0.0,0.0,0.0,0.0,0.0,0.0,0.0,0.0,0.0,0.0,0.0,0.0,0.0,0.0,0.0,0.0,0.0,0.0,0.0,0.0,0.0,0.0,0.0,0.0,0.0,0.0,0.0,0.0,0.0,0.0,0.0,0.0,0.0,0.0,0.0,0.0,0.0,0.0,0.0,0.0,0.0,0.0,0.0,0.0,0.0,0.0,0.0,0.0,0.0,0.0,0.0,0.0,0.0,0.0,0.0,0.0,0.0,0.0,0.0,0.0,0.0,0.0,0.0,0.0,0.0,-0.767,0.0,0.0,0.0,0.0,0.0,0.0,0.0,0.0,0.0,0.0,0.0,0.0,0.0,0.0,0.0,0.0,0.0,0.0,0.0,0.0,0.0,0.0,0.0,0.0,0.0,0.0,0.0,0.0,0.0,0.0,0.0,0.0,0.0,0.0,0.0,0.0,0.0,0.0,0.0,0.0,0.0,0.0,0.0,0.0,0.0,0.0,0.0,0.0,0.0,0.0,0.0,0.0,0.0,0.0,0.0,0.0,0.0,0.0,0.0,0.0,0.0,0.0,0.0,0.0,0.0,0.0,0.0,0.0,0.0,0.0,0.0,0.0,0.0,0.0,0.0,0.0,0.0,0.0,0.0,0.0,0.0,0.0,0.0,0.0,0.0,0.0,0.0,0.0,0.0,0.0,0.0,0.0,0.0,0.0,0.0,0.0,0.0,0.0,0.0,0.0,0.0,0.0,0.0,0.0,0.0,0.0,0.0,0.0,0.0,0.0,-0.891,-0.9104,-0.8275,-0.7822,-0.7798,0.0,0.0,0.0,0.0,0.0,0.0,0.0,0.0,0.0,0.0,0.0,0.0,0.0,0.0,0.0,0.0,0.0,0.0,0.0,0.0,0.0,0.0,0.0,0.0,0.0,0.0,0.0,0.0,0.0,0.0,0.0,0.0,0.0,0.0,0.0,0.0,0.0,0.0,0.0,0.0,0.0,0.0,0.0,0.0,0.0,0.0,0.0,0.0,0.0,0.0,0.0,0.0,0.0,0.0,0.0,0.0,0.0,0.0,0.0,0.0,0.0,0.0,0.0,0.0,0.0,0.0,0.0,0.0,0.0,0.0,0.0,0.0,0.0,0.0,0.0,0.0,0.0,0.0,0.0,0.0,0.0,0.0,0.0,0.0,0.0,0.0,0.0,0.0,0.0,0.0,0.0,0.0,0.0,0.0,0.0,0.0,0.0,0.0,0.0,0.0,0.0,0.0,0.0,0.0,0.0,0.0,0.0,0.0,0.0,0.0,0.0,0.0,-0.8601,-0.8275,-0.8296,0.0,0.0,0.0,0.0,0.0,0.0,0.0,0.0,0.0,0.0,0.0,0.0,0.0,0.0,0.0,0.0,0.0,0.0,0.0,0.0,0.0,0.0,0.0,0.0,0.0,0.0,0.0,0.0,0.0,0.0,0.0,0.0,0.0,0.0,0.0,0.0,0.0,0.0,0.0,0.0,0.0,0.0,0.0,0.0,0.0,0.0,0.0,0.0,0.0,0.0,0.0,0.0,0.0,0.0,0.0,0.0,0.0,0.0,0.0,0.0,0.0,0.0,0.0,0.0,0.0,0.0,0.0,0.0,0.0,0.0,0.0,0.0,0.0,0.0,0.0,0.0,0.0,0.0,0.0,0.0,0.0,0.0,0.0,0.0,0.0,0.0,0.0,0.0,0.0,0.0,0.0,0.0,0.0,0.0,0.0,0.0,0.0,0.0,0.0,0.0,0.0,0.0,0.0,0.0,0.0,0.0,0.0,0.0,0.0,0.0,-0.8029,-0.8488,-0.9093,0.0,-0.9429,0.0,0.0,0.0,0.0,0.0,0.0,0.0,0.0,0.0,0.0,0.0,0.0,0.0,0.0,0.0,0.0,0.0,0.0,0.0,0.0,0.0,0.0,0.0,0.0,0.0,0.0,0.0,0.0,0.0,0.0,0.0,0.0,0.0,0.0,0.0,0.0,0.0,0.0,0.0,0.0,0.0,0.0,0.0,0.0,0.0,0.0,0.0,0.0,0.0,0.0,0.0,0.0,0.0,0.0,0.0,0.0,0.0,0.0,0.0,0.0,0.0,0.0,0.0,0.0,0.0,0.0,0.0,0.0,0.0,0.0,0.0,0.0,0.0,0.0,0.0,0.0,0.0,0.0,0.0,0.0,0.0,0.0,0.0,0.0,0.0,0.0,0.0,0.0,0.0,0.0,0.0,0.0,0.0,0.0,0.0,0.0,0.0,0.0,0.0,0.0,0.0,0.0,0.0,0.0,0.0,0.0,0.0,0.0,0.0,0.0,0.0,-0.9107,-0.8933,-0.8817,0.0,0.0,0.0,0.0,0.0,0.0,0.0,0.0,0.0,0.0,0.0,0.0,0.0,0.0,0.0,0.0,0.0,0.0,0.0,0.0,0.0,0.0,0.0,0.0,0.0,0.0,0.0,0.0,0.0,0.0,0.0,0.0,0.0,0.0,0.0,0.0,0.0,0.0,0.0,0.0,0.0,0.0,0.0,0.0,0.0,0.0,0.0,0.0,0.0,0.0,0.0,0.0,0.0,0.0,0.0,0.0,0.0,0.0,0.0,0.0,0.0,0.0,0.0,0.0,0.0,0.0,0.0,0.0,0.0,0.0,0.0,0.0,0.0,0.0,0.0,0.0,0.0,0.0,0.0,0.0,0.0,0.0,0.0,0.0,0.0,0.0,0.0,0.0,0.0,0.0,0.0,0.0,0.0,0.0,0.0,0.0,0.0,0.0,0.0,0.0,0.0,0.0,0.0,0.0,0.0,0.0,0.0,0.0,0.0,0.0,-0.9106,0.0,-0.9902,-0.901,-0.8457,-0.8336,0.0,0.0,0.0,0.0,0.0,0.0,0.0,0.0,0.0,0.0,0.0,0.0,0.0,0.0,0.0,0.0,0.0,0.0,0.0,0.0,0.0,0.0,0.0,0.0,0.0,0.0,0.0,0.0,0.0,0.0,0.0,0.0,0.0,0.0,0.0,0.0,0.0,0.0,0.0,0.0,0.0,0.0,0.0,0.0,0.0,0.0,0.0,0.0,0.0,0.0,0.0,0.0,0.0,0.0,0.0,0.0,0.0,0.0,0.0,0.0,0.0,0.0,0.0,0.0,0.0,0.0,0.0,0.0,0.0,0.0,0.0,0.0,0.0,0.0,0.0,0.0,0.0,0.0,0.0,0.0,0.0,0.0,0.0,0.0,0.0,0.0,0.0,0.0,0.0,0.0,0.0,0.0,0.0,0.0,0.0,0.0,0.0,0.0,0.0,0.0,0.0,0.0,0.0,0.0,0.0,0.0,0.0,0.0,0.0,-0.941,-0.961,-1.0755,-0.964,-0.8782,0.0,0.0,0.0,0.0,0.0,0.0,0.0,0.0,0.0,0.0,0.0,0.0,0.0,0.0,0.0,0.0,0.0,0.0,0.0,0.0,0.0,0.0,0.0,0.0,0.0,0.0,0.0,0.0,0.0,0.0,0.0,0.0,0.0,0.0,0.0,0.0,0.0,0.0,0.0,0.0,0.0,0.0,0.0,0.0,0.0,0.0,0.0,0.0,0.0,0.0,0.0,0.0,0.0,0.0,0.0,0.0,0.0,0.0,0.0,0.0,0.0,0.0,0.0,0.0,0.0,0.0,0.0,0.0,0.0,0.0,0.0,0.0,0.0,0.0,0.0,0.0,0.0,0.0,0.0,0.0,0.0,0.0,0.0,0.0,0.0,0.0,0.0,0.0,0.0,0.0,0.0,0.0,0.0,0.0,0.0,0.0,0.0,0.0,0.0,0.0,0.0,0.0,0.0,0.0,0.0,0.0,0.0,0.0,0.0,-0.898,-0.89,-0.9611,-1.1205,-0.9163,-0.8227,0.0,0.0,0.0,0.0,0.0,0.0,0.0,0.0,0.0,0.0,0.0,0.0,0.0,0.0,0.0,0.0,0.0,0.0,0.0,0.0,0.0,0.0,0.0,0.0,0.0,0.0,0.0,0.0,0.0,0.0,0.0,0.0,0.0,0.0,0.0,0.0,0.0,0.0,0.0,0.0,0.0,0.0,0.0,0.0,0.0,0.0,0.0,0.0,0.0,0.0,0.0,0.0,0.0,0.0,0.0,0.0,0.0,0.0,0.0,0.0,0.0,0.0,0.0,0.0,0.0,0.0,0.0,0.0,0.0,0.0,0.0,0.0,0.0,0.0,0.0,0.0,0.0,0.0,0.0,0.0,0.0,0.0,0.0,0.0,0.0,0.0,0.0,0.0,0.0,0.0,0.0,0.0,0.0,0.0,0.0,0.0,0.0,0.0,0.0,0.0,0.0,0.0,0.0,0.0,0.0,0.0,0.0,0.0,0.0,-0.9416,0.0,-1.046,0.0,-0.9306,-0.8127,0.0,0.0,0.0,0.0,0.0,0.0,0.0,0.0,0.0,0.0,0.0,0.0,0.0,0.0,0.0,0.0,0.0,0.0,0.0,0.0,0.0,0.0,0.0,0.0,0.0,0.0,0.0,0.0,0.0,0.0,0.0,0.0,0.0,0.0,0.0,0.0,0.0,0.0,0.0,0.0,0.0,0.0,0.0,0.0,0.0,0.0,0.0,0.0,0.0,0.0,0.0,0.0,0.0,0.0,0.0,0.0,0.0,0.0,0.0,0.0,0.0,0.0,0.0,0.0,0.0,0.0,0.0,0.0,0.0,0.0,0.0,0.0,0.0,0.0,0.0,0.0,0.0,0.0,0.0,0.0,0.0,0.0,0.0,0.0,0.0,0.0,0.0,0.0,0.0,0.0,0.0,0.0,0.0,0.0,0.0,0.0,0.0,0.0,0.0,0.0,0.0,0.0,0.0,0.0,0.0,0.0,0.0,0.0,-0.9806,-1.1665,-1.2332,-1.2013,-1.0788,-1.0139,-0.8623,0.0,0.0,0.0,0.0,0.0,0.0,0.0,0.0,0.0,0.0,0.0,0.0,0.0,0.0,0.0,0.0,0.0,0.0,0.0,0.0,0.0,0.0,0.0,0.0,0.0,0.0,0.0,0.0,0.0,0.0,0.0,0.0,0.0,0.0,0.0,0.0,0.0,0.0,0.0,0.0,0.0,0.0,0.0,0.0,0.0,0.0,0.0,0.0,0.0,0.0,0.0,0.0,0.0,0.0,0.0,0.0,0.0,0.0,0.0,0.0,0.0,0.0,0.0,0.0,0.0,0.0,0.0,0.0,0.0,0.0,0.0,0.0,0.0,0.0,0.0,0.0,0.0,0.0,0.0,0.0,0.0,0.0,0.0,0.0,0.0,0.0,0.0,0.0,0.0,0.0,0.0,0.0,0.0,0.0,0.0,0.0,0.0,0.0,0.0,0.0,0.0,0.0,0.0,0.0,0.0,0.0,0.0,0.0,0.0,-1.1235,-1.1399,-1.1832,-1.2442,-1.0026,-0.8812,0.0,0.0,0.0,0.0,0.0,0.0,0.0,0.0,0.0,0.0,0.0,0.0,0.0,0.0,0.0,0.0,0.0,0.0,0.0,0.0,0.0,0.0,0.0,0.0,0.0,0.0,0.0,0.0,0.0,0.0,0.0,0.0,0.0,0.0,0.0,0.0,0.0,0.0,0.0,0.0,0.0,0.0,0.0,0.0,0.0,0.0,0.0,0.0,0.0,0.0,0.0,0.0,0.0,0.0,0.0,0.0,0.0,0.0,0.0,0.0,0.0,0.0,0.0,0.0,0.0,0.0,0.0,0.0,0.0,0.0,0.0,0.0,0.0,0.0,0.0,0.0,0.0,0.0,0.0,0.0,0.0,0.0,0.0,0.0,0.0,0.0,0.0,0.0,0.0,0.0,0.0,0.0,0.0,0.0,0.0,0.0,0.0,0.0,0.0,0.0,0.0,0.0,0.0,0.0,0.0,0.0,0.0,0.0,0.0,-1.2787,-1.2907,-1.3073,-1.3271,-1.0732,-0.9443,-0.9605,0.0,0.0,0.0,0.0,0.0,0.0,0.0,0.0,0.0,0.0,0.0,0.0,0.0,0.0,0.0,0.0,0.0,0.0,0.0,0.0,0.0,0.0,0.0,0.0,0.0,0.0,0.0,0.0,0.0,0.0,0.0,0.0,0.0,0.0,0.0,0.0,0.0,0.0,0.0,0.0,0.0,0.0,0.0,0.0,0.0,0.0,0.0,0.0,0.0,0.0,0.0,0.0,0.0,0.0,0.0,0.0,0.0,0.0,0.0,0.0,0.0,0.0,0.0,0.0,0.0,0.0,0.0,0.0,0.0,0.0,0.0,0.0,0.0,0.0,0.0,0.0,0.0,0.0,0.0,0.0,0.0,0.0,0.0,0.0,0.0,0.0,0.0,0.0,0.0,0.0,0.0,0.0,0.0,0.0,0.0,0.0,0.0,0.0,0.0,0.0,0.0,0.0,0.0,0.0,0.0,0.0,0.0,0.0,-1.5819,-1.6325,-1.5508,-1.3415,-1.2165,-1.0512,0.0,0.0,0.0,0.0,0.0,0.0,0.0,0.0,0.0,0.0,0.0,0.0,0.0,0.0,0.0,0.0,0.0,0.0,0.0,0.0,0.0,0.0,0.0,0.0,0.0,0.0,0.0,0.0,0.0,0.0,0.0,0.0,0.0,0.0,0.0,0.0,0.0,0.0,0.0,0.0,0.0,0.0,0.0,0.0,0.0,0.0,0.0,0.0,0.0,0.0,0.0,0.0,0.0,0.0,0.0,0.0,0.0,0.0,0.0,0.0,0.0,0.0,0.0,0.0,0.0,0.0,0.0,0.0,0.0,0.0,0.0,0.0,0.0,0.0,0.0,0.0,0.0,0.0,0.0,0.0,0.0,0.0,0.0,0.0,0.0,0.0,0.0,0.0,0.0,0.0,0.0,0.0,0.0,0.0,0.0,0.0,0.0,0.0,0.0,0.0,0.0,0.0,0.0,0.0,0.0,0.0,0.0,0.0,0.0,-1.7451,-1.7702,-1.7031,-1.5552,-1.3478,-1.1762,0.0,0.0,0.0,0.0,0.0,0.0,0.0,0.0,0.0,0.0,0.0,0.0,0.0,0.0,0.0,0.0,0.0,0.0,0.0,0.0,0.0,0.0,0.0,0.0,0.0,0.0,0.0,0.0,0.0,0.0,0.0,0.0,0.0,0.0,0.0,0.0,0.0,0.0,0.0,0.0,0.0,0.0,0.0,0.0,0.0,0.0,0.0,0.0,0.0,0.0,0.0,0.0,0.0,0.0,0.0,0.0,0.0,0.0,0.0,0.0,0.0,0.0,0.0,0.0,0.0,0.0,0.0,0.0,0.0,0.0,0.0,0.0,0.0,0.0,0.0,0.0,0.0,0.0,0.0,0.0,0.0,0.0,0.0,0.0,0.0,0.0,0.0,0.0,0.0,0.0,0.0,0.0,0.0,0.0,0.0,0.0,0.0,0.0,0.0,0.0,0.0,0.0,0.0,0.0,0.0,0.0,0.0,0.0,-1.7146,-1.8832,-1.9108,-1.8685,-1.7482,-1.4994,-1.2954,0.0,0.0,0.0,0.0,0.0,0.0,0.0,0.0,0.0,0.0,0.0,0.0,0.0,0.0,0.0,0.0,0.0,0.0,0.0,0.0,0.0,0.0,0.0,0.0,0.0,0.0,0.0,0.0,0.0,0.0,0.0,0.0,0.0,0.0,0.0,0.0,0.0,0.0,0.0,0.0,0.0,0.0,0.0,0.0,0.0,0.0,0.0,0.0,0.0,0.0,0.0,0.0,0.0,0.0,0.0,0.0,0.0,0.0,0.0,0.0,0.0,0.0,0.0,0.0,0.0,0.0,0.0,0.0,0.0,0.0,0.0,0.0,0.0,0.0,0.0,0.0,0.0,0.0,0.0,0.0,0.0,0.0,0.0,0.0,0.0,0.0,0.0,0.0,0.0,0.0,0.0,0.0,0.0,0.0,0.0,0.0,0.0,0.0,0.0,0.0,0.0,0.0,0.0,0.0,0.0,0.0,0.0,0.0,-1.8756,-1.9861,-2.044,-2.02,-1.9078,-1.6428,-1.4027,0.0,0.0,0.0,0.0,0.0,0.0,0.0,0.0,0.0,0.0,0.0,0.0,0.0,0.0,0.0,0.0,0.0,0.0,0.0,0.0,0.0,0.0,0.0,0.0,0.0,0.0,0.0,0.0,0.0,0.0,0.0,0.0,0.0,0.0,0.0,0.0,0.0,0.0,0.0,0.0,0.0,0.0,0.0,0.0,0.0,0.0,0.0,0.0,0.0,0.0,0.0,0.0,0.0,0.0,0.0,0.0,0.0,0.0,0.0,0.0,0.0,0.0,0.0,0.0,0.0,0.0,0.0,0.0,0.0,0.0,0.0,0.0,0.0,0.0,0.0,0.0,0.0,0.0,0.0,0.0,0.0,0.0,0.0,0.0,0.0,0.0,0.0,0.0,0.0,0.0,0.0,0.0,0.0,0.0,0.0,0.0,0.0,0.0,0.0,0.0,0.0,0.0,0.0,0.0,0.0,0.0,0.0,0.0,-1.8932,-2.0465,-2.0616,-2.0588,-2.0304,-1.7213,-1.4586,0.0,0.0,0.0,0.0,0.0,0.0,0.0,0.0,0.0,0.0,0.0,0.0,0.0,0.0,0.0,0.0,0.0,0.0,0.0,0.0,0.0,0.0,0.0,0.0,0.0,0.0,0.0,0.0,0.0,0.0,0.0,0.0,0.0,0.0,0.0,0.0,0.0,0.0,0.0,0.0,0.0,0.0,0.0,0.0,0.0,0.0,0.0,0.0,-0.394,0.0,0.0,0.0,0.0,0.0,0.0,0.0,0.0,0.0,0.0,0.0,0.0,0.0,0.0,0.0,0.0,0.0,0.0,0.0,0.0,0.0,0.0,0.0,0.0,0.0,0.0,0.0,0.0,0.0,0.0,0.0,0.0,0.0,0.0,0.0,0.0,0.0,0.0,0.0,0.0,0.0,0.0,0.0,0.0,0.0,0.0,0.0,0.0,0.0,0.0,0.0,0.0,0.0,0.0,0.0,0.0,0.0,0.0,0.0,-2.0063,-2.1393,-2.1192,-2.1069,-2.0964,-1.7808,-1.5196,0.0,0.0,0.0,0.0,0.0,0.0,0.0,0.0,0.0,0.0,0.0,0.0,0.0,0.0,0.0,0.0,0.0,0.0,0.0,0.0,0.0,0.0,0.0,0.0,0.0,0.0,0.0,0.0,0.0,0.0,0.0,0.0,0.0,0.0,0.0,0.0,0.0,0.0,0.0,0.0,0.0,0.0,0.0,0.0,0.0,0.0,0.0,0.0,0.0,0.0,0.0,0.0,0.0,0.0,0.0,0.0,0.0,0.0,0.0,0.0,0.0,0.0,0.0,0.0,0.0,0.0,0.0,0.0,0.0,0.0,0.0,0.0,0.0,0.0,0.0,0.0,0.0,0.0,0.0,0.0,0.0,0.0,0.0,0.0,0.0,0.0,0.0,0.0,0.0,0.0,0.0,0.0,0.0,0.0,0.0,0.0,0.0,0.0,0.0,0.0,0.0,0.0,0.0,0.0,0.0,0.0,0.0,-1.9258,-2.1069,-2.2246,-2.1845,-2.1597,-2.1468,-1.8253,-1.5836,-1.4355,0.0,0.0,0.0,0.0,0.0,0.0,0.0,0.0,0.0,0.0,0.0,0.0,0.0,0.0,0.0,0.0,0.0,0.0,0.0,0.0,0.0,0.0,0.0,0.0,0.0,0.0,0.0,0.0,0.0,0.0,0.0,0.0,0.0,0.0,0.0,0.0,0.0,0.0,-0.5292,-0.5575,0.0,0.0,0.0,0.0,0.0,0.0,0.0,0.0,-0.4244,0.0,0.0,0.0,0.0,0.0,0.0,0.0,0.0,0.0,0.0,0.0,0.0,0.0,0.0,0.0,0.0,0.0,0.0,0.0,0.0,0.0,0.0,0.0,0.0,0.0,0.0,0.0,0.0,0.0,0.0,0.0,0.0,0.0,0.0,0.0,0.0,0.0,0.0,0.0,0.0,0.0,0.0,0.0,0.0,0.0,0.0,0.0,0.0,0.0,0.0,0.0,0.0,0.0,0.0,0.0,0.0,-1.8531,-1.9033,-2.0262,-2.2246,-2.2221,-2.197,-2.1468,-1.8638,-1.6411,-1.4948,0.0,0.0,0.0,0.0,0.0,0.0,0.0,0.0,0.0,0.0,0.0,0.0,0.0,0.0,0.0,0.0,0.0,0.0,0.0,0.0,0.0,0.0,0.0,0.0,0.0,0.0,0.0,0.0,0.0,0.0,0.0,0.0,0.0,0.0,0.0,0.0,0.0,0.0,0.0,-0.7139,-0.7211,0.0,0.0,0.0,0.0,0.0,0.0,0.0,0.0,-0.4773,0.0,0.0,0.0,0.0,0.0,0.0,0.0,0.0,0.0,0.0,0.0,0.0,0.0,0.0,0.0,0.0,0.0,0.0,0.0,0.0,0.0,0.0,0.0,0.0,0.0,0.0,0.0,0.0,0.0,0.0,0.0,0.0,0.0,0.0,0.0,0.0,0.0,0.0,0.0,0.0,0.0,0.0,0.0,0.0,0.0,0.0,0.0,0.0,0.0,0.0,0.0,0.0,0.0,0.0,0.0,-1.8832,-1.9861,-2.1091,-2.2619,-2.2447,-2.2046,-2.1468,-1.871,-1.6592,0.0,0.0,0.0,0.0,0.0,0.0,0.0,0.0,0.0,0.0,0.0,0.0,0.0,0.0,0.0,0.0,0.0,0.0,0.0,0.0,0.0,0.0,0.0,0.0,0.0,0.0,0.0,0.0,0.0,0.0,0.0,0.0,0.0,0.0,0.0,0.0,0.0,0.0,0.0,0.0,-0.8379,-0.8356,-0.8307,0.0,0.0,0.0,0.0,0.0,0.0,-0.5852,-0.5341,0.0,0.0,0.0,0.0,0.0,0.0,0.0,0.0,0.0,0.0,0.0,0.0,0.0,0.0,0.0,0.0,0.0,0.0,0.0,0.0,0.0,0.0,0.0,0.0,0.0,0.0,0.0,0.0,0.0,0.0,0.0,0.0,0.0,0.0,0.0,0.0,0.0,0.0,0.0,0.0,0.0,0.0,0.0,0.0,0.0,0.0,0.0,0.0,0.0,0.0,0.0,0.0,0.0,0.0,0.0,-1.8933,-2.0413,-2.1794,-2.302,-2.2698,-2.2171,-2.1468,-1.8893,-1.6714,0.0,0.0,0.0,0.0,0.0,0.0,0.0,0.0,0.0,0.0,0.0,0.0,0.0,0.0,0.0,0.0,0.0,0.0,0.0,0.0,0.0,0.0,0.0,0.0,0.0,0.0,0.0,0.0,0.0,0.0,0.0,0.0,0.0,0.0,0.0,0.0,0.0,0.0,0.0,0.0,0.0,-0.9689,-0.984,-0.868,0.0,0.0,0.0,0.0,-0.724,-0.6678,0.0,0.0,0.0,0.0,0.0,0.0,0.0,0.0,0.0,0.0,0.0,0.0,0.0,0.0,0.0,0.0,0.0,0.0,0.0,0.0,0.0,0.0,0.0,0.0,0.0,0.0,0.0,0.0,0.0,0.0,0.0,0.0,0.0,0.0,0.0,0.0,0.0,0.0,0.0,0.0,0.0,0.0,0.0,0.0,0.0,0.0,0.0,0.0,0.0,0.0,0.0,0.0,0.0,0.0,0.0,0.0,-1.8857,-1.966,-2.1016,-2.297,-2.3045,-2.2518,-2.1518,-1.9166,-1.7065,0.0,0.0,0.0,0.0,0.0,0.0,0.0,0.0,0.0,0.0,0.0,0.0,0.0,0.0,0.0,0.0,0.0,0.0,0.0,0.0,0.0,0.0,0.0,0.0,0.0,0.0,0.0,0.0,0.0,0.0,0.0,0.0,0.0,0.0,0.0,0.0,0.0,0.0,0.0,0.0,0.0,-1.1609,-1.035,-0.9675,-0.9329,0.0,0.0,-0.8824,-0.9212,-0.8513,0.0,0.0,0.0,0.0,0.0,0.0,0.0,0.0,0.0,0.0,0.0,0.0,0.0,0.0,0.0,0.0,0.0,0.0,0.0,0.0,0.0,0.0,0.0,0.0,0.0,0.0,0.0,0.0,0.0,0.0,0.0,0.0,0.0,0.0,0.0,0.0,0.0,0.0,0.0,0.0,0.0,0.0,0.0,0.0,0.0,0.0,0.0,0.0,0.0,0.0,0.0,0.0,0.0,0.0,0.0,-1.622,-1.9359,-2.0614,-2.1845,-2.3045,-2.3095,-2.2569,-2.1546,-1.9269,-1.7107,0.0,0.0,0.0,0.0,0.0,0.0,0.0,0.0,0.0,0.0,0.0,0.0,0.0,0.0,0.0,0.0,0.0,0.0,0.0,0.0,0.0,0.0,0.0,0.0,0.0,0.0,0.0,0.0,0.0,0.0,0.0,0.0,0.0,0.0,0.0,0.0,0.0,0.0,0.0,0.0,0.0,0.0,-1.1931,-1.1521,0.0,0.0,0.0,-1.0118,-1.0312,0.0,0.0,0.0,0.0,0.0,0.0,0.0,0.0,0.0,0.0,0.0,0.0,0.0,0.0,0.0,0.0,0.0,0.0,0.0,0.0,0.0,0.0,0.0,0.0,0.0,0.0,0.0,0.0,0.0,0.0,0.0,0.0,0.0,0.0,0.0,0.0,0.0,0.0,0.0,0.0,0.0,0.0,0.0,0.0,0.0,0.0,0.0,0.0,0.0,0.0,0.0,0.0,0.0,0.0,0.0,0.0,0.0,-1.9761,-2.1468,-2.2543,-2.307,-2.3095,-2.2594,-2.1518,-1.9385,0.0,0.0,0.0,0.0,0.0,0.0,0.0,0.0,0.0,0.0,0.0,0.0,0.0,0.0,0.0,0.0,0.0,0.0,0.0,0.0,0.0,0.0,0.0,0.0,0.0,0.0,0.0,-0.53,0.0,0.0,0.0,0.0,0.0,0.0,0.0,0.0,0.0,0.0,0.0,0.0,0.0,0.0,-1.2969,-1.3129,-1.287,-1.2296,0.0,0.0,-1.119,-1.1094,-1.0601,-0.9769,0.0,0.0,0.0,0.0,0.0,0.0,0.0,0.0,0.0,0.0,0.0,0.0,0.0,0.0,0.0,0.0,0.0,0.0,0.0,0.0,0.0,0.0,0.0,0.0,0.0,0.0,0.0,0.0,0.0,0.0,0.0,0.0,0.0,0.0,0.0,0.0,0.0,0.0,0.0,0.0,0.0,0.0,0.0,0.0,0.0,0.0,0.0,0.0,0.0,0.0,0.0,0.0,0.0,0.0,0.0,-1.9736,-2.1468,-2.2569,-2.307,-2.3095,-2.2569,-2.1518,-1.9751,-1.7665,0.0,0.0,0.0,0.0,0.0,0.0,0.0,0.0,0.0,0.0,0.0,0.0,0.0,0.0,0.0,0.0,0.0,0.0,0.0,0.0,0.0,0.0,0.0,0.0,0.0,0.0,0.0,0.0,0.0,0.0,0.0,0.0,0.0,0.0,0.0,0.0,0.0,0.0,0.0,0.0,0.0,-1.4239,-1.316,-1.3044,-1.2855,0.0,0.0,-1.1992,-1.1604,-1.1598,-1.0963,-0.8893,0.0,0.0,0.0,0.0,0.0,0.0,0.0,0.0,0.0,0.0,0.0,0.0,0.0,0.0,0.0,0.0,0.0,0.0,0.0,0.0,0.0,0.0,0.0,0.0,0.0,0.0,0.0,0.0,0.0,0.0,0.0,0.0,0.0,0.0,0.0,0.0,0.0,0.0,0.0,0.0,0.0,0.0,0.0,0.0,0.0,0.0,0.0,0.0,0.0,0.0,0.0,0.0,0.0,-1.7951,-2.0313,-2.2322,-2.3452,-2.3653,-2.3653,-2.315,-2.202,-2.0315,-1.8329,0.0,0.0,0.0,0.0,0.0,0.0,0.0,0.0,0.0,0.0,0.0,0.0,0.0,0.0,0.0,0.0,0.0,0.0,0.0,0.0,0.0,0.0,0.0,0.0,0.0,0.0,0.0,0.0,-0.678,-0.6649,-0.6003,0.0,0.0,0.0,0.0,0.0,0.0,0.0,0.0,0.0,0.0,-1.465,-1.4136,-1.4361,0.0,0.0,-1.3188,-1.3127,-1.2988,-1.224,-1.1205,-0.9877,-0.9189,0.0,0.0,0.0,0.0,0.0,0.0,0.0,0.0,0.0,0.0,0.0,0.0,0.0,0.0,0.0,0.0,0.0,0.0,0.0,0.0,0.0,0.0,0.0,0.0,0.0,0.0,0.0,0.0,0.0,0.0,0.0,0.0,0.0,0.0,0.0,0.0,0.0,0.0,0.0,0.0,0.0,0.0,0.0,0.0,0.0,0.0,0.0,0.0,0.0,0.0,0.0,0.0,-1.8504,-2.0666,-2.2904,-2.4079,-2.423,-2.4079,-2.3552,-2.2543,-2.0874,-1.8919,0.0,0.0,0.0,0.0,0.0,0.0,0.0,0.0,0.0,0.0,0.0,0.0,0.0,0.0,0.0,0.0,0.0,0.0,0.0,0.0,0.0,0.0,0.0,0.0,0.0,0.0,0.0,0.0,-0.7516,-0.719,-0.6233,0.0,0.0,0.0,0.0,0.0,0.0,0.0,0.0,0.0,0.0,-1.5037,-1.4744,-1.522,-1.5152,-1.398,-1.3792,-1.3721,-1.3576,-1.2649,-1.1691,-1.083,0.0,0.0,0.0,0.0,0.0,0.0,0.0,0.0,0.0,0.0,0.0,0.0,0.0,0.0,0.0,0.0,0.0,0.0,0.0,0.0,0.0,0.0,0.0,0.0,0.0,0.0,0.0,0.0,0.0,0.0,0.0,0.0,0.0,0.0,0.0,0.0,0.0,0.0,0.0,0.0,0.0,0.0,0.0,0.0,0.0,0.0,0.0,0.0,0.0,0.0,0.0,0.0,0.0,-1.8504,-2.0666,-2.2874,-2.428,-2.4757,-2.428,-2.3728,-2.3095,-2.1543,-1.9393,-1.6577,0.0,0.0,0.0,0.0,0.0,0.0,0.0,0.0,0.0,0.0,0.0,0.0,0.0,0.0,0.0,0.0,0.0,0.0,0.0,0.0,0.0,0.0,0.0,0.0,0.0,0.0,-0.831,-0.7583,-0.6817,0.0,0.0,0.0,0.0,0.0,0.0,0.0,0.0,0.0,0.0,-1.5,-1.5431,-1.479,-1.522,-1.5152,-1.4003,-1.3792,-1.36,-1.3065,-1.29,-1.2582,0.0,0.0,0.0,0.0,0.0,0.0,0.0,0.0,0.0,0.0,0.0,0.0,0.0,0.0,0.0,0.0,0.0,0.0,0.0,0.0,0.0,0.0,0.0,0.0,0.0,0.0,0.0,-2.1144,-1.9777,0.0,0.0,0.0,0.0,0.0,0.0,0.0,0.0,0.0,0.0,0.0,-2.3126,-2.3318,0.0,0.0,0.0,0.0,0.0,0.0,0.0,0.0,0.0,0.0,0.0,0.0,-1.9384,-2.1245,-2.3401,-2.4808,-2.531,-2.5159,-2.4632,-2.3728,-2.2799,-2.0543,-1.6812,0.0,0.0,0.0,0.0,0.0,0.0,0.0,0.0,0.0,0.0,0.0,0.0,0.0,0.0,0.0,0.0,0.0,0.0,0.0,0.0,0.0,0.0,0.0,0.0,0.0,-0.9126,0.0,0.0,0.0,0.0,0.0,0.0,0.0,0.0,0.0,0.0,0.0,-1.3742,-1.4441,-1.4836,-1.4967,-1.4721,-1.488,-1.4858,0.0,0.0,0.0,0.0,0.0,0.0,0.0,0.0,0.0,0.0,0.0,0.0,0.0,0.0,-1.0952,-0.9281,-0.877,-0.8542,-0.8444,0.0,0.0,0.0,0.0,0.0,0.0,0.0,0.0,0.0,0.0,0.0,0.0,0.0,0.0,0.0,0.0,-2.1904,0.0,0.0,0.0,0.0,0.0,0.0,0.0,0.0,-2.5145,-2.5454,-2.5089,-2.5474,-2.5184,0.0,-2.3753,-2.1823,0.0,0.0,0.0,0.0,0.0,0.0,0.0,0.0,-2.0213,-2.2046,-2.4054,-2.536,-2.5862,-2.5686,-2.5259,-2.4556,-2.3213,-2.0948,-1.763,-1.5269,-1.3368,0.0,0.0,0.0,0.0,0.0,0.0,0.0,0.0,0.0,0.0,0.0,0.0,0.0,0.0,0.0,0.0,0.0,0.0,0.0,0.0,0.0,0.0,0.0,-0.9493,0.0,0.0,0.0,0.0,0.0,0.0,0.0,0.0,0.0,-1.2794,-1.3682,-1.4543,-1.5554,-1.5428,-1.5244,-1.5214,0.0,0.0,0.0,0.0,0.0,0.0,0.0,-1.2866,-1.2866,-1.2656,-1.2266,-1.168,-1.207,-1.2328,-1.1875,0.0,0.0,-1.0684,-1.0098,-0.9902,-0.9921,-0.9791,-0.9544,-0.9189,-0.9256,-0.9275,0.0,0.0,0.0,0.0,0.0,0.0,0.0,0.0,-2.585,-2.5369,0.0,-2.4103,0.0,0.0,0.0,0.0,0.0,0.0,0.0,0.0,-2.7906,-2.8398,-2.7444,-2.7394,-2.7153,-2.6675,-2.7077,-2.6163,-2.3954,-2.0338,0.0,0.0,0.0,0.0,0.0,0.0,-2.0964,-2.312,-2.4808,-2.5946,-2.6474,-2.5971,-2.5611,-2.5485,-2.2905,-2.0725,-1.9044,-1.7412,-1.5577,-1.3539,-1.2158,0.0,0.0,0.0,0.0,0.0,0.0,0.0,0.0,0.0,0.0,0.0,0.0,0.0,0.0,0.0,0.0,0.0,0.0,0.0,0.0,-0.9714,0.0,0.0,0.0,0.0,0.0,0.0,0.0,0.0,0.0,0.0,-1.5406,-1.5009,-1.5173,-1.6954,0.0,0.0,0.0,0.0,-1.5953,-1.5194,-1.507,-1.4835,-1.4254,-1.4121,-1.4075,-1.4094,0.0,0.0,-1.3091,-1.3574,-1.3665,-1.2496,-1.2964,-1.3398,-1.2969,-1.2132,-1.1626,-1.1606,-1.125,-1.0809,-1.0349,-1.0581,-1.0705,-3.2485,0.0,0.0,0.0,0.0,-3.0698,-3.0819,-3.1703,-3.0778,-2.9252,-2.7494,-2.7091,0.0,0.0,0.0,0.0,0.0,0.0,-2.7459,-2.8681,-2.9276,-2.9779,-3.0245,-2.9829,-2.9578,-2.9402,-2.8775,-2.7921,-2.6866,-2.5041,-2.2146,-1.8356,0.0,0.0,0.0,0.0,-2.2869,-2.4274,-2.5586,-2.6524,-2.7077,-2.6524,-2.5871,-2.5026,-2.3468,-2.201,-2.0794,-1.9124,-1.7615,-1.6338,-1.4027,0.0,0.0,0.0,0.0,0.0,0.0,0.0,0.0,0.0,0.0,0.0,0.0,0.0,0.0,0.0,0.0,0.0,0.0,0.0,-0.9943,-1.045,-1.0593,0.0,0.0,0.0,0.0,0.0,0.0,0.0,0.0,0.0,-1.6184,-1.5587,-1.5113,0.0,0.0,-1.4899,-1.5335,-1.4997,-1.4821,-1.507,0.0,0.0,0.0,-1.4433,-1.4114,-1.4114,-1.4114,-1.4016,-1.3782,-1.3938,-1.397,-1.3607,-1.3743,-1.388,-1.3743,-1.3086,-1.2563,-1.2524,-1.2426,-1.2301,-1.2161,-1.221,-1.222,-3.6155,-3.4101,-3.2895,-3.3135,-3.4199,-3.3504,-3.3749,-3.4513,-3.3604,-3.2423,-3.1145,-3.0407,-2.9189,-2.7694,-2.7011,0.0,0.0,0.0,-2.9388,-3.083,-3.0553,-3.0783,-3.1336,-3.106,-3.0909,-3.0884,-3.003,-2.9389,-2.9076,-2.7971,-2.5611,-2.2096,0.0,0.0,-2.0916,-2.3,-2.4682,-2.5762,-2.6666,-2.7203,-2.7268,-2.6776,-2.6072,-2.5159,-2.4224,-2.3246,-2.2171,-2.0934,-1.9553,-1.8111,-1.6287,-1.4317,0.0,0.0,0.0,0.0,0.0,0.0,0.0,0.0,0.0,0.0,0.0,-0.8717,-0.7311,0.0,0.0,0.0,-0.9573,-1.0647,-1.1711,-1.1845,0.0,0.0,0.0,0.0,0.0,0.0,0.0,-1.3681,-1.4052,-1.4656,-1.6033,-1.5945,-1.5827,-1.6058,-1.5753,-1.56,-1.589,0.0,-1.5718,-1.5517,-1.5155,-1.4984,-1.5191,-1.4869,-1.4621,-1.4621,-1.4601,-1.4601,-1.4621,-1.4601,-1.4562,-1.4426,-1.4367,-1.4336,-1.4153,-1.3711,-1.332,-1.3189,-1.315,-1.3111,-1.2954,-1.2915,-1.2915,-3.8617,-3.7965,-3.5956,-3.5077,-3.5027,-3.5483,-3.5408,-3.4956,-3.4977,-3.4951,-3.4826,-3.3771,-3.2918,-3.2231,-3.1526,0.0,0.0,-3.1681,-3.2169,-3.239,-3.1888,-3.1637,-3.1587,-3.1537,-3.1512,-3.1436,-3.0934,-3.0618,-3.0557,-2.9553,-2.8247,-2.6751,-2.5209,-2.4607,-2.4908,-2.5485,-2.6339,-2.7429,-2.7921,-2.7871,-2.7293,-2.6826,-2.6248,-2.5536,-2.5059,-2.4249,-2.3145,-2.2518,-2.1265,-1.9247,-1.8595,-1.6855,-1.3826,0.0,0.0,0.0,0.0,0.0,0.0,0.0,0.0,0.0,0.0,0.0,0.0,0.0,0.0,0.0,-1.1618,0.0,-1.4022,-1.3595,0.0,0.0,0.0,-1.257,-1.3001,-1.308,-1.3417,-1.4246,0.0,0.0,0.0,0.0,-1.6961,-1.7437,-1.7523,-1.7446,-1.7202,-1.7635,-1.7685,-1.6297,-1.6154,-1.5957,-1.5547,-1.5371,-1.5332,-1.5332,-1.541,-1.5371,-1.5352,-1.5371,-1.5234,-1.4902,-1.4844,-1.4727,-1.4289,-1.4231,-1.4075,-1.3711,-1.3594,-1.3437,-1.3091,-1.2993,-1.2974,-3.9421,-3.9245,-3.8718,-3.8015,-3.7236,-3.7362,-3.7362,-3.7236,-3.7236,-3.6985,-3.6508,-3.5454,-3.4173,-3.2885,-3.2693,-3.2803,-3.3119,-3.3308,-3.3687,-3.4098,-3.3997,-3.3721,-3.3294,-3.2867,-3.2441,-3.1989,-3.1461,-3.1009,-3.0608,-3.0357,-2.9804,-2.9001,-2.8599,-2.7419,-2.5536,-2.6816,-2.7846,-2.8487,-2.8637,-2.8273,-2.7318,-2.7168,-2.6414,-2.5001,-2.485,-2.4274,-2.3145,-2.2196,-2.1437,-2.0874,-1.9139,-1.7648,-1.6551,-1.4121,0.0,0.0,0.0,0.0,0.0,0.0,0.0,0.0,0.0,-1.2205,-0.9697,0.0,-1.3645,0.0,-1.3512,-1.4407,-1.4749,-1.4981,0.0,0.0,-1.4884,-1.4854,-1.4411,-1.4629,-1.5037,-1.5565,-1.6313,-1.6647,-1.6418,-1.703,-1.74,-1.7012,-1.691,-1.6878,-1.6843,-1.6937,-1.6968,-1.6656,-1.6582,-1.6426,-1.6007,-1.5625,-1.543,-1.541,-1.541,-1.541,-1.541,-1.541,-1.5371,-1.5264,-1.5254,-1.5215,-1.5098,-1.5098,-1.4941,-1.4551,-1.4219,-1.3841,-1.3457,-1.3359,-1.3262,-3.9923,-3.9697,-3.9697,-3.932,-3.8768,-3.8768,-3.8743,-3.8743,-3.8517,-3.8216,-3.7889,-3.7036,-3.6006,-3.4947,-3.4695,-3.4745,-3.4951,-3.45,-3.4575,-3.5006,-3.4826,-3.455,-3.4248,-3.3721,-3.3269,-3.2943,-3.2139,-3.1612,-3.1311,-3.0834,-3.0457,-3.0156,-2.9905,-2.9001,-2.757,-2.8398,-2.9001,-2.9302,-2.9013,-2.8612,-2.8047,-2.7544,-2.6741,-2.5611,-2.5084,-2.4249,-2.3145,-2.2322,-2.1518,-2.0765,-1.9525,-1.8434,-1.7436,-1.5603,-1.414,0.0,0.0,0.0,0.0,0.0,0.0,0.0,0.0,0.0,0.0,0.0,-1.5151,0.0,-1.563,0.0,-1.7062,-1.7363,-1.7161,-1.6401,-1.6997,-1.706,-1.6079,-1.6313,-1.6648,-1.6921,-1.7154,-1.721,-1.7056,-1.7504,-1.7753,-1.7318,-1.7272,-1.7194,-1.7103,-1.7439,-1.766,-1.7115,-1.7012,-1.6875,-1.6426,-1.5996,-1.5703,-1.5684,-1.5527,-1.541,-1.541,-1.541,-1.541,-1.541,-1.541,-1.541,-1.541,-1.541,-1.5332,-1.5117,-1.4883,-1.4465,-1.388,-1.3607,-1.3418,-4.0224,-3.9798,-3.9722,-3.9697,-3.9697,-3.9697,-3.9697,-3.9672,-3.9195,-3.8994,-3.8843,-3.8341,-3.7814,-3.7262,-3.6832,-3.6581,-3.6455,-3.5454,-3.5207,-3.5558,-3.5107,-3.4901,-3.4756,-3.4349,-3.4022,-3.3847,-3.2893,-3.2365,-3.219,-3.1286,-3.0758,-3.0608,-3.0131,-2.988,-2.9804,-2.9779,-2.9779,-2.9779,-2.9302,-2.8963,-2.8888,-2.7921,-2.7128,-2.6499,-2.541,-2.4274,-2.3145,-2.2569,-2.1619,-2.0137,-2.0037,-1.9331,-1.7823,-1.6876,-1.6003,0.0,-1.4293,0.0,0.0,0.0,0.0,0.0,0.0,0.0,0.0,-1.6128,-1.6748,-1.775,-1.8018,-1.8607,-1.9828,-1.9946,-1.9384,-1.8075,-1.886,-1.9015,-1.776,-1.791,-1.8113,-1.802,-1.7692,-1.7461,-1.748,-1.7793,-1.8008,-1.7949,-1.7949,-1.7812,-1.7625,-1.8314,-1.856,-1.7599,-1.7422,-1.7187,-1.6855,-1.6445,-1.6183,-1.6144,-1.5879,-1.5556,-1.5595,-1.5566,-1.5508,-1.5508,-1.5469,-1.541,-1.541,-1.541,-1.541,-1.5391,-1.5352,-1.5098,-1.4387,-1.3965,-1.3672,-4.045,-4.0325,-3.9873,-3.9697,-3.9697,-3.9697,-3.9697,-3.9697,-3.9597,-3.9295,-3.8868,-3.8768,-3.8391,-3.7864,-3.7739,-3.7437,-3.7059,-3.681,-3.6533,-3.6182,-3.6107,-3.5805,-3.5357,-3.5232,-3.4776,-3.3922,-3.3696,-3.3093,-3.2215,-3.2014,-3.1461,-3.0633,-3.0507,-3.0231,-2.9804,0.0,0.0,0.0,-2.9679,-2.9402,-2.8888,-2.8298,-2.7469,-2.6524,-2.541,0.0,-2.317,-2.2598,-2.197,-2.1217,-2.1167,0.0,0.0,0.0,0.0,0.0,0.0,0.0,0.0,0.0,0.0,0.0,-1.8692,-1.7665,-1.6382,-1.8363,-1.9837,-2.0063,-2.0886,-2.1198,-2.0734,-2.1349,-2.1112,-1.9569,-2.0151,-2.0099,-1.8594,-1.8796,-1.8796,-1.8088,-1.7933,-1.7891,-1.791,-1.7969,-1.8027,-1.8027,-1.8008,-1.7988,-1.7891,-1.8118,-1.8172,-1.7891,-1.7617,-1.7383,-1.7266,-1.6894,-1.6602,-1.6582,-1.6531,-1.6434,-1.6375,-1.6152,-1.5968,-1.5968,-1.5644,-1.543,-1.543,-1.541,-1.541,-1.541,-1.541,-1.5254,-1.4766,-1.4637,-1.4434,-4.1003,0.0,-4.0224,-3.9948,0.0,-3.9697,-3.9697,-3.9697,-3.9697,-3.9546,-3.9295,-3.927,-3.912,-3.8818,-3.8567,-3.8291,-3.799,-3.7486,-3.7036,-3.6807,-3.6483,-3.6232,-3.5931,-3.5633,-3.5056,-3.4299,-3.4022,-3.347,-3.2667,-3.234,-3.1938,-3.1386,-3.0844,-3.0482,-3.0206,-2.993,-2.9779,-2.9779,-2.9779,-2.9654,-2.9352,-2.88,-2.7971,-2.6927,0.0,0.0,0.0,0.0,0.0,0.0,0.0,0.0,0.0,0.0,0.0,-1.9836,-1.9643,-1.9762,-2.0185,-2.0308,-2.0653,-2.1276,-2.0687,-1.9795,-1.8646,-2.0625,-2.1795,-2.1633,-2.2086,-2.229,-2.2147,-2.2517,-2.2455,-2.1702,-2.1917,-2.1638,-2.049,-2.005,-1.9775,-1.9312,-1.8914,-1.8633,-1.8652,-1.8652,-1.8535,-1.8325,-1.8286,-1.8208,-1.8047,-1.8008,-1.8008,-1.8008,-1.7852,-1.7695,-1.7656,-1.7344,-1.7051,-1.7031,-1.6843,-1.6707,-1.6687,-1.6543,-1.6387,-1.6367,-1.6035,-1.5742,-1.5703,-1.5566,-1.541,-1.541,-1.541,-1.5352,-1.5117,-1.4941,-1.4727,-4.163,-4.0802,-4.0701,-4.035,-3.9848,-3.9848,-3.9772,-3.9697,0.0,0.0,0.0,-3.9697,-3.9697,-3.9672,-3.922,-3.902,-3.8869,-3.7914,-3.7387,-3.7161,-3.6757,-3.6505,-3.638,-3.5881,-3.5357,-3.4806,-3.4324,-3.3771,-3.3219,-3.2641,-3.2315,-3.2139,-3.1295,-3.0809,-3.0608,-3.0055,-2.9779,-2.9779,-2.9779,-2.9779,-2.9779,-2.9227,-2.8499,-2.7595,-2.6977,-2.5669,-2.3622,-2.3547,-2.2819,-2.1395,-2.137,-2.1395,-2.1295,-2.1722,-2.2096,-2.2418,-2.28,-2.3094,-2.324,-2.3224,-2.3009,-2.2528,-2.2414,-2.2031,-2.1384,-2.2427,-2.3101,-2.3071,-2.303,-2.3147,-2.331,-2.3421,-2.3341,-2.3128,-2.3068,-2.2672,-2.1818,-2.1075,-2.049,-2.0354,-1.9673,-1.9277,-1.9238,-1.9238,-1.916,-1.8848,-1.8715,-1.8617,-1.8301,-1.8125,-1.8008,-1.8008,-1.7969,-1.7988,-1.7949,-1.7734,-1.7533,-1.748,-1.7207,-1.6941,-1.6921,-1.6863,-1.6824,-1.6804,-1.6484,-1.6261,-1.6183,-1.584,-1.5547,-1.5527,-1.5469,-1.541,-1.5391,-1.5137,-1.4922,-4.2112,-4.1936,-4.143,-4.0849,-4.04,-4.04,-4.0124,-3.9697,-3.9697,-3.9697,-3.9697,-3.9697,-3.9697,-3.9697,-3.9622,-3.932,-3.8868,-3.8768,-3.8165,0.0,-3.7111,-3.6857,-3.6405,-3.6329,-3.5956,-3.5382,-3.4851,-3.4324,-3.3771,-3.3219,-3.2717,-3.2265,-3.2064,-3.1537,-3.0658,-3.008,-2.9779,-2.9779,-2.9779,-2.9779,-2.9779,-2.9227,-2.8838,-2.8674,-2.7695,-2.659,-2.531,-2.5234,-2.4732,-2.3627,-2.3979,-2.4029,-2.3577,-2.3602,-2.3452,-2.3015,-2.2847,-2.3077,-2.3841,-2.3587,-2.3781,-2.4539,-2.532,-2.5007,-2.3176,-2.3161,-2.3788,-2.4954,-2.512,-2.4687,-2.3715,-2.3863,-2.3433,-2.1941,-2.191,-2.1759,-2.0998,-2.0715,-2.0365,-1.97,-1.9406,-1.9316,-1.9355,-1.9336,-1.9336,-1.9219,-1.916,-1.9141,-1.8945,-1.8477,-1.8066,-1.8008,-1.8008,-1.8008,-1.7988,-1.7969,-1.7891,-1.793,-1.7832,-1.7715,-1.7715,-1.748,-1.7305,-1.7305,-1.6934,-1.6648,-1.6621,-1.6269,-1.6046,-1.5968,-1.5684,-1.5469,-1.543,-1.5332,-1.5293,-4.2489,-4.2187,-4.1882,-4.1455,-4.0899,-4.0598,-4.0199,-3.9722,-3.9697,-3.9697,-3.9697,-3.9697,-3.9697,-3.9697,-3.9697,-3.9546,-3.9295,-3.907,-3.8642,-3.8114,-3.7462,-3.7036,-3.6784,-3.6556,-3.6081,-3.5508,-3.5257,-3.4726,-3.3922,-3.3646,-3.3244,-3.2692,-3.2365,-3.1687,-3.0658,-3.0357,-3.0105,-2.9804,-2.9779,-2.9779,-2.9779,-2.9553,-2.9252,-2.8888,-2.8423,-2.7645,-2.6565,-2.6549,-2.6172,-2.5393,-2.5586,-2.5644,-2.5393,-2.5611,-2.5661,-2.541,-2.5515,-2.5812,-2.618,-2.6094,-2.5957,-2.5911,-2.6287,-2.6142,-2.5195,-2.5597,-2.5977,-2.6126,-2.5906,-2.5456,-2.4805,-2.4696,-2.4249,-2.337,-2.3024,-2.2388,-2.1481,-2.0876,-2.0449,-2.0094,-1.998,-2.0018,-2.0018,-2.0018,-1.9901,-1.9687,-1.9473,-1.9297,-1.9297,-1.8965,-1.8613,-1.8344,-1.813,-1.8027,-1.8008,-1.8008,-1.8008,-1.8008,-1.8008,-1.8008,-1.8008,-1.7812,-1.7734,-1.7695,-1.7383,-1.7129,-1.7058,-1.6719,-1.6387,-1.6105,-1.5968,-1.5752,-1.5508,-1.541,-1.541,-4.2735,-4.2389,-4.2389,-4.2032,-4.1455,-4.0802,-4.0275,-3.9898,-3.9747,-3.9697,-3.9697,-3.9697,-3.9697,-3.9697,-3.9697,-3.9697,-3.9622,-3.9245,-3.8994,-3.8768,-3.7839,-3.7312,-3.7136,-3.6681,-3.6132,-3.5708,-3.5583,-3.5056,-3.4324,-3.4022,-3.3621,-3.3068,-3.2491,-3.1788,-3.0984,-3.0733,-3.0407,-3.0005,-2.9854,-2.9779,-2.9779,-2.9779,-2.9578,-2.9176,-2.9126,-2.8649,-2.772,-2.7645,-2.7394,-2.6901,-2.6876,-2.6851,-2.6876,-2.7218,-2.7469,-2.7555,-2.7871,-2.8122,-2.8122,-2.8122,-2.7792,-2.7195,-2.712,-2.7169,-2.7351,-2.8039,-2.7916,-2.6764,-2.5924,-2.5526,-2.5466,-2.5222,-2.5024,-2.4987,-2.4121,-2.3101,-2.2282,-2.1344,-2.0703,-2.0644,-2.0605,-2.0586,-2.0605,-2.0605,-2.0449,-2.0078,-1.9766,-1.9627,-1.9607,-1.9549,-1.9277,-1.8965,-1.8539,-1.8359,-1.8281,-1.8223,-1.8184,-1.811,-1.8066,-1.8027,-1.8008,-1.8008,-1.8008,-1.7949,-1.7754,-1.7559,-1.75,-1.7187,-1.6816,-1.6535,-1.6359,-1.6124,-1.5713,-1.5488,-1.543,-4.2936,-4.2911,-4.2886,-4.2585,-4.2011,-4.0978,-4.0501,-4.0375,-3.9923,-3.9697,-3.9697,-3.9697,-3.9697,-3.9697,-3.9697,-3.9697,-3.9697,-3.9647,-3.9346,-3.8919,-3.8216,-3.7663,-3.7186,-3.6681,-3.638,-3.6207,-3.5805,-3.5458,-3.5207,-3.4349,-3.3621,-3.3111,-3.2491,-3.219,-3.1964,-3.111,-3.0608,-3.0532,-3.0055,-2.9779,-2.9779,-2.9779,-2.9754,-2.9729,-2.9704,-2.9428,-2.8737,-2.8737,-2.8524,-2.8021,-2.7946,-2.7946,-2.7971,-2.8021,-2.8047,-2.8047,-2.8097,-2.8122,-2.8122,-2.8122,-2.8274,-2.8625,-2.8637,-2.8837,-2.9311,-2.9488,-2.8694,-2.6885,-2.5524,-2.5147,-2.5031,-2.5041,-2.4989,-2.4928,-2.4098,-2.3327,-2.2733,-2.1808,-2.1016,-2.0644,-2.0703,-2.0625,-2.0664,-2.0625,-2.0586,-2.0469,-2.039,-2.0331,-2.0312,-2.0059,-1.9863,-1.9727,-1.9434,-1.918,-1.9082,-1.8773,-1.8559,-1.85,-1.8227,-1.8086,-1.8047,-1.8008,-1.8008,-1.7988,-1.7969,-1.7891,-1.7832,-1.7617,-1.7324,-1.707,-1.6816,-1.6523,-1.6124,-1.5752,-1.5508,-4.2986,-4.2986,-4.2986,-4.2715,-4.2162,-4.1656,-4.1103,-4.0501,-4.0275,-3.9998,-3.9722,-3.9697,-3.9697,-3.9697,-3.9697,-3.9697,-3.9697,-3.9697,-3.9572,-3.932,-3.8768,-3.8216,-3.7663,-3.7111,-3.6684,-3.6405,-3.6132,-3.5881,-3.5357,-3.4405,-3.3771,-3.352,-3.3018,-3.2566,-3.2215,-3.1763,-3.1411,-3.106,-3.0557,-3.0281,-3.0231,-2.9955,-2.9779,-2.9779,-2.9779,-2.9704,-2.9478,-2.9453,-2.9327,-2.9126,-2.9101,-2.9101,-2.9101,-2.9101,-2.9101,-2.9101,-2.9101,-2.9101,-2.9101,-2.9101,-2.9202,-2.9428,-2.9453,-2.9553,-2.9677,-2.8633,-2.7439,-2.6708,-2.6362,-2.6037,-2.5447,-2.5083,-2.467,-2.4158,-2.3642,-2.3099,-2.2392,-2.1927,-2.1523,-2.1407,-2.1388,-2.123,-2.0977,-2.0723,-2.0625,-2.0605,-2.0605,-2.0625,-2.0586,-2.041,-2.0332,-2.0273,-2.0175,-1.9862,-1.9434,-1.916,-1.8926,-1.8656,-1.8461,-1.834,-1.8086,-1.8008,-1.8008,-1.8008,-1.8008,-1.8008,-1.7988,-1.7891,-1.7695,-1.7461,-1.7051,-1.6629,-1.6484,-1.6113,-1.5859,-4.2986,-4.2986,-4.2986,-4.2816,-4.2414,-4.2263,-4.176,-4.0978,-4.0651,-4.03,-3.9923,-3.9772,-3.9697,-3.9697,-3.9697,-3.9697,-3.9697,-3.9697,-3.9697,-3.9622,-3.912,-3.8693,-3.8216,-3.7688,-3.7111,-3.6707,-3.6631,-3.6232,-3.5483,-3.4801,-3.4198,-3.3897,-3.3495,-3.3018,-3.2491,-3.2315,-3.2014,-3.1612,-3.1085,-3.0758,-3.0543,-3.0231,-2.993,-2.9804,-2.9779,-2.9779,-2.9779,-2.9779,-2.9779,-2.9779,-2.9779,-2.9779,-2.9779,-2.9779,-2.9779,-2.9779,-2.9779,-2.9779,-2.9779,-2.9779,-2.9779,-2.9779,-2.9546,-2.9326,-2.9052,-2.7585,-2.6442,-2.6044,-2.6368,-2.6102,-2.5555,-2.5026,-2.4588,-2.4185,-2.3942,-2.335,-2.2714,-2.2322,-2.1992,-2.1914,-2.1838,-2.1777,-2.1445,-2.1152,-2.0997,-2.082,-2.0762,-2.0703,-2.0644,-2.0605,-2.0586,-2.0605,-2.0586,-2.0351,-1.9783,-1.9531,-1.9316,-1.9065,-1.8909,-1.8672,-1.8247,-1.8169,-1.8066,-1.8086,-1.8047,-1.8008,-1.8008,-1.7969,-1.793,-1.7598,-1.7246,-1.6902,-1.6914,-1.6543,-1.6261,-4.2986,-4.2986,-4.2986,-4.2936,-4.2886,-4.2464,-4.2187,-4.1961,-4.0978,-4.0501,-4.0375,-3.9923,-3.9697,-3.9697,-3.9697,-3.9697,-3.9697,-3.9697,-3.9697,-3.9647,-3.9196,-3.8919,-3.8844,-3.8241,-3.7663,-3.7111,-3.7061,-3.6584,-3.5583,-3.5408,-3.4881,-3.3972,-3.3872,-3.3571,-3.3086,-3.2516,-3.2215,-3.2114,-3.1637,-3.1135,-3.0708,-3.0608,-3.0331,-2.988,-2.9779,-2.9779,-2.9779,-2.9779,-2.9779,-2.9779,-2.9779,-2.9779,-2.9779,-2.9779,-2.9779,-2.9779,-2.9779,-2.9779,-2.9779,-2.9779,-2.9779,-2.9663,-2.891,-2.8227,-2.8267,-2.7075,-2.5964,-2.5041,-2.4978,-2.4872,-2.4788,-2.4661,-2.5018,-2.5727,-2.5166,-2.443,-2.4012,-2.2968,-2.2327,-2.2031,-2.1973,-2.1934,-2.1855,-2.1855,-2.1562,-2.1309,-2.1151,-2.1055,-2.0762,-2.0644,-2.0605,-2.0605,-2.0605,-2.0586,-2.0488,-2.0137,-1.9902,-1.9668,-1.9336,-1.9102,-1.8792,-1.8539,-1.8344,-1.8149,-1.8144,-1.8105,-1.8027,-1.8008,-1.7988,-1.7812,-1.7598,-1.7402,-1.7344,-1.6992,-1.6699,-4.2986,-4.2986,-4.2986,-4.2986,-4.2961,-4.276,-4.2539,-4.2137,-4.1379,-4.0827,-4.045,-3.9948,-3.9697,-3.9697,-3.9697,-3.9697,-3.9697,-3.9697,-3.9697,-3.9672,-3.9471,-3.9195,-3.8868,-3.8642,-3.8065,-3.7287,-3.7186,-3.681,-3.6107,-3.5683,-3.5307,-3.4901,-3.4223,-3.3796,-3.352,-3.3043,-3.2767,-3.2717,-3.2215,-3.1813,-3.1587,-3.1286,-3.0859,-3.0331,-2.998,-2.9779,-2.9779,-2.9779,-2.9779,-2.9779,-2.9779,-2.9779,-2.9779,-2.9779,-2.9779,-2.9779,-2.9779,-2.9779,-2.9779,-2.9779,-2.9779,-2.9702,-2.8727,-2.8084,-2.7804,-2.6479,-2.521,-2.4787,-2.4039,-2.3757,-2.3714,-2.3714,-2.3887,-2.4145,-2.3973,-2.3697,-2.3491,-2.3106,-2.2808,-2.2676,-2.248,-2.2285,-2.2227,-2.2051,-2.1836,-2.166,-2.1426,-2.1151,-2.1016,-2.0781,-2.0625,-2.0605,-2.0605,-2.0605,-2.0605,-2.0449,-2.0254,-1.998,-1.9707,-1.9473,-1.9219,-1.9082,-1.8906,-1.852,-1.8383,-1.8188,-1.8144,-1.8008,-1.8008,-1.7969,-1.7754,-1.7734,-1.7793,-1.7383,-1.7129,-4.2986,-4.2986,-4.2986,-4.2986,-4.2986,-4.2986,-4.276,-4.2414,-4.1831,-4.1304,-4.0752,-4.0199,-3.9873,-3.9722,-3.9697,-3.9697,-3.9697,-3.9697,-3.9697,-3.9697,-3.9697,-3.9496,-3.9195,-3.9145,-3.8642,-3.7764,-3.7337,-3.6958,-3.643,-3.6006,-3.5683,-3.5433,-3.4731,-3.4223,-3.3897,-3.352,-3.3312,-3.3043,-3.2667,-3.2416,-3.2215,-3.1838,-3.1411,-3.0909,-3.0482,-3.0131,-2.9829,-2.9779,-2.9779,-2.9779,-2.9779,-2.9779,-2.9779,-2.9779,-2.9779,-2.9779,-2.9779,-2.9779,-2.9779,-2.9779,-2.9779,-2.974,-2.8767,-2.8004,-2.7522,-2.5859,-2.4787,-2.4211,-2.3627,-2.3101,-2.3101,-2.3144,-2.3101,-2.3101,-2.3101,-2.3101,-2.3101,-2.3081,-2.3081,-2.3023,-2.2828,-2.2734,-2.2676,-2.2461,-2.2266,-2.2129,-2.1816,-2.1561,-2.1229,-2.0996,-2.0703,-2.0644,-2.0605,-2.0605,-2.0605,-2.0546,-2.0488,-2.0254,-2.0117,-1.9883,-1.9668,-1.9551,-1.9336,-1.8984,-1.8637,-1.8383,-1.8223,-1.8066,-1.8008,-1.8008,-1.7969,-1.7891,-1.7871,-1.7793,-1.75,-4.2986,-4.2986,-4.2986,-4.2986,-4.2986,-4.2986,-4.3017,-4.2836,-4.2389,-4.1781,-4.1304,-4.0727,-4.0174,-3.9823,-3.9722,-3.9697,-3.9697,-3.9697,-3.9697,-3.9697,-3.9697,-3.9697,-3.9622,-3.9597,-3.9295,-3.8668,-3.7713,-3.6935,-3.6505,-3.643,-3.6132,-3.5608,-3.5433,-3.4881,-3.3972,-3.3947,-3.3646,-3.3244,-3.3093,-3.2817,-3.229,-3.224,-3.1964,-3.1461,-3.1361,-3.0884,-2.993,-2.9854,-2.9829,-2.9779,-2.9779,-2.9779,-2.9779,-2.9779,-2.9779,-2.9779,-2.9779,-2.9779,-2.9779,-2.9779,-2.9779,-2.9663,-2.8727,-2.7683,-2.6707,-2.5546,-2.4382,-2.3474,-2.3169,-2.3101,-2.3101,-2.3101,-2.3101,-2.3101,-2.3101,-2.3101,-2.3101,-2.3101,-2.3101,-2.3081,-2.3042,-2.3081,-2.3081,-2.2984,-2.2789,-2.2578,-2.2402,-2.2087,-2.1522,-2.1288,-2.1055,-2.082,-2.082,-2.0918,-2.0762,-2.0605,-2.0605,-2.0566,-2.0507,-2.0351,-2.0078,-1.994,-1.9727,-1.9394,-1.8929,-1.8676,-1.8325,-1.8203,-1.8086,-1.8066,-1.8047,-1.8008,-1.7949,-1.7871,-1.7754,-4.2986,-4.2986,-4.2986,-4.2986,-4.2986,-4.2986,-4.2986,-4.2911,-4.2439,-4.2112,-4.1756,-4.0927,-4.0425,-4.0199,-3.9898,-3.9697,-3.9697,-3.9697,-3.9697,-3.9697,-3.9697,-3.9697,-3.9697,-3.9697,-3.9396,-3.8818,-3.8115,-3.7462,-3.701,-3.6983,-3.6659,-3.6157,-3.5683,-3.5357,-3.4956,-3.4675,-3.4198,-3.3721,-3.3646,-3.337,-3.2867,-3.2817,-3.2516,-3.2039,-3.1938,-3.1612,-3.0934,-3.0557,-3.0181,-2.9829,-2.9779,-2.9779,-2.9779,-2.9779,-2.9779,-2.9779,-2.9779,-2.9779,-2.9779,-2.9779,-2.9779,-2.9624,-2.8767,-2.7666,-2.6607,-2.5504,-2.4361,-2.3343,-2.3101,-2.3101,-2.3101,-2.3101,-2.3101,-2.3101,-2.3101,-2.3101,-2.3101,-2.3101,-2.3101,-2.3101,-2.3101,-2.3101,-2.3101,-2.3101,-2.3042,-2.2886,-2.2715,-2.2301,-2.2148,-2.1816,-2.168,-2.1484,-2.1445,-2.1269,-2.1094,-2.0918,-2.082,-2.0703,-2.0664,-2.0586,-2.039,-2.0273,-2.0039,-1.9746,-1.9336,-1.8965,-1.8613,-1.8325,-1.8227,-1.8105,-1.8047,-1.8027,-1.8008,-1.7949,-1.7852,-4.3162,-4.2986,-4.2986,-4.2986,-4.2986,-4.2986,-4.2986,-4.2936,-4.2665,-4.2389,-4.2087,-4.1455,-4.0877,-4.0526,-4.0149,-3.9898,-3.9722,-3.9697,-3.9697,-3.9697,-3.9697,-3.9697,-3.9697,-3.9697,-3.9396,-3.8919,-3.8492,-3.804,-3.7487,-3.7262,-3.701,-3.6634,-3.6107,-3.5683,-3.5508,-3.5157,-3.4751,-3.4299,-3.4198,-3.3947,-3.3495,-3.337,-3.3119,-3.2616,-3.2541,-3.2265,-3.1738,-3.1361,-3.0959,-3.0457,-3.0206,-3.0105,-3.008,-2.993,-2.9779,-2.9779,-2.9779,-2.9779,-2.9779,-2.9779,-2.9779,-2.9663,-2.9145,-2.8267,-2.7157,-2.6088,-2.4957,-2.3973,-2.3343,-2.3101,-2.3101,-2.3101,-2.3101,-2.3101,-2.3101,-2.3101,-2.3101,-2.3101,-2.3101,-2.3101,-2.3101,-2.3101,-2.3101,-2.3101,-2.3101,-2.3042,-2.2867,-2.2594,-2.2539,-2.2266,-2.2129,-2.1973,-2.1777,-2.1621,-2.1484,-2.1309,-2.1113,-2.0898,-2.0742,-2.0664,-2.0527,-2.0488,-2.037,-1.998,-1.959,-1.9355,-1.9023,-1.8637,-1.8461,-1.8266,-1.813,-1.8027,-1.8008,-1.8008,-1.793,-4.3489,-4.3092,-4.2986,-4.2986,-4.2986,-4.2986,-4.2986,-4.2986,-4.2961,-4.274,-4.2338,-4.2112,-4.1505,-4.0752,-4.0501,-4.0174,-3.9772,-3.9697,-3.9697,-3.9697,-3.9697,-3.9697,-3.9697,-3.9697,-3.9446,-3.9095,-3.8969,-3.8617,-3.8065,-3.7663,-3.7236,-3.7134,-3.6681,-3.6132,-3.5708,-3.5558,-3.5257,-3.4806,-3.4731,-3.45,-3.3997,-3.3947,-3.3696,-3.3169,-3.3119,-3.2842,-3.234,-3.219,-3.1938,-3.1386,-3.0859,-3.0658,-3.0557,-3.0156,-2.998,-3.003,-2.9905,-2.998,-2.993,-3.0055,-3.003,-3.0055,-2.9756,-2.9386,-2.8265,-2.7001,-2.587,-2.491,-2.3914,-2.3237,-2.3218,-2.3179,-2.3159,-2.3101,-2.3101,-2.3101,-2.3101,-2.3101,-2.3101,-2.3101,-2.3101,-2.3101,-2.3101,-2.3101,-2.3101,-2.3081,-2.3062,-2.2867,-2.2691,-2.2496,-2.2363,-2.2266,-2.2207,-2.207,-2.1973,-2.1816,-2.1602,-2.1289,-2.0996,-2.0762,-2.0644,-2.0586,-2.0566,-2.0195,-1.9941,-1.9707,-1.9453,-1.9104,-1.8831,-1.8676,-1.8477,-1.8184,-1.8086,-1.8164,-1.8105,-4.3714,-4.3539,-4.3137,-4.2986,-4.2986,-4.2986,-4.2986,-4.2986,-4.2986,-4.2886,-4.274,-4.2389,-4.1806,-4.1075,-4.0648,-4.0224,-3.9848,-3.9697,-3.9697,-3.9697,-3.9697,-3.9697,-3.9697,-3.9697,-3.9622,-3.9471,-3.9421,-3.9195,-3.8668,-3.8442,-3.7965,-3.7235,-3.7086,-3.6732,-3.6232,-3.6157,-3.5855,-3.5357,-3.5282,-3.5006,-3.46,-3.45,-3.4248,-3.3746,-3.3696,-3.3395,-3.2918,-3.2842,-3.2365,-3.1486,-3.1286,-3.1185,-3.116,-3.1009,-3.0884,-3.0884,-3.0909,-3.0934,-3.0934,-3.0934,-3.0934,-3.0879,-3.0082,-2.9563,-2.9356,-2.7364,-2.63,-2.5683,-2.4811,-2.3881,-2.3691,-2.3594,-2.3477,-2.3159,-2.3101,-2.3101,-2.3101,-2.3101,-2.3101,-2.3101,-2.3101,-2.3101,-2.3101,-2.3101,-2.3101,-2.3101,-2.3081,-2.3062,-2.2886,-2.2847,-2.2711,-2.2808,-2.2789,-2.2637,-2.2461,-2.2305,-2.209,-2.1738,-2.1367,-2.0937,-2.0742,-2.0605,-2.0586,-2.0449,-2.0312,-2.0155,-1.9902,-1.9631,-1.9377,-1.9121,-1.8965,-1.873,-1.85,-1.8461,-1.8305,-4.4016,-4.3765,-4.3212,-4.2986,-4.2986,-4.2986,-4.2986,-4.2986,-4.2986,-4.2986,-4.2911,-4.2715,-4.2263,-4.1656,-4.1103,-4.0551,-4.0074,-3.9798,-3.9697,-3.9697,-3.9697,-3.9697,-3.9697,-3.9697,-3.9697,-3.9697,-3.9697,-3.9521,-3.9195,-3.8994,-3.8542,-3.8039,-3.7638,-3.7262,-3.6782,-3.6732,-3.6433,-3.5981,-3.5881,-3.5629,-3.5082,-3.5031,-3.4776,-3.4374,-3.4223,-3.3997,-3.352,-3.342,-3.2993,-3.2265,-3.1888,-3.1738,-3.1712,-3.1486,-3.1386,-3.1386,-3.1386,-3.1361,-3.1386,-3.1386,-3.1386,-3.1157,-3.0264,-2.9761,-2.9249,-2.7502,-2.6148,-2.6017,-2.5083,-2.4415,-2.4102,-2.3906,-2.3594,-2.3179,-2.3101,-2.3101,-2.3101,-2.3101,-2.3101,-2.3101,-2.3101,-2.3101,-2.3101,-2.3101,-2.3101,-2.3101,-2.3101,-2.3101,-2.3062,-2.3101,-2.3101,-2.3101,-2.3101,-2.2886,-2.2691,-2.2578,-2.2402,-2.209,-2.168,-2.123,-2.0898,-2.0703,-2.0605,-2.0586,-2.0605,-2.0546,-2.0273,-2.0039,-1.9766,-1.9531,-1.9434,-1.9258,-1.9023,-1.887,-1.8676,-4.4342,-4.384,-4.3237,-4.2986,-4.2986,-4.2986,-4.2986,-4.2986,-4.2986,-4.2986,-4.2961,-4.2986,-4.264,-4.2187,-4.1605,-4.1078,-4.0475,-4.0023,-3.9798,-3.9722,-3.9697,-3.9697,-3.9697,-3.9697,-3.9697,-3.9697,-3.9697,-3.9672,-3.9521,-3.917,-3.8944,-3.8642,-3.8266,-3.7814,-3.7337,-3.7186,-3.6885,-3.6556,-3.6307,-3.6081,-3.5705,-3.5604,-3.5353,-3.4831,-3.465,-3.4424,-3.4098,-3.3947,-3.3721,-3.3269,-3.2641,-3.234,-3.224,-3.1813,-3.1662,-3.1687,-3.1738,-3.1712,-3.1612,-3.1738,-3.1637,-3.1481,-3.0405,-2.9735,-2.9339,-2.7634,-2.6098,-2.6438,-2.5197,-2.4683,-2.4453,-2.4121,-2.373,-2.3398,-2.3198,-2.3159,-2.3101,-2.3101,-2.3101,-2.3101,-2.3101,-2.3101,-2.3101,-2.3101,-2.3101,-2.3101,-2.3101,-2.3101,-2.3101,-2.3101,-2.3101,-2.3101,-2.3101,-2.3101,-2.2925,-2.2789,-2.2637,-2.2402,-2.1973,-2.1543,-2.1153,-2.0899,-2.0703,-2.0605,-2.0605,-2.0605,-2.0546,-2.0312,-2.0059,-1.998,-1.9883,-1.9629,-1.9375,-1.9355,-1.9238,-4.4543,-4.4367,-4.3388,-4.2986,-4.2986,-4.2986,-4.2986,-4.2986,-4.2986,-4.2986,-4.2986,-4.2986,-4.2715,-4.2238,-4.1982,-4.1455,-4.0626,-4.0325,-4.0149,-3.9722,-3.9697,-3.9697,-3.9697,-3.9697,-3.9697,-3.9697,-3.9697,-3.9697,-3.9622,-3.9521,-3.9295,-3.8944,-3.8768,-3.8391,-3.7889,-3.7487,-3.7161,-3.6983,-3.6656,-3.6405,-3.6232,-3.6132,-3.5881,-3.5332,-3.4956,-3.468,-3.46,-3.455,-3.4474,-3.4173,-3.3495,-3.2943,-3.2867,-3.2759,-3.2659,-3.2634,-3.2641,-3.2709,-3.2734,-3.2659,-3.2692,-3.2421,-3.0747,-2.9825,-3.0582,-2.7665,-2.6513,-2.6742,-2.6194,-2.5262,-2.4883,-2.4531,-2.4121,-2.3769,-2.3633,-2.3516,-2.3198,-2.3101,-2.3101,-2.3101,-2.3101,-2.3101,-2.3101,-2.3101,-2.3101,-2.3101,-2.3101,-2.3101,-2.3101,-2.3101,-2.3101,-2.3101,-2.3101,-2.3101,-2.3042,-2.2925,-2.2808,-2.2656,-2.2266,-2.1953,-2.1523,-2.1134,-2.0957,-2.0762,-2.0605,-2.0605,-2.0605,-2.0586,-2.0332,-2.037,-2.0331,-2.0096,-1.9863,-1.9824,-1.9766,-4.4869,-4.4543,-4.3714,-4.3212,-4.2986,-4.2986,-4.2986,-4.2986,-4.2986,-4.2986,-4.2986,-4.2986,-4.2811,-4.259,-4.2313,-4.1681,-4.0927,-4.0325,-3.9973,-3.9722,-3.9697,-3.9697,-3.9697,-3.9697,-3.9697,-3.9697,-3.9697,-3.9697,-3.9697,-3.9672,-3.9546,-3.9295,-3.9296,-3.8944,-3.8492,-3.809,-3.7864,-3.7513,-3.7036,-3.6734,-3.6734,-3.6505,-3.6329,-3.5956,-3.5629,-3.5403,-3.5082,-3.5056,-3.4931,-3.465,-3.4173,-3.3696,-3.342,-3.3219,-3.3136,-3.3136,-3.3136,-3.3136,-3.3111,-3.3136,-3.3086,-3.3093,-3.0822,-3.0147,-2.9579,-2.7437,-2.6187,-2.638,-2.6099,-2.5547,-2.5165,-2.4922,-2.4531,-2.4199,-2.4082,-2.3965,-2.373,-2.3354,-2.3101,-2.3101,-2.3101,-2.3101,-2.3101,-2.3101,-2.3101,-2.3101,-2.3101,-2.3101,-2.3101,-2.3101,-2.3101,-2.3101,-2.3101,-2.3101,-2.3101,-2.3042,-2.3003,-2.2852,-2.2578,-2.2363,-2.2109,-2.1641,-2.1231,-2.1016,-2.082,-2.0625,-2.0605,-2.0605,-2.0625,-2.0546,-2.0468,-2.041,-2.0312,-2.0215,-2.0156,-4.507,-4.4568,-4.394,-4.3413,-4.3011,-4.2986,-4.2986,-4.2986,-4.2986,-4.2986,-4.2986,-4.2986,-4.2961,-4.2861,-4.2509,-4.1957,-4.1204,-4.04,-3.9923,-3.9722,-3.9697,-3.9697,-3.9697,-3.9697,-3.9697,-3.9697,-3.9697,-3.9697,-3.9697,-3.9697,-3.9672,-3.9672,-3.9672,-3.9396,-3.912,-3.8868,-3.8567,-3.8115,-3.7588,-3.7211,-3.7086,-3.6782,-3.6556,-3.6329,-3.6279,-3.6031,-3.573,-3.5629,-3.5479,-3.5002,-3.4901,-3.46,-3.4148,-3.3646,-3.3319,-3.337,-3.347,-3.352,-3.3545,-3.3445,-3.3395,-3.3158,-3.0963,-2.9623,-2.898,-2.7389,-2.6062,-2.5771,-2.5654,-2.5605,-2.5215,-2.5176,-2.4961,-2.4648,-2.4512,-2.4492,-2.4297,-2.3705,-2.3432,-2.3218,-2.3159,-2.3101,-2.3101,-2.3101,-2.3101,-2.3101,-2.3101,-2.3101,-2.3101,-2.3101,-2.3101,-2.3101,-2.3101,-2.3101,-2.3101,-2.3101,-2.3062,-2.2984,-2.2793,-2.2715,-2.2559,-2.2168,-2.1719,-2.1348,-2.1113,-2.0879,-2.0703,-2.0664,-2.0664,-2.0625,-2.0586,-2.0527,-2.0546,-2.0605,-2.0546,-4.4719,-4.4543,-4.3539,-4.3062,-4.2986,-4.2986,-4.2986,-4.2986,-4.2986,-4.2986,-4.2986,-4.2986,-4.2986,-4.2936,-4.2936,-4.2283,-4.1404,-4.0626,-4.0099,-3.9798,-3.9722,-3.9697,-3.9697,-3.9697,-3.9697,-3.9697,-3.9697,-3.9697,-3.9697,-3.9697,-3.9697,-3.9697,-3.9697,-3.9572,-3.9396,-3.9145,-3.8969,-3.8668,-3.8165,-3.7713,-3.7387,-3.7161,-3.6933,-3.6606,-3.6556,-3.643,-3.6282,-3.6232,-3.6229,-3.6056,-3.5655,-3.5332,-3.5107,-3.4726,-3.4449,-3.4299,-3.4274,-3.4248,-3.4274,-3.4349,-3.4173,-3.3385,-3.1456,-2.9892,-2.8948,-2.7268,-2.5976,-2.5674,-2.5674,-2.5635,-2.5596,-2.5518,-2.5391,-2.5098,-2.4941,-2.4844,-2.4551,-2.4277,-2.4043,-2.3809,-2.3496,-2.314,-2.3198,-2.3179,-2.3101,-2.3101,-2.3101,-2.3101,-2.3101,-2.3101,-2.3101,-2.3101,-2.3101,-2.3101,-2.3101,-2.3101,-2.3081,-2.3081,-2.2964,-2.2964,-2.2808,-2.2617,-2.2285,-2.1953,-2.1543,-2.1211,-2.1016,-2.084,-2.0723,-2.0742,-2.0664,-2.0625,-2.0605,-2.0605,-2.0605,-4.4895,-4.4543,-4.374,-4.3237,-4.3011,-4.2986,-4.2986,-4.2986,-4.2986,-4.2986,-4.2986,-4.2986,-4.2986,-4.2986,-4.2986,-4.2484,-4.1731,-4.0852,-4.04,-4.0099,-3.9848,-3.9697,-3.9697,-3.9697,-3.9697,-3.9697,-3.9697,-3.9697,-3.9697,-3.9697,-3.9697,-3.9697,-3.9697,-3.9697,-3.9672,-3.9446,-3.9295,-3.917,-3.8743,-3.8316,-3.8064,-3.7789,-3.7412,-3.7236,-3.6958,-3.6857,-3.6782,-3.6505,-3.6405,-3.6355,-3.6107,-3.5981,-3.5881,-3.568,-3.5303,-3.4901,-3.4731,-3.4705,-3.4705,-3.468,-3.428,-3.3196,-3.1506,-3.0141,-2.8946,-2.737,-2.6045,-2.5752,-2.5693,-2.5674,-2.5674,-2.5693,-2.5625,-2.5488,-2.541,-2.5293,-2.5098,-2.4902,-2.4668,-2.4375,-2.3945,-2.3633,-2.3457,-2.3379,-2.3159,-2.3101,-2.3101,-2.3101,-2.3101,-2.3101,-2.3101,-2.3101,-2.3101,-2.3101,-2.3101,-2.3101,-2.3101,-2.3101,-2.3101,-2.3101,-2.3062,-2.2828,-2.275,-2.2594,-2.2165,-2.168,-2.1445,-2.1289,-2.1094,-2.0879,-2.0742,-2.0703,-2.0644,-2.0605,-2.0605,-4.497,-4.4418,-4.3865,-4.3388,-4.3011,-4.2986,-4.2986,-4.2986,-4.2986,-4.2986,-4.2986,-4.2986,-4.2986,-4.2986,-4.2911,-4.2715,-4.2162,-4.1103,-4.0676,-4.0375,-3.9948,-3.9697,-3.9697,-3.9697,-3.9697,-3.9697,-3.9697,-3.9697,-3.9697,-3.9697,-3.9697,-3.9697,-3.9697,-3.9697,-3.9672,-3.9647,-3.9697,-3.9546,-3.9295,-3.9044,-3.8818,-3.8341,-3.799,-3.799,-3.7563,-3.7362,-3.7312,-3.686,-3.6681,-3.6581,-3.648,-3.638,-3.6405,-3.6405,-3.6003,-3.5228,-3.5077,-3.5052,-3.5031,-3.4644,-3.4135,-3.3123,-3.1513,-3.0139,-2.8887,-2.753,-2.6387,-2.6005,-2.5849,-2.5918,-2.5918,-2.5752,-2.5693,-2.5654,-2.5635,-2.5635,-2.5566,-2.541,-2.5234,-2.4883,-2.4394,-2.4102,-2.3945,-2.3613,-2.3437,-2.3301,-2.3301,-2.3101,-2.3101,-2.3101,-2.3101,-2.3101,-2.3101,-2.3101,-2.3101,-2.3101,-2.3101,-2.3101,-2.3101,-2.3101,-2.3101,-2.3042,-2.3003,-2.2906,-2.2672,-2.2227,-2.1992,-2.1719,-2.1504,-2.125,-2.0937,-2.0801,-2.084,-2.0684,-2.0605,-4.4392,-4.384,-4.3313,-4.3037,-4.2986,-4.2986,-4.2986,-4.2986,-4.2986,-4.2986,-4.2986,-4.2986,-4.2986,-4.2986,-4.2986,-4.2715,-4.2133,-4.158,-4.1053,-4.0701,-4.0099,-3.9798,-3.9722,-3.9697,-3.9697,-3.9697,-3.9697,-3.9697,-3.9697,-3.9697,-3.9697,-3.9697,-3.9697,-3.9697,-3.9697,-3.9697,-3.9697,-3.9672,-3.9597,-3.9397,-3.8969,-3.8391,-3.8165,-3.809,-3.799,-3.7914,-3.7839,-3.7412,-3.7111,-3.7036,-3.6681,-3.6455,-3.6405,-3.6405,-3.6405,-3.6254,-3.6204,-3.6157,-3.5821,-3.5203,-3.4007,-3.2858,-3.1278,-2.9771,-2.861,-2.7703,-2.6894,-2.6894,-2.6543,-2.6328,-2.625,-2.5996,-2.5771,-2.5732,-2.584,-2.5732,-2.5674,-2.5664,-2.5527,-2.5449,-2.4961,-2.4687,-2.4473,-2.4062,-2.3711,-2.3574,-2.3437,-2.3237,-2.312,-2.314,-2.3101,-2.3101,-2.3101,-2.3101,-2.3101,-2.3101,-2.3101,-2.3101,-2.3101,-2.3101,-2.3101,-2.3101,-2.3101,-2.2984,-2.2808,-2.2734,-2.2461,-2.2187,-2.1914,-2.166,-2.1406,-2.125,-2.1132,-2.0957,-2.0801,-4.4016,-4.3765,-4.3212,-4.2986,-4.2986,-4.2986,-4.2986,-4.2986,-4.2986,-4.2986,-4.2986,-4.2986,-4.2986,-4.2986,-4.2986,-4.2861,-4.259,-4.2032,-4.1706,-4.1254,-4.0626,-4.0174,-4.0099,-3.9848,-3.9697,-3.9697,-3.9697,-3.9697,-3.9697,-3.9697,-3.9697,-3.9697,-3.9697,-3.9697,-3.9697,-3.9697,-3.9697,-3.9697,-3.9672,-3.9572,-3.9346,-3.9094,-3.8944,-3.8919,-3.8642,-3.8517,-3.8366,-3.7965,-3.7663,-3.7613,-3.7362,-3.7136,-3.6958,-3.681,-3.6734,-3.6405,-3.6405,-3.6001,-3.5355,-3.5379,-3.4098,-3.2456,-3.112,-3.0413,-2.8727,-2.7756,-2.7246,-2.7012,-2.6855,-2.6758,-2.6738,-2.6582,-2.6348,-2.6211,-2.6113,-2.5918,-2.5791,-2.5713,-2.5615,-2.5625,-2.5566,-2.5254,-2.4941,-2.457,-2.4219,-2.4062,-2.3848,-2.3633,-2.3437,-2.3237,-2.3179,-2.3101,-2.3101,-2.3101,-2.3101,-2.3101,-2.3101,-2.3101,-2.3101,-2.3101,-2.3101,-2.3101,-2.3101,-2.3101,-2.3003,-2.2867,-2.2769,-2.2598,-2.2285,-2.207,-2.1894,-2.1738,-2.1602,-2.1543,-2.1328,-4.3714,-4.3564,-4.3137,-4.2986,-4.2986,-4.2986,-4.2986,-4.2986,-4.2986,-4.2986,-4.2986,-4.2986,-4.2986,-4.2986,-4.2986,-4.2961,-4.2967,-4.2464,-4.2263,-4.1861,-4.1279,-4.0701,-4.04,-4.0074,-3.9848,-3.9697,-3.9697,-3.9697,-3.9697,-3.9697,-3.9697,-3.9697,-3.9697,-3.9697,-3.9697,-3.9697,-3.9697,-3.9697,-3.9697,-3.9672,-3.9647,-3.9647,-3.9622,-3.9521,-3.932,-3.9069,-3.8994,-3.8517,-3.8241,-3.8216,-3.799,-3.7688,-3.7437,-3.7362,-3.7262,-3.7033,-3.6983,-3.6256,-3.5332,-3.4627,-3.3575,-3.2079,-3.0566,-2.9881,-2.8448,-2.7865,-2.7734,-2.7461,-2.7246,-2.7207,-2.7148,-2.707,-2.6816,-2.6621,-2.6543,-2.6269,-2.6035,-2.6016,-2.583,-2.5654,-2.5664,-2.5635,-2.5323,-2.4992,-2.4766,-2.457,-2.4316,-2.4004,-2.3769,-2.3555,-2.3413,-2.3335,-2.314,-2.314,-2.312,-2.312,-2.3101,-2.3101,-2.3101,-2.3101,-2.3101,-2.3101,-2.3101,-2.3101,-2.3101,-2.3042,-2.2925,-2.2812,-2.2656,-2.2519,-2.2363,-2.2168,-2.2031,-2.1992,-2.1836,-4.3514,-4.3037,-4.2986,-4.2986,-4.2986,-4.2986,-4.2986,-4.2986,-4.2986,-4.2986,-4.2986,-4.2986,-4.2986,-4.2986,-4.2986,-4.2986,-4.2961,-4.2464,-4.2338,-4.2032,-4.158,-4.1103,-4.0802,-4.0551,-4.0224,-3.9823,-3.9823,-3.9798,-3.9697,-3.9697,-3.9697,-3.9697,-3.9697,-3.9697,-3.9697,-3.9697,-3.9697,-3.9697,-3.9697,-3.9697,-3.9697,-3.9697,-3.9697,-3.9697,-3.9647,-3.9622,-3.9597,-3.9094,-3.8793,-3.8793,-3.8467,-3.8165,-3.8015,-3.7965,-3.7839,-3.7663,-3.7613,-3.6874,-3.5842,-3.4299,-3.2728,-3.1644,-3.0307,-2.8986,-2.8251,-2.8203,-2.8184,-2.8047,-2.7754,-2.7637,-2.75,-2.7305,-2.7187,-2.7031,-2.6934,-2.6719,-2.6504,-2.6387,-2.6211,-2.581,-2.5713,-2.5791,-2.5674,-2.5343,-2.5187,-2.5039,-2.4668,-2.4355,-2.416,-2.3965,-2.3828,-2.3691,-2.3315,-2.3198,-2.3159,-2.314,-2.3101,-2.3101,-2.3101,-2.3101,-2.3101,-2.3101,-2.3101,-2.3101,-2.3101,-2.3101,-2.3081,-2.2945,-2.2867,-2.2906,-2.2789,-2.2578,-2.2363,-2.2246,-2.2109,-4.3187,-4.2986,-4.2986,-4.2986,-4.2986,-4.2986,-4.2986,-4.2986,-4.2986,-4.2986,-4.2986,-4.2986,-4.2986,-4.2986,-4.2986,-4.2986,-4.2961,-4.2866,-4.2715,-4.2539,-4.2108,-4.1756,-4.1455,-4.1103,-4.0752,-4.03,-4.0199,-3.9973,-3.9722,-3.9747,-3.9697,-3.9697,-3.9697,-3.9697,-3.9697,-3.9697,-3.9697,-3.9697,-3.9697,-3.9697,-3.9697,-3.9697,-3.9697,-3.9697,-3.9697,-3.9697,-3.9647,-3.9496,-3.9396,-3.9295,-3.9094,-3.8843,-3.8592,-3.8542,-3.8391,-3.8165,-3.8115,-3.7643,-3.68,-3.4973,-3.3325,-3.0949,-2.9408,-2.832,-2.834,-2.8301,-2.8301,-2.8223,-2.8144,-2.8008,-2.7988,-2.7891,-2.7773,-2.7539,-2.7324,-2.7148,-2.6973,-2.6816,-2.6582,-2.625,-2.6094,-2.6055,-2.5898,-2.5654,-2.5557,-2.544,-2.5078,-2.4746,-2.457,-2.4375,-2.4258,-2.4082,-2.3769,-2.3594,-2.3535,-2.3335,-2.314,-2.314,-2.314,-2.312,-2.314,-2.3101,-2.3101,-2.3101,-2.3101,-2.3101,-2.3101,-2.3101,-2.3062,-2.3023,-2.2984,-2.2906,-2.2734,-2.2519,-2.2256,-4.2986,-4.2986,-4.2986,-4.2986,-4.2986,-4.2986,-4.2986,-4.2986,-4.2986,-4.2986,-4.2986,-4.2986,-4.2986,-4.2986,-4.2986,-4.2986,-4.2986,-4.2936,-4.2961,-4.2811,-4.264,-4.2389,-4.2137,-4.1756,-4.1304,-4.0877,-4.0701,-4.0501,-4.0023,-3.9948,-3.9848,-3.9772,-3.9697,-3.9697,-3.9697,-3.9697,-3.9697,-3.9697,-3.9697,-3.9697,-3.9697,-3.9697,-3.9697,-3.9697,-3.9697,-3.9697,-3.9697,-3.9622,-3.9647,-3.9647,-3.9572,-3.9446,-3.9245,-3.912,-3.8868,-3.8642,-3.8492,-3.8442,-3.7792,-3.5899,-3.3674,-3.1317,-2.9447,-2.8697,-2.8476,-2.8379,-2.8301,-2.8301,-2.8281,-2.8301,-2.8301,-2.8184,-2.8105,-2.7871,-2.7851,-2.7695,-2.7402,-2.7187,-2.6934,-2.666,-2.6543,-2.6426,-2.6094,-2.5849,-2.5693,-2.5615,-2.5488,-2.5195,-2.5078,-2.4883,-2.4648,-2.4473,-2.4238,-2.4082,-2.3965,-2.3848,-2.3691,-2.3457,-2.3437,-2.3237,-2.3198,-2.314,-2.3101,-2.3101,-2.3101,-2.3101,-2.3101,-2.3101,-2.3101,-2.3081,-2.3062,-2.3023,-2.2984,-2.2726,-2.2366,-4.2986,-4.2986,-4.2986,-4.2986,-4.2986,-4.2986,-4.2986,-4.2986,-4.2986,-4.2986,-4.2986,-4.2986,-4.2986,-4.2986,-4.2986,-4.2986,-4.2986,-4.2986,-4.2986,-4.2936,-4.2861,-4.264,-4.2414,-4.2137,-4.1856,-4.1455,-4.1279,-4.1028,-4.0501,-4.0375,-4.0149,-3.9848,-3.9747,-3.9697,-3.9697,-3.9697,-3.9697,-3.9697,-3.9697,-3.9697,-3.9697,-3.9697,-3.9697,-3.9697,-3.9697,-3.9697,-3.9697,-3.9697,-3.9697,-3.9697,-3.9697,-3.9622,-3.9572,-3.9546,-3.9496,-3.9471,-3.9496,-3.9295,-3.8666,-3.5624,-3.3334,-3.1623,-2.9876,-2.898,-2.8828,-2.8613,-2.8379,-2.8457,-2.834,-2.8301,-2.8301,-2.8301,-2.8242,-2.8223,-2.8184,-2.8086,-2.7793,-2.7637,-2.7402,-2.7109,-2.6992,-2.6836,-2.6426,-2.6094,-2.583,-2.5732,-2.5693,-2.5577,-2.5421,-2.5332,-2.5098,-2.4922,-2.4707,-2.4531,-2.4394,-2.4355,-2.4199,-2.3926,-2.3672,-2.3496,-2.3276,-2.3179,-2.314,-2.312,-2.3101,-2.3101,-2.3101,-2.3101,-2.3101,-2.3101,-2.3101,-2.3081,-2.3081,-2.2999,-2.264,-4.2986,-4.2986,-4.2986,-4.2986,-4.2986,-4.2986,-4.2986,-4.2986,-4.2986,-4.2986,-4.2986,-4.2986,-4.2986,-4.2986,-4.2986,-4.2986,-4.2986,-4.2986,-4.2986,-4.2986,-4.2986,-4.2911,-4.2766,-4.264,-4.2384,-4.2007,-4.1831,-4.1605,-4.1053,-4.0777,-4.0501,-4.0224,-3.9823,-3.9697,-3.9697,-3.9697,-3.9697,-3.9697,-3.9697,-3.9697,-3.9697,-3.9697,-3.9697,-3.9697,-3.9697,-3.9697,-3.9697,-3.9697,-3.9697,-3.9697,-3.9697,-3.9697,-3.9697,-3.9697,-3.9697,-3.9697,-3.9645,-3.9131,-3.7661,-3.5151,-3.2995,-3.1649,-3.0429,-2.9411,-2.9297,-2.8945,-2.8769,-2.8652,-2.8516,-2.8437,-2.8301,-2.8301,-2.8281,-2.8281,-2.8242,-2.8242,-2.8086,-2.8066,-2.793,-2.7617,-2.7422,-2.7207,-2.6855,-2.6484,-2.623,-2.6035,-2.5996,-2.5752,-2.5577,-2.5577,-2.544,-2.5371,-2.5195,-2.498,-2.4824,-2.4766,-2.4609,-2.4316,-2.4004,-2.3711,-2.3535,-2.3335,-2.3198,-2.3198,-2.314,-2.3101,-2.3101,-2.3101,-2.3101,-2.3101,-2.3101,-2.3101,-2.3081,-2.3081,-2.2974,-4.2986,-4.2986,-4.2986,-4.2986,-4.2986,-4.2986,-4.2986,-4.2986,-4.2986,-4.2986,-4.2986,-4.2986,-4.2986,-4.2986,-4.2986,-4.2986,-4.2986,-4.2986,-4.2986,-4.2986,-4.2986,-4.2961,-4.2961,-4.2961,-4.2791,-4.2539,-4.2439,-4.2158,-4.1605,-4.1078,-4.0576,-4.0149,-3.9898,-3.9722,-3.9697,-3.9697,-3.9697,-3.9697,-3.9697,-3.9697,-3.9697,-3.9697,-3.9697,-3.9697,-3.9697,-3.9697,-3.9697,-3.9697,-3.9697,-3.9697,-3.9697,-3.9697,-3.9697,-3.9697,-3.9697,-3.9697,-3.9025,-3.8505,-3.7139,-3.4781,-3.3069,-3.2343,-3.0726,-2.9898,-2.9707,-2.9394,-2.9219,-2.9062,-2.8828,-2.8769,-2.8711,-2.8672,-2.8516,-2.8516,-2.8379,-2.8359,-2.8301,-2.8262,-2.8203,-2.793,-2.7812,-2.7578,-2.7305,-2.6953,-2.6621,-2.6426,-2.6269,-2.6035,-2.5801,-2.5693,-2.5693,-2.5625,-2.5547,-2.5371,-2.5234,-2.5128,-2.498,-2.4687,-2.4414,-2.4121,-2.3887,-2.375,-2.3491,-2.3257,-2.3198,-2.314,-2.3101,-2.3101,-2.3101,-2.3101,-2.3101,-2.3101,-2.3101,-2.3101,-2.3101,-4.2986,-4.2986,-4.2986,-4.2986,-4.2986,-4.2986,-4.2986,-4.2986,-4.2986,-4.2986,-4.2986,-4.2986,-4.2986,-4.2986,-4.2986,-4.2986,-4.2986,-4.2986,-4.2986,-4.2986,-4.2986,-4.2986,-4.2986,-4.2961,-4.2886,-4.2936,-4.2861,-4.2559,-4.2213,-4.163,-4.0877,-4.0074,-3.9923,-3.9798,-3.9747,-3.9697,-3.9697,-3.9697,-3.9697,-3.9697,-3.9697,-3.9697,-3.9697,-3.9697,-3.9697,-3.9697,-3.9697,-3.9697,-3.9697,-3.9697,-3.9697,-3.9697,-3.9697,-3.9697,-3.9697,-3.9258,-3.819,-3.7453,-3.641,-3.3957,-3.3021,-3.2184,-3.1151,-3.0445,-3.0117,-2.9863,-2.9648,-2.9531,-2.9394,-2.9434,-2.9453,-2.9199,-2.8945,-2.8789,-2.8555,-2.8476,-2.8398,-2.834,-2.8301,-2.8203,-2.8184,-2.8008,-2.7715,-2.7363,-2.7031,-2.6894,-2.6699,-2.6406,-2.6152,-2.5732,-2.5713,-2.5674,-2.5635,-2.5654,-2.5557,-2.5421,-2.5323,-2.5117,-2.4941,-2.4668,-2.4414,-2.4102,-2.3828,-2.3549,-2.3276,-2.3159,-2.312,-2.3101,-2.3101,-2.3101,-2.3101,-2.3101,-2.3101,-2.3057,-2.2862,-4.2986,-4.2986,-4.2986,-4.2986,-4.2986,-4.2986,-4.2986,-4.2986,-4.2986,-4.2986,-4.2986,-4.2986,-4.2986,-4.2986,-4.2986,-4.2986,-4.2986,-4.2986,-4.2986,-4.2986,-4.2986,-4.2986,-4.2986,-4.2986,-4.2986,-4.2986,-4.2936,-4.2861,-4.269,-4.2158,-4.1329,-4.0475,-4.0224,-4.0049,-3.9848,-3.9697,-3.9697,-3.9697,-3.9697,-3.9697,-3.9697,-3.9697,-3.9697,-3.9697,-3.9697,-3.9697,-3.9697,-3.9697,-3.9697,-3.9697,-3.9697,-3.9697,-3.9697,-3.9645,-3.9465,-3.8084,-3.6757,-3.5508,-3.4292,-3.2644,-3.1652,-3.171,-3.0993,-3.0897,-3.0566,-3.0312,-3.0039,-2.998,-2.9863,-2.9824,-2.9841,-2.957,-2.9414,-2.9258,-2.9004,-2.8769,-2.8652,-2.8496,-2.8437,-2.8301,-2.8301,-2.8242,-2.7969,-2.7754,-2.7461,-2.7344,-2.7168,-2.6855,-2.6484,-2.6113,-2.5879,-2.581,-2.5674,-2.5674,-2.5674,-2.5577,-2.5577,-2.5499,-2.5332,-2.5117,-2.4883,-2.4551,-2.418,-2.3828,-2.3491,-2.3276,-2.3101,-2.3101,-2.3101,-2.3101,-2.3101,-2.3101,-2.3101,-2.2862,-2.258,-4.2986,-4.2986,-4.2986,-4.2986,-4.2986,-4.2986,-4.2986,-4.2986,-4.2986,-4.2986,-4.2986,-4.2986,-4.2986,-4.2986,-4.2986,-4.2986,-4.2986,-4.2986,-4.2986,-4.2986,-4.2986,-4.2986,-4.2986,-4.2986,-4.2986,-4.2986,-4.2986,-4.2961,-4.2836,-4.2464,-4.1685,-4.0902,-4.0676,-4.035,-4.0074,-3.9848,-3.9697,-3.9697,-3.9697,-3.9697,-3.9697,-3.9697,-3.9697,-3.9697,-3.9697,-3.9697,-3.9697,-3.9697,-3.9697,-3.9697,-3.9697,-3.9697,-3.9697,-3.9645,-3.9594,-3.8243,-3.6487,-3.5398,-3.4236,-3.2207,-3.1286,-3.0898,-3.0898,-3.0879,-3.0801,-3.0605,-3.0508,-3.0449,-3.0273,-3.0117,-3.0096,-2.9998,-2.9883,-2.9805,-2.9453,-2.9121,-2.8906,-2.8691,-2.8516,-2.834,-2.8301,-2.8301,-2.8164,-2.7988,-2.7891,-2.7793,-2.7617,-2.7344,-2.6934,-2.6484,-2.623,-2.6113,-2.5898,-2.5674,-2.5693,-2.5713,-2.5654,-2.5615,-2.5538,-2.5391,-2.5254,-2.4961,-2.4551,-2.4141,-2.373,-2.3535,-2.3398,-2.314,-2.3101,-2.3057,-2.2775,-2.2359,-2.2208,-2.212,-2.181,-4.2986,-4.2986,-4.2986,-4.2986,-4.2986,-4.2986,-4.2986,-4.2986,-4.2986,-4.2986,-4.2986,-4.2986,-4.2986,-4.2986,-4.2986,-4.2986,-4.2986,-4.2986,-4.2986,-4.2986,-4.2986,-4.2986,-4.2986,-4.2986,-4.2986,-4.2986,-4.2986,-4.2986,-4.2861,-4.2534,-4.2057,-4.1351,-4.1028,-4.0676,-4.0375,-4.0049,-3.9873,-3.9697,-3.9697,-3.9697,-3.9697,-3.9697,-3.9697,-3.9697,-3.9697,-3.9697,-3.9697,-3.9697,-3.9697,-3.9697,-3.9697,-3.9697,-3.9697,-3.9697,-3.9645,-3.853,-3.6565,-3.5288,-3.3979,-3.215,-3.1228,-3.0898,-3.0898,-3.0898,-3.084,-3.082,-3.0742,-3.0723,-3.0566,-3.0527,-3.0469,-3.0371,-3.0293,-3.0156,-2.9902,-2.9609,-2.9375,-2.9043,-2.8633,-2.8457,-2.8301,-2.8301,-2.8281,-2.8105,-2.8086,-2.8105,-2.8027,-2.7773,-2.7461,-2.6973,-2.668,-2.6465,-2.6152,-2.5957,-2.583,-2.583,-2.5713,-2.5654,-2.5654,-2.5615,-2.5508,-2.5234,-2.4922,-2.4531,-2.4141,-2.3887,-2.3691,-2.3496,-2.3193,-2.2906,-2.2492,-2.1658,-2.1346,-2.1212,-2.0584,-4.2986,-4.2986,-4.2986,-4.2986,-4.2986,-4.2986,-4.2986,-4.2986,-4.2986,-4.2986,-4.2986,-4.2986,-4.2986,-4.2986,-4.2986,-4.2986,-4.2986,-4.2986,-4.2986,-4.2986,-4.2986,-4.2986,-4.2986,-4.2986,-4.2986,-4.2986,-4.2986,-4.2986,-4.2936,-4.276,-4.2564,-4.2007,-4.171,-4.1354,-4.0701,-4.0375,-4.0099,-3.9823,-3.9697,-3.9697,-3.9697,-3.9697,-3.9697,-3.9697,-3.9697,-3.9697,-3.9697,-3.9697,-3.9697,-3.9697,-3.9697,-3.9697,-3.9697,-3.9697,-3.9077,-3.7979,-3.6541,-3.5288,-3.3923,-3.2493,-3.1498,-3.0995,-3.0937,-3.0957,-3.0898,-3.0898,-3.0898,-3.0898,-3.0898,-3.0898,-3.0859,-3.0762,-3.0644,-3.0488,-3.0332,-3.0098,-2.9844,-2.9336,-2.8809,-2.8555,-2.8359,-2.832,-2.832,-2.8301,-2.8301,-2.8281,-2.8242,-2.8105,-2.7969,-2.7617,-2.7266,-2.6973,-2.6504,-2.6289,-2.6172,-2.6025,-2.5966,-2.583,-2.584,-2.5752,-2.5693,-2.5449,-2.5137,-2.4902,-2.4609,-2.4336,-2.4043,-2.3769,-2.3466,-2.31,-2.1987,-2.1078,-2.0251,-1.9997,-1.9131,-4.2986,-4.2986,-4.2986,-4.2986,-4.2986,-4.2986,-4.2986,-4.2986,-4.2986,-4.2986,-4.2986,-4.2986,-4.2986,-4.2986,-4.2986,-4.2986,-4.2986,-4.2986,-4.2986,-4.2986,-4.2986,-4.2986,-4.2986,-4.2986,-4.2986,-4.2986,-4.2986,-4.2986,-4.2986,-4.2961,-4.2735,-4.2539,-4.2363,-4.1911,-4.1153,-4.0827,-4.0425,-4.0074,-3.9873,-3.9747,-3.9747,-3.9697,-3.9697,-3.9697,-3.9697,-3.9697,-3.9697,-3.9697,-3.9697,-3.9697,-3.9697,-3.9697,-3.9697,-3.9697,-3.931,-3.8477,-3.721,-3.5617,-3.4292,-3.3155,-3.2055,-3.1498,-3.1652,-3.194,-3.0957,-3.0898,-3.0898,-3.0898,-3.0898,-3.0898,-3.0898,-3.082,-3.0801,-3.0703,-3.0605,-3.0449,-3.0078,-2.9609,-2.9121,-2.875,-2.8594,-2.8496,-2.8457,-2.8301,-2.8301,-2.8301,-2.8281,-2.8281,-2.8184,-2.8105,-2.7812,-2.75,-2.7051,-2.6738,-2.6641,-2.6523,-2.6367,-2.6211,-2.6035,-2.5869,-2.5791,-2.5586,-2.5332,-2.5195,-2.5,-2.4746,-2.4453,-2.4141,-2.3828,-2.353,-2.1994,-2.0404,-1.9633,-1.8796,-1.7855,-4.2986,-4.2986,-4.2986,-4.2986,-4.2986,-4.2986,-4.2986,-4.2986,-4.2986,-4.2986,-4.2986,-4.2986,-4.2986,-4.2986,-4.2986,-4.2986,-4.2986,-4.2986,-4.2986,-4.2986,-4.2986,-4.2986,-4.2986,-4.2986,-4.2986,-4.2986,-4.2986,-4.2986,-4.2986,-4.2961,-4.2936,-4.2916,-4.264,-4.2263,-4.1936,-4.1354,-4.0777,-4.0576,-4.0325,-3.9973,-3.9848,-3.9722,-3.9697,-3.9697,-3.9697,-3.9697,-3.9697,-3.9697,-3.9697,-3.9697,-3.9697,-3.9697,-3.9697,-3.9697,-3.9697,-3.9025,-3.7954,-3.6703,-3.5672,-3.4681,-3.3212,-3.2264,-3.2701,-3.2264,-3.1228,-3.0898,-3.0898,-3.0898,-3.0898,-3.0898,-3.0898,-3.0898,-3.0898,-3.0879,-3.0801,-3.0684,-3.0254,-2.9883,-2.9492,-2.9062,-2.8906,-2.8809,-2.8672,-2.8496,-2.8379,-2.8379,-2.832,-2.8301,-2.8281,-2.8242,-2.8066,-2.7891,-2.7617,-2.7363,-2.7148,-2.6914,-2.6738,-2.6602,-2.6426,-2.6191,-2.5888,-2.5723,-2.5605,-2.5538,-2.5391,-2.5117,-2.4824,-2.4512,-2.418,-2.3661,-2.1871,-2.0062,-1.8907,-1.7976,-1.6683,-4.2986,-4.2986,-4.2986,-4.2986,-4.2986,-4.2986,-4.2986,-4.2986,-4.2986,-4.2986,-4.2986,-4.2986,-4.2986,-4.2986,-4.2986,-4.2986,-4.2986,-4.2986,-4.2986,-4.2986,-4.2986,-4.2986,-4.2986,-4.2986,-4.2986,-4.2986,-4.2986,-4.2986,-4.2986,-4.2986,-4.2986,-4.2936,-4.2936,-4.264,-4.2213,-4.1785,-4.1505,-4.1229,-4.0924,-4.0701,-4.0275,-4.0074,-3.9722,-3.9697,-3.9697,-3.9697,-3.9697,-3.9697,-3.9697,-3.9697,-3.9697,-3.9697,-3.9697,-3.9697,-3.9697,-3.9465,-3.84,-3.7636,-3.6649,-3.5343,-3.3754,-3.2644,-3.2644,-3.171,-3.1054,-3.0898,-3.0898,-3.0898,-3.0898,-3.0898,-3.0898,-3.0898,-3.0898,-3.0898,-3.084,-3.0644,-3.0312,-3.0137,-2.9922,-2.9629,-2.9414,-2.9336,-2.9258,-2.9043,-2.8809,-2.875,-2.8555,-2.8516,-2.8418,-2.8359,-2.834,-2.8184,-2.8047,-2.7871,-2.7617,-2.7285,-2.707,-2.6973,-2.6816,-2.6562,-2.6269,-2.5869,-2.5771,-2.5791,-2.5654,-2.5449,-2.5156,-2.4703,-2.3909,-2.3094,-2.1439,-1.9802,-1.8565,-1.7436,-1.632]},{"header":{"parameterUnit":"m.s-1","parameterCategory":1,"la1":31.0,"la2":29.5877,"lo1":-88.7671,"lo2":-86.6584,"dy":0.0162,"dx":0.0185,"nx":115,"ny":88,"refTime":"2025-04-19T12:00:00:Z","depth":0,"parameterNumber":3,"parameterNumberName":"V-component_of_WINDS"},"data":[0.0,0.0,0.0,0.0,0.0,0.0,0.0,0.0,0.0,0.0,0.0,0.0,0.0,0.0,0.0,0.0,0.0,0.0,0.0,0.0,0.0,0.0,0.0,0.0,0.0,0.0,0.0,0.0,0.0,0.0,0.0,0.0,0.0,0.0,0.0,0.0,0.0,0.0,0.0,0.0,0.0,0.0,0.0,0.0,0.0,0.0,0.0,0.0,0.0,0.0,0.0,0.0,0.0,0.0,0.0,0.0,0.0,0.0,0.0,0.0,0.0,0.0,0.0,0.0,0.0,0.0,0.0,0.0,0.0,0.0,0.0,0.0,0.0,0.0,0.0,0.0,0.0,0.0,0.0,0.0,0.0,0.0,0.0,0.0,0.0,0.0,0.0,0.0,0.0,0.0,0.0,0.0,0.0,0.0,0.0,0.0,0.0,0.0,0.0,0.0,0.0,0.0,0.0,0.0,0.0,0.0,0.0,0.0,0.0,0.0,0.0,0.0,0.0,0.0,0.0,0.0,0.0,0.0,0.0,0.0,0.0,0.0,0.0,0.0,0.0,0.0,0.0,0.0,0.0,0.0,0.0,0.0,0.0,0.0,0.0,0.0,0.0,0.0,0.0,0.0,0.0,0.0,0.0,0.0,0.0,0.0,0.0,0.0,0.0,0.0,0.0,0.0,0.0,0.0,0.0,0.0,0.0,0.0,0.0,0.0,0.0,0.0,0.0,0.0,0.0,0.0,0.0,0.0,0.0,0.0,0.0,0.0,0.0,0.0,0.0,0.0,0.0,0.0,0.0,0.0,0.0,0.0,0.0,0.0,0.0,0.0,0.0,0.0,0.0,0.0,0.0,0.0,0.0,0.0,0.0,0.0,0.0,0.0,0.0,0.0,0.0,0.0,0.0,0.0,0.0,0.0,0.0,0.0,0.0,0.0,0.0,0.0,0.0,0.0,0.0,0.0,0.0,0.0,0.0,0.0,0.0,0.0,0.0,0.0,0.0,0.0,0.0,0.0,0.0,0.0,0.0,0.0,0.0,0.0,0.0,0.0,0.0,0.0,0.0,0.0,0.0,0.0,0.0,0.0,0.0,0.0,0.0,0.0,0.0,0.0,0.0,0.0,0.0,0.0,0.0,0.0,0.0,0.0,0.0,0.0,0.0,0.0,0.0,0.0,0.0,0.0,0.0,0.0,0.0,0.0,0.0,0.0,0.0,0.0,0.0,0.0,0.0,0.0,0.0,0.0,0.0,0.0,0.0,0.0,0.0,0.0,0.0,0.0,0.0,0.0,0.0,0.0,0.0,0.0,0.0,0.0,0.0,0.0,0.0,0.0,0.0,0.0,0.0,0.0,0.0,0.0,0.0,0.0,0.0,0.0,0.0,0.0,0.0,0.0,0.0,0.0,0.0,0.0,0.0,0.0,0.0,0.0,0.0,0.0,0.0,0.0,0.0,0.0,0.0,0.0,0.0,0.0,0.0,0.0,0.0,0.0,0.0,0.0,0.0,0.0,0.0,0.0,0.0,0.0,0.0,0.0,0.0,0.0,0.0,0.0,0.0,0.0,0.0,0.0,0.0,0.0,0.0,0.0,0.0,0.0,0.0,0.0,0.0,0.0,0.0,0.0,0.0,0.0,0.0,0.0,0.0,0.0,0.0,0.0,0.0,0.0,0.0,0.0,0.0,0.0,0.0,0.0,0.0,0.0,0.0,0.0,0.0,0.0,0.0,0.0,0.0,0.0,0.0,0.0,0.0,0.0,0.0,0.0,0.0,0.0,0.0,0.0,0.0,0.0,0.0,0.0,0.0,0.0,0.0,0.0,0.0,0.0,0.0,0.0,0.0,0.0,0.0,0.0,0.0,0.0,0.0,0.0,0.0,0.0,0.0,0.0,0.0,0.0,0.0,0.0,0.0,0.0,0.0,0.0,0.0,0.0,0.0,0.0,0.0,0.0,0.0,0.0,0.0,0.0,0.0,0.0,0.0,0.0,0.0,0.0,0.0,0.0,0.0,0.0,0.0,0.0,0.0,0.0,0.0,0.0,0.0,0.0,0.0,0.0,0.0,0.0,0.0,0.0,0.0,0.0,0.0,0.0,0.0,0.0,0.0,0.0,0.0,0.0,0.0,0.0,0.0,0.0,0.0,0.0,0.0,0.0,0.0,0.0,0.0,0.0,0.0,0.0,0.0,0.0,0.0,0.0,0.0,0.0,0.0,0.0,0.0,0.0,0.0,0.0,0.0,0.0,0.0,0.0,0.0,0.0,0.0,0.0,0.0,0.0,0.0,0.0,0.0,0.0,0.0,0.0,0.0,0.0,0.0,0.0,0.0,0.0,0.0,0.0,0.0,0.0,0.0,0.0,0.0,0.0,0.0,0.0,0.0,0.0,0.0,0.0,0.0,0.0,0.0,0.0,0.0,0.0,0.0,0.0,0.0,0.0,0.0,0.0,0.0,0.0,0.0,0.0,0.0,0.0,0.0,0.0,0.0,0.0,0.0,0.0,0.0,0.0,0.0,0.0,0.0,0.0,0.0,0.0,0.0,0.0,0.0,0.0,0.0,0.0,0.0,0.0,0.0,0.0,0.0,0.0,0.0,0.0,0.0,0.0,0.0,0.0,0.0,0.0,0.0,0.0,0.0,0.0,0.0,0.0,0.0,0.0,0.0,0.0,0.0,0.0,0.0,0.0,0.0,0.0,0.0,0.0,0.0,0.0,0.0,0.0,0.0,0.0,0.0,0.0,0.0,0.0,0.0,0.0,0.0,0.0,0.0,0.0,0.0,0.0,0.0,0.0,0.0,0.0,0.0,0.0,0.0,0.0,0.0,0.0,0.0,0.0,0.0,0.0,0.0,0.0,0.0,0.0,0.0,0.0,0.0,0.0,0.0,0.0,0.0,0.0,0.0,0.0,0.0,0.0,0.0,0.0,0.0,0.0,0.0,0.0,0.0,0.0,0.0,0.0,0.0,0.0,0.0,0.0,0.0,0.0,0.0,0.0,0.0,0.0,0.0,0.0,0.0,0.0,0.0,0.0,0.0,0.0,0.0,0.0,0.0,0.0,0.0,0.0,0.0,0.0,0.0,0.0,0.0,0.0,0.0,0.0,0.0,0.0,0.0,0.0,0.0,0.0,0.0,0.0,0.0,0.0,0.0,0.0,0.0,0.0,0.0,0.0,0.0,0.0,0.0,0.0,0.0,0.0,0.0,0.0,0.0,0.0,0.0,0.0,0.0,0.0,0.0,0.0,0.0,0.0,0.0,0.0,0.0,0.0,0.0,0.0,0.0,0.0,0.0,0.0,0.0,0.0,0.0,0.0,0.0,0.0,0.0,0.0,0.0,0.0,0.0,0.0,0.0,0.0,0.0,0.0,0.0,0.0,0.0,0.0,0.0,0.0,0.0,0.0,0.0,0.0,0.0,0.0,0.0,0.0,0.0,0.0,0.0,0.0,0.0,0.0,0.0,0.0,0.0,0.0,0.0,0.0,0.0,0.0,0.0,0.0,0.0,0.0,0.0,0.0,0.0,0.0,0.0,0.0,0.0,0.0,0.0,0.0,0.0,0.0,0.0,0.0,0.0,0.0,0.0,0.0,0.0,0.0,0.0,0.0,0.0,0.0,0.0,0.0,0.0,0.0,0.0,0.0,0.0,0.0,0.0,0.0,0.0,0.0,0.0,0.0,0.0,0.0,0.0,0.0,0.0,0.0,0.0,0.0,0.0,0.0,0.0,0.0,0.0,0.0,0.0,0.0,0.0,0.0,0.0,0.0,0.0,0.0,0.0,0.0,0.0,0.0,0.0,0.0,0.0,0.0,0.0,0.0,0.0,0.0,0.0,0.0,0.0,0.0,0.0,0.0,0.0,0.0,0.0,0.0,0.0,0.0,0.0,0.0,0.0,0.0,0.0,0.0,0.0,0.0,0.0,0.0,0.0,0.0,0.0,0.0,0.0,0.0,0.0,0.0,0.0,0.0,0.0,0.0,0.0,0.0,0.0,0.0,0.0,0.0,0.0,0.0,0.0,0.0,0.0,0.0,0.0,0.0,0.0,0.0,0.0,0.0,0.0,0.0,0.0,0.0,0.0,0.0,0.0,0.0,0.0,0.0,0.0,0.0,0.0,0.0,0.0,0.0,0.0,0.0,0.0,0.0,0.0,0.0,0.0,0.0,0.0,0.0,0.0,0.0,0.0,0.0,0.0,0.0,0.0,0.0,0.0,0.0,0.0,0.0,0.0,0.0,0.0,0.0,0.0,0.0,0.0,0.0,0.0,0.0,0.0,0.0,1.0018,0.0,0.0,0.0,0.0,0.0,0.0,0.0,0.0,0.0,0.0,0.0,0.0,0.0,0.0,0.0,0.0,0.0,0.0,0.0,0.0,0.0,0.0,0.0,0.0,0.0,0.0,0.0,0.0,0.0,0.0,0.0,0.0,0.0,0.0,0.0,0.0,0.0,0.0,0.0,0.0,0.0,0.0,0.0,0.0,0.0,0.0,0.0,0.0,0.0,0.0,0.0,0.0,0.0,0.0,0.0,0.0,0.0,0.0,0.0,0.0,0.0,0.0,0.0,0.0,0.0,0.0,0.0,0.0,0.0,0.0,0.0,0.0,0.0,0.0,0.0,0.0,0.0,0.0,0.0,0.0,0.0,0.0,0.0,0.0,0.0,0.0,0.0,0.0,0.0,0.0,0.0,0.0,0.0,0.0,0.0,0.0,0.0,0.0,0.0,0.0,0.0,0.0,0.0,0.0,0.0,0.0,0.0,0.0,0.0,0.0,1.2549,1.236,1.0932,1.0148,1.0117,0.0,0.0,0.0,0.0,0.0,0.0,0.0,0.0,0.0,0.0,0.0,0.0,0.0,0.0,0.0,0.0,0.0,0.0,0.0,0.0,0.0,0.0,0.0,0.0,0.0,0.0,0.0,0.0,0.0,0.0,0.0,0.0,0.0,0.0,0.0,0.0,0.0,0.0,0.0,0.0,0.0,0.0,0.0,0.0,0.0,0.0,0.0,0.0,0.0,0.0,0.0,0.0,0.0,0.0,0.0,0.0,0.0,0.0,0.0,0.0,0.0,0.0,0.0,0.0,0.0,0.0,0.0,0.0,0.0,0.0,0.0,0.0,0.0,0.0,0.0,0.0,0.0,0.0,0.0,0.0,0.0,0.0,0.0,0.0,0.0,0.0,0.0,0.0,0.0,0.0,0.0,0.0,0.0,0.0,0.0,0.0,0.0,0.0,0.0,0.0,0.0,0.0,0.0,0.0,0.0,0.0,0.0,0.0,0.0,0.0,0.0,0.0,1.1518,1.0785,1.0571,0.0,0.0,0.0,0.0,0.0,0.0,0.0,0.0,0.0,0.0,0.0,0.0,0.0,0.0,0.0,0.0,0.0,0.0,0.0,0.0,0.0,0.0,0.0,0.0,0.0,0.0,0.0,0.0,0.0,0.0,0.0,0.0,0.0,0.0,0.0,0.0,0.0,0.0,0.0,0.0,0.0,0.0,0.0,0.0,0.0,0.0,0.0,0.0,0.0,0.0,0.0,0.0,0.0,0.0,0.0,0.0,0.0,0.0,0.0,0.0,0.0,0.0,0.0,0.0,0.0,0.0,0.0,0.0,0.0,0.0,0.0,0.0,0.0,0.0,0.0,0.0,0.0,0.0,0.0,0.0,0.0,0.0,0.0,0.0,0.0,0.0,0.0,0.0,0.0,0.0,0.0,0.0,0.0,0.0,0.0,0.0,0.0,0.0,0.0,0.0,0.0,0.0,0.0,0.0,0.0,0.0,0.0,0.0,0.0,0.0,1.3631,1.4267,1.3609,0.0,1.2015,0.0,0.0,0.0,0.0,0.0,0.0,0.0,0.0,0.0,0.0,0.0,0.0,0.0,0.0,0.0,0.0,0.0,0.0,0.0,0.0,0.0,0.0,0.0,0.0,0.0,0.0,0.0,0.0,0.0,0.0,0.0,0.0,0.0,0.0,0.0,0.0,0.0,0.0,0.0,0.0,0.0,0.0,0.0,0.0,0.0,0.0,0.0,0.0,0.0,0.0,0.0,0.0,0.0,0.0,0.0,0.0,0.0,0.0,0.0,0.0,0.0,0.0,0.0,0.0,0.0,0.0,0.0,0.0,0.0,0.0,0.0,0.0,0.0,0.0,0.0,0.0,0.0,0.0,0.0,0.0,0.0,0.0,0.0,0.0,0.0,0.0,0.0,0.0,0.0,0.0,0.0,0.0,0.0,0.0,0.0,0.0,0.0,0.0,0.0,0.0,0.0,0.0,0.0,0.0,0.0,0.0,0.0,0.0,0.0,0.0,0.0,1.4898,1.3854,1.3041,0.0,0.0,0.0,0.0,0.0,0.0,0.0,0.0,0.0,0.0,0.0,0.0,0.0,0.0,0.0,0.0,0.0,0.0,0.0,0.0,0.0,0.0,0.0,0.0,0.0,0.0,0.0,0.0,0.0,0.0,0.0,0.0,0.0,0.0,0.0,0.0,0.0,0.0,0.0,0.0,0.0,0.0,0.0,0.0,0.0,0.0,0.0,0.0,0.0,0.0,0.0,0.0,0.0,0.0,0.0,0.0,0.0,0.0,0.0,0.0,0.0,0.0,0.0,0.0,0.0,0.0,0.0,0.0,0.0,0.0,0.0,0.0,0.0,0.0,0.0,0.0,0.0,0.0,0.0,0.0,0.0,0.0,0.0,0.0,0.0,0.0,0.0,0.0,0.0,0.0,0.0,0.0,0.0,0.0,0.0,0.0,0.0,0.0,0.0,0.0,0.0,0.0,0.0,0.0,0.0,0.0,0.0,0.0,0.0,0.0,1.5081,0.0,1.5321,1.4314,1.337,1.2564,0.0,0.0,0.0,0.0,0.0,0.0,0.0,0.0,0.0,0.0,0.0,0.0,0.0,0.0,0.0,0.0,0.0,0.0,0.0,0.0,0.0,0.0,0.0,0.0,0.0,0.0,0.0,0.0,0.0,0.0,0.0,0.0,0.0,0.0,0.0,0.0,0.0,0.0,0.0,0.0,0.0,0.0,0.0,0.0,0.0,0.0,0.0,0.0,0.0,0.0,0.0,0.0,0.0,0.0,0.0,0.0,0.0,0.0,0.0,0.0,0.0,0.0,0.0,0.0,0.0,0.0,0.0,0.0,0.0,0.0,0.0,0.0,0.0,0.0,0.0,0.0,0.0,0.0,0.0,0.0,0.0,0.0,0.0,0.0,0.0,0.0,0.0,0.0,0.0,0.0,0.0,0.0,0.0,0.0,0.0,0.0,0.0,0.0,0.0,0.0,0.0,0.0,0.0,0.0,0.0,0.0,0.0,0.0,0.0,1.6217,1.5643,1.5833,1.5579,1.4226,0.0,0.0,0.0,0.0,0.0,0.0,0.0,0.0,0.0,0.0,0.0,0.0,0.0,0.0,0.0,0.0,0.0,0.0,0.0,0.0,0.0,0.0,0.0,0.0,0.0,0.0,0.0,0.0,0.0,0.0,0.0,0.0,0.0,0.0,0.0,0.0,0.0,0.0,0.0,0.0,0.0,0.0,0.0,0.0,0.0,0.0,0.0,0.0,0.0,0.0,0.0,0.0,0.0,0.0,0.0,0.0,0.0,0.0,0.0,0.0,0.0,0.0,0.0,0.0,0.0,0.0,0.0,0.0,0.0,0.0,0.0,0.0,0.0,0.0,0.0,0.0,0.0,0.0,0.0,0.0,0.0,0.0,0.0,0.0,0.0,0.0,0.0,0.0,0.0,0.0,0.0,0.0,0.0,0.0,0.0,0.0,0.0,0.0,0.0,0.0,0.0,0.0,0.0,0.0,0.0,0.0,0.0,0.0,0.0,1.4655,1.4703,1.5917,1.824,1.5138,1.3558,0.0,0.0,0.0,0.0,0.0,0.0,0.0,0.0,0.0,0.0,0.0,0.0,0.0,0.0,0.0,0.0,0.0,0.0,0.0,0.0,0.0,0.0,0.0,0.0,0.0,0.0,0.0,0.0,0.0,0.0,0.0,0.0,0.0,0.0,0.0,0.0,0.0,0.0,0.0,0.0,0.0,0.0,0.0,0.0,0.0,0.0,0.0,0.0,0.0,0.0,0.0,0.0,0.0,0.0,0.0,0.0,0.0,0.0,0.0,0.0,0.0,0.0,0.0,0.0,0.0,0.0,0.0,0.0,0.0,0.0,0.0,0.0,0.0,0.0,0.0,0.0,0.0,0.0,0.0,0.0,0.0,0.0,0.0,0.0,0.0,0.0,0.0,0.0,0.0,0.0,0.0,0.0,0.0,0.0,0.0,0.0,0.0,0.0,0.0,0.0,0.0,0.0,0.0,0.0,0.0,0.0,0.0,0.0,0.0,1.4192,0.0,1.6262,0.0,1.4821,1.307,0.0,0.0,0.0,0.0,0.0,0.0,0.0,0.0,0.0,0.0,0.0,0.0,0.0,0.0,0.0,0.0,0.0,0.0,0.0,0.0,0.0,0.0,0.0,0.0,0.0,0.0,0.0,0.0,0.0,0.0,0.0,0.0,0.0,0.0,0.0,0.0,0.0,0.0,0.0,0.0,0.0,0.0,0.0,0.0,0.0,0.0,0.0,0.0,0.0,0.0,0.0,0.0,0.0,0.0,0.0,0.0,0.0,0.0,0.0,0.0,0.0,0.0,0.0,0.0,0.0,0.0,0.0,0.0,0.0,0.0,0.0,0.0,0.0,0.0,0.0,0.0,0.0,0.0,0.0,0.0,0.0,0.0,0.0,0.0,0.0,0.0,0.0,0.0,0.0,0.0,0.0,0.0,0.0,0.0,0.0,0.0,0.0,0.0,0.0,0.0,0.0,0.0,0.0,0.0,0.0,0.0,0.0,0.0,1.3972,1.6582,1.7209,1.6573,1.4613,1.4787,1.2936,0.0,0.0,0.0,0.0,0.0,0.0,0.0,0.0,0.0,0.0,0.0,0.0,0.0,0.0,0.0,0.0,0.0,0.0,0.0,0.0,0.0,0.0,0.0,0.0,0.0,0.0,0.0,0.0,0.0,0.0,0.0,0.0,0.0,0.0,0.0,0.0,0.0,0.0,0.0,0.0,0.0,0.0,0.0,0.0,0.0,0.0,0.0,0.0,0.0,0.0,0.0,0.0,0.0,0.0,0.0,0.0,0.0,0.0,0.0,0.0,0.0,0.0,0.0,0.0,0.0,0.0,0.0,0.0,0.0,0.0,0.0,0.0,0.0,0.0,0.0,0.0,0.0,0.0,0.0,0.0,0.0,0.0,0.0,0.0,0.0,0.0,0.0,0.0,0.0,0.0,0.0,0.0,0.0,0.0,0.0,0.0,0.0,0.0,0.0,0.0,0.0,0.0,0.0,0.0,0.0,0.0,0.0,0.0,0.0,1.5011,1.5908,1.6703,1.7323,1.5005,1.37,0.0,0.0,0.0,0.0,0.0,0.0,0.0,0.0,0.0,0.0,0.0,0.0,0.0,0.0,0.0,0.0,0.0,0.0,0.0,0.0,0.0,0.0,0.0,0.0,0.0,0.0,0.0,0.0,0.0,0.0,0.0,0.0,0.0,0.0,0.0,0.0,0.0,0.0,0.0,0.0,0.0,0.0,0.0,0.0,0.0,0.0,0.0,0.0,0.0,0.0,0.0,0.0,0.0,0.0,0.0,0.0,0.0,0.0,0.0,0.0,0.0,0.0,0.0,0.0,0.0,0.0,0.0,0.0,0.0,0.0,0.0,0.0,0.0,0.0,0.0,0.0,0.0,0.0,0.0,0.0,0.0,0.0,0.0,0.0,0.0,0.0,0.0,0.0,0.0,0.0,0.0,0.0,0.0,0.0,0.0,0.0,0.0,0.0,0.0,0.0,0.0,0.0,0.0,0.0,0.0,0.0,0.0,0.0,0.0,1.5933,1.6783,1.7587,1.8266,1.547,1.4267,1.4861,0.0,0.0,0.0,0.0,0.0,0.0,0.0,0.0,0.0,0.0,0.0,0.0,0.0,0.0,0.0,0.0,0.0,0.0,0.0,0.0,0.0,0.0,0.0,0.0,0.0,0.0,0.0,0.0,0.0,0.0,0.0,0.0,0.0,0.0,0.0,0.0,0.0,0.0,0.0,0.0,0.0,0.0,0.0,0.0,0.0,0.0,0.0,0.0,0.0,0.0,0.0,0.0,0.0,0.0,0.0,0.0,0.0,0.0,0.0,0.0,0.0,0.0,0.0,0.0,0.0,0.0,0.0,0.0,0.0,0.0,0.0,0.0,0.0,0.0,0.0,0.0,0.0,0.0,0.0,0.0,0.0,0.0,0.0,0.0,0.0,0.0,0.0,0.0,0.0,0.0,0.0,0.0,0.0,0.0,0.0,0.0,0.0,0.0,0.0,0.0,0.0,0.0,0.0,0.0,0.0,0.0,0.0,0.0,1.8852,1.9498,1.9108,1.7722,1.6365,1.4909,0.0,0.0,0.0,0.0,0.0,0.0,0.0,0.0,0.0,0.0,0.0,0.0,0.0,0.0,0.0,0.0,0.0,0.0,0.0,0.0,0.0,0.0,0.0,0.0,0.0,0.0,0.0,0.0,0.0,0.0,0.0,0.0,0.0,0.0,0.0,0.0,0.0,0.0,0.0,0.0,0.0,0.0,0.0,0.0,0.0,0.0,0.0,0.0,0.0,0.0,0.0,0.0,0.0,0.0,0.0,0.0,0.0,0.0,0.0,0.0,0.0,0.0,0.0,0.0,0.0,0.0,0.0,0.0,0.0,0.0,0.0,0.0,0.0,0.0,0.0,0.0,0.0,0.0,0.0,0.0,0.0,0.0,0.0,0.0,0.0,0.0,0.0,0.0,0.0,0.0,0.0,0.0,0.0,0.0,0.0,0.0,0.0,0.0,0.0,0.0,0.0,0.0,0.0,0.0,0.0,0.0,0.0,0.0,0.0,2.0797,2.1096,2.0891,2.0268,1.8983,1.7604,0.0,0.0,0.0,0.0,0.0,0.0,0.0,0.0,0.0,0.0,0.0,0.0,0.0,0.0,0.0,0.0,0.0,0.0,0.0,0.0,0.0,0.0,0.0,0.0,0.0,0.0,0.0,0.0,0.0,0.0,0.0,0.0,0.0,0.0,0.0,0.0,0.0,0.0,0.0,0.0,0.0,0.0,0.0,0.0,0.0,0.0,0.0,0.0,0.0,0.0,0.0,0.0,0.0,0.0,0.0,0.0,0.0,0.0,0.0,0.0,0.0,0.0,0.0,0.0,0.0,0.0,0.0,0.0,0.0,0.0,0.0,0.0,0.0,0.0,0.0,0.0,0.0,0.0,0.0,0.0,0.0,0.0,0.0,0.0,0.0,0.0,0.0,0.0,0.0,0.0,0.0,0.0,0.0,0.0,0.0,0.0,0.0,0.0,0.0,0.0,0.0,0.0,0.0,0.0,0.0,0.0,0.0,0.0,2.0389,2.2443,2.2772,2.2818,2.2578,2.0876,1.925,0.0,0.0,0.0,0.0,0.0,0.0,0.0,0.0,0.0,0.0,0.0,0.0,0.0,0.0,0.0,0.0,0.0,0.0,0.0,0.0,0.0,0.0,0.0,0.0,0.0,0.0,0.0,0.0,0.0,0.0,0.0,0.0,0.0,0.0,0.0,0.0,0.0,0.0,0.0,0.0,0.0,0.0,0.0,0.0,0.0,0.0,0.0,0.0,0.0,0.0,0.0,0.0,0.0,0.0,0.0,0.0,0.0,0.0,0.0,0.0,0.0,0.0,0.0,0.0,0.0,0.0,0.0,0.0,0.0,0.0,0.0,0.0,0.0,0.0,0.0,0.0,0.0,0.0,0.0,0.0,0.0,0.0,0.0,0.0,0.0,0.0,0.0,0.0,0.0,0.0,0.0,0.0,0.0,0.0,0.0,0.0,0.0,0.0,0.0,0.0,0.0,0.0,0.0,0.0,0.0,0.0,0.0,0.0,2.2353,2.367,2.4306,2.4505,2.4255,2.2151,2.0173,0.0,0.0,0.0,0.0,0.0,0.0,0.0,0.0,0.0,0.0,0.0,0.0,0.0,0.0,0.0,0.0,0.0,0.0,0.0,0.0,0.0,0.0,0.0,0.0,0.0,0.0,0.0,0.0,0.0,0.0,0.0,0.0,0.0,0.0,0.0,0.0,0.0,0.0,0.0,0.0,0.0,0.0,0.0,0.0,0.0,0.0,0.0,0.0,0.0,0.0,0.0,0.0,0.0,0.0,0.0,0.0,0.0,0.0,0.0,0.0,0.0,0.0,0.0,0.0,0.0,0.0,0.0,0.0,0.0,0.0,0.0,0.0,0.0,0.0,0.0,0.0,0.0,0.0,0.0,0.0,0.0,0.0,0.0,0.0,0.0,0.0,0.0,0.0,0.0,0.0,0.0,0.0,0.0,0.0,0.0,0.0,0.0,0.0,0.0,0.0,0.0,0.0,0.0,0.0,0.0,0.0,0.0,0.0,2.2562,2.4335,2.4515,2.459,2.4521,2.2636,2.0783,0.0,0.0,0.0,0.0,0.0,0.0,0.0,0.0,0.0,0.0,0.0,0.0,0.0,0.0,0.0,0.0,0.0,0.0,0.0,0.0,0.0,0.0,0.0,0.0,0.0,0.0,0.0,0.0,0.0,0.0,0.0,0.0,0.0,0.0,0.0,0.0,0.0,0.0,0.0,0.0,0.0,0.0,0.0,0.0,0.0,0.0,0.0,0.0,1.0538,0.0,0.0,0.0,0.0,0.0,0.0,0.0,0.0,0.0,0.0,0.0,0.0,0.0,0.0,0.0,0.0,0.0,0.0,0.0,0.0,0.0,0.0,0.0,0.0,0.0,0.0,0.0,0.0,0.0,0.0,0.0,0.0,0.0,0.0,0.0,0.0,0.0,0.0,0.0,0.0,0.0,0.0,0.0,0.0,0.0,0.0,0.0,0.0,0.0,0.0,0.0,0.0,0.0,0.0,0.0,0.0,0.0,0.0,0.0,2.3857,2.5495,2.5255,2.5053,2.5039,2.3313,2.1452,0.0,0.0,0.0,0.0,0.0,0.0,0.0,0.0,0.0,0.0,0.0,0.0,0.0,0.0,0.0,0.0,0.0,0.0,0.0,0.0,0.0,0.0,0.0,0.0,0.0,0.0,0.0,0.0,0.0,0.0,0.0,0.0,0.0,0.0,0.0,0.0,0.0,0.0,0.0,0.0,0.0,0.0,0.0,0.0,0.0,0.0,0.0,0.0,0.0,0.0,0.0,0.0,0.0,0.0,0.0,0.0,0.0,0.0,0.0,0.0,0.0,0.0,0.0,0.0,0.0,0.0,0.0,0.0,0.0,0.0,0.0,0.0,0.0,0.0,0.0,0.0,0.0,0.0,0.0,0.0,0.0,0.0,0.0,0.0,0.0,0.0,0.0,0.0,0.0,0.0,0.0,0.0,0.0,0.0,0.0,0.0,0.0,0.0,0.0,0.0,0.0,0.0,0.0,0.0,0.0,0.0,0.0,2.29,2.5053,2.6512,2.6033,2.5681,2.5585,2.4004,2.2099,1.9941,0.0,0.0,0.0,0.0,0.0,0.0,0.0,0.0,0.0,0.0,0.0,0.0,0.0,0.0,0.0,0.0,0.0,0.0,0.0,0.0,0.0,0.0,0.0,0.0,0.0,0.0,0.0,0.0,0.0,0.0,0.0,0.0,0.0,0.0,0.0,0.0,0.0,0.0,1.0761,1.2269,0.0,0.0,0.0,0.0,0.0,0.0,0.0,0.0,1.1091,0.0,0.0,0.0,0.0,0.0,0.0,0.0,0.0,0.0,0.0,0.0,0.0,0.0,0.0,0.0,0.0,0.0,0.0,0.0,0.0,0.0,0.0,0.0,0.0,0.0,0.0,0.0,0.0,0.0,0.0,0.0,0.0,0.0,0.0,0.0,0.0,0.0,0.0,0.0,0.0,0.0,0.0,0.0,0.0,0.0,0.0,0.0,0.0,0.0,0.0,0.0,0.0,0.0,0.0,0.0,0.0,2.2134,2.2733,2.42,2.6512,2.6482,2.6183,2.5585,2.4399,2.2744,2.0621,0.0,0.0,0.0,0.0,0.0,0.0,0.0,0.0,0.0,0.0,0.0,0.0,0.0,0.0,0.0,0.0,0.0,0.0,0.0,0.0,0.0,0.0,0.0,0.0,0.0,0.0,0.0,0.0,0.0,0.0,0.0,0.0,0.0,0.0,0.0,0.0,0.0,0.0,0.0,1.3899,1.4344,0.0,0.0,0.0,0.0,0.0,0.0,0.0,0.0,1.1044,0.0,0.0,0.0,0.0,0.0,0.0,0.0,0.0,0.0,0.0,0.0,0.0,0.0,0.0,0.0,0.0,0.0,0.0,0.0,0.0,0.0,0.0,0.0,0.0,0.0,0.0,0.0,0.0,0.0,0.0,0.0,0.0,0.0,0.0,0.0,0.0,0.0,0.0,0.0,0.0,0.0,0.0,0.0,0.0,0.0,0.0,0.0,0.0,0.0,0.0,0.0,0.0,0.0,0.0,0.0,2.2493,2.367,2.5136,2.7016,2.6752,2.6273,2.5585,2.3948,2.2321,0.0,0.0,0.0,0.0,0.0,0.0,0.0,0.0,0.0,0.0,0.0,0.0,0.0,0.0,0.0,0.0,0.0,0.0,0.0,0.0,0.0,0.0,0.0,0.0,0.0,0.0,0.0,0.0,0.0,0.0,0.0,0.0,0.0,0.0,0.0,0.0,0.0,0.0,0.0,0.0,1.4513,1.5153,1.5181,0.0,0.0,0.0,0.0,0.0,0.0,1.2658,1.2032,0.0,0.0,0.0,0.0,0.0,0.0,0.0,0.0,0.0,0.0,0.0,0.0,0.0,0.0,0.0,0.0,0.0,0.0,0.0,0.0,0.0,0.0,0.0,0.0,0.0,0.0,0.0,0.0,0.0,0.0,0.0,0.0,0.0,0.0,0.0,0.0,0.0,0.0,0.0,0.0,0.0,0.0,0.0,0.0,0.0,0.0,0.0,0.0,0.0,0.0,0.0,0.0,0.0,0.0,0.0,2.2613,2.4328,2.5974,2.7495,2.7051,2.6422,2.5585,2.3805,2.2181,0.0,0.0,0.0,0.0,0.0,0.0,0.0,0.0,0.0,0.0,0.0,0.0,0.0,0.0,0.0,0.0,0.0,0.0,0.0,0.0,0.0,0.0,0.0,0.0,0.0,0.0,0.0,0.0,0.0,0.0,0.0,0.0,0.0,0.0,0.0,0.0,0.0,0.0,0.0,0.0,0.0,1.6326,1.6417,1.5822,0.0,0.0,0.0,0.0,1.4286,1.404,0.0,0.0,0.0,0.0,0.0,0.0,0.0,0.0,0.0,0.0,0.0,0.0,0.0,0.0,0.0,0.0,0.0,0.0,0.0,0.0,0.0,0.0,0.0,0.0,0.0,0.0,0.0,0.0,0.0,0.0,0.0,0.0,0.0,0.0,0.0,0.0,0.0,0.0,0.0,0.0,0.0,0.0,0.0,0.0,0.0,0.0,0.0,0.0,0.0,0.0,0.0,0.0,0.0,0.0,0.0,0.0,2.2523,2.343,2.5046,2.7435,2.7525,2.6896,2.5644,2.4978,2.338,0.0,0.0,0.0,0.0,0.0,0.0,0.0,0.0,0.0,0.0,0.0,0.0,0.0,0.0,0.0,0.0,0.0,0.0,0.0,0.0,0.0,0.0,0.0,0.0,0.0,0.0,0.0,0.0,0.0,0.0,0.0,0.0,0.0,0.0,0.0,0.0,0.0,0.0,0.0,0.0,0.0,1.831,1.6563,1.6425,1.6489,0.0,0.0,1.5518,1.6241,1.6662,0.0,0.0,0.0,0.0,0.0,0.0,0.0,0.0,0.0,0.0,0.0,0.0,0.0,0.0,0.0,0.0,0.0,0.0,0.0,0.0,0.0,0.0,0.0,0.0,0.0,0.0,0.0,0.0,0.0,0.0,0.0,0.0,0.0,0.0,0.0,0.0,0.0,0.0,0.0,0.0,0.0,0.0,0.0,0.0,0.0,0.0,0.0,0.0,0.0,0.0,0.0,0.0,0.0,0.0,0.0,1.9331,2.3122,2.4567,2.6033,2.7525,2.7585,2.6956,2.5621,2.4553,2.2961,0.0,0.0,0.0,0.0,0.0,0.0,0.0,0.0,0.0,0.0,0.0,0.0,0.0,0.0,0.0,0.0,0.0,0.0,0.0,0.0,0.0,0.0,0.0,0.0,0.0,0.0,0.0,0.0,0.0,0.0,0.0,0.0,0.0,0.0,0.0,0.0,0.0,0.0,0.0,0.0,0.0,0.0,1.7773,1.8041,0.0,0.0,0.0,1.7568,1.7907,0.0,0.0,0.0,0.0,0.0,0.0,0.0,0.0,0.0,0.0,0.0,0.0,0.0,0.0,0.0,0.0,0.0,0.0,0.0,0.0,0.0,0.0,0.0,0.0,0.0,0.0,0.0,0.0,0.0,0.0,0.0,0.0,0.0,0.0,0.0,0.0,0.0,0.0,0.0,0.0,0.0,0.0,0.0,0.0,0.0,0.0,0.0,0.0,0.0,0.0,0.0,0.0,0.0,0.0,0.0,0.0,0.0,2.355,2.5585,2.6926,2.7555,2.7585,2.6986,2.5644,2.4261,0.0,0.0,0.0,0.0,0.0,0.0,0.0,0.0,0.0,0.0,0.0,0.0,0.0,0.0,0.0,0.0,0.0,0.0,0.0,0.0,0.0,0.0,0.0,0.0,0.0,0.0,0.0,0.8755,0.0,0.0,0.0,0.0,0.0,0.0,0.0,0.0,0.0,0.0,0.0,0.0,0.0,0.0,1.7567,1.8751,1.9353,1.9631,0.0,0.0,1.943,1.9215,1.9224,1.8519,0.0,0.0,0.0,0.0,0.0,0.0,0.0,0.0,0.0,0.0,0.0,0.0,0.0,0.0,0.0,0.0,0.0,0.0,0.0,0.0,0.0,0.0,0.0,0.0,0.0,0.0,0.0,0.0,0.0,0.0,0.0,0.0,0.0,0.0,0.0,0.0,0.0,0.0,0.0,0.0,0.0,0.0,0.0,0.0,0.0,0.0,0.0,0.0,0.0,0.0,0.0,0.0,0.0,0.0,0.0,2.352,2.5585,2.6956,2.7555,2.7585,2.6956,2.5644,2.4719,2.3126,0.0,0.0,0.0,0.0,0.0,0.0,0.0,0.0,0.0,0.0,0.0,0.0,0.0,0.0,0.0,0.0,0.0,0.0,0.0,0.0,0.0,0.0,0.0,0.0,0.0,0.0,0.0,0.0,0.0,0.0,0.0,0.0,0.0,0.0,0.0,0.0,0.0,0.0,0.0,0.0,0.0,1.9155,1.9015,1.9801,2.0572,0.0,0.0,2.0771,2.0048,2.1305,2.0892,1.6551,0.0,0.0,0.0,0.0,0.0,0.0,0.0,0.0,0.0,0.0,0.0,0.0,0.0,0.0,0.0,0.0,0.0,0.0,0.0,0.0,0.0,0.0,0.0,0.0,0.0,0.0,0.0,0.0,0.0,0.0,0.0,0.0,0.0,0.0,0.0,0.0,0.0,0.0,0.0,0.0,0.0,0.0,0.0,0.0,0.0,0.0,0.0,0.0,0.0,0.0,0.0,0.0,0.0,2.1346,2.4208,2.6602,2.7949,2.8188,2.8188,2.759,2.6243,2.5368,2.3996,0.0,0.0,0.0,0.0,0.0,0.0,0.0,0.0,0.0,0.0,0.0,0.0,0.0,0.0,0.0,0.0,0.0,0.0,0.0,0.0,0.0,0.0,0.0,0.0,0.0,0.0,0.0,0.0,1.0268,1.0214,0.9468,0.0,0.0,0.0,0.0,0.0,0.0,0.0,0.0,0.0,0.0,1.8793,2.0049,2.032,0.0,0.0,2.1468,2.1368,2.104,2.0988,2.0318,1.8239,1.7146,0.0,0.0,0.0,0.0,0.0,0.0,0.0,0.0,0.0,0.0,0.0,0.0,0.0,0.0,0.0,0.0,0.0,0.0,0.0,0.0,0.0,0.0,0.0,0.0,0.0,0.0,0.0,0.0,0.0,0.0,0.0,0.0,0.0,0.0,0.0,0.0,0.0,0.0,0.0,0.0,0.0,0.0,0.0,0.0,0.0,0.0,0.0,0.0,0.0,0.0,0.0,0.0,2.2004,2.4575,2.7235,2.8697,2.8876,2.8697,2.8068,2.6926,2.572,2.438,0.0,0.0,0.0,0.0,0.0,0.0,0.0,0.0,0.0,0.0,0.0,0.0,0.0,0.0,0.0,0.0,0.0,0.0,0.0,0.0,0.0,0.0,0.0,0.0,0.0,0.0,0.0,0.0,1.076,1.051,0.9506,0.0,0.0,0.0,0.0,0.0,0.0,0.0,0.0,0.0,0.0,1.8735,2.0719,2.0615,2.0617,2.1476,2.1597,2.1642,2.1779,2.1155,2.0403,1.9588,0.0,0.0,0.0,0.0,0.0,0.0,0.0,0.0,0.0,0.0,0.0,0.0,0.0,0.0,0.0,0.0,0.0,0.0,0.0,0.0,0.0,0.0,0.0,0.0,0.0,0.0,0.0,0.0,0.0,0.0,0.0,0.0,0.0,0.0,0.0,0.0,0.0,0.0,0.0,0.0,0.0,0.0,0.0,0.0,0.0,0.0,0.0,0.0,0.0,0.0,0.0,0.0,0.0,2.2004,2.4575,2.726,2.8936,2.9505,2.8936,2.8278,2.7585,2.5674,2.4055,2.2817,0.0,0.0,0.0,0.0,0.0,0.0,0.0,0.0,0.0,0.0,0.0,0.0,0.0,0.0,0.0,0.0,0.0,0.0,0.0,0.0,0.0,0.0,0.0,0.0,0.0,0.0,1.0058,0.9491,0.9047,0.0,0.0,0.0,0.0,0.0,0.0,0.0,0.0,0.0,0.0,1.8565,1.927,2.0782,2.0615,2.0617,2.146,2.1597,2.1764,2.218,2.2231,2.1738,0.0,0.0,0.0,0.0,0.0,0.0,0.0,0.0,0.0,0.0,0.0,0.0,0.0,0.0,0.0,0.0,0.0,0.0,0.0,0.0,0.0,0.0,0.0,0.0,0.0,0.0,0.0,2.2477,2.1348,0.0,0.0,0.0,0.0,0.0,0.0,0.0,0.0,0.0,0.0,0.0,2.5854,2.7242,0.0,0.0,0.0,0.0,0.0,0.0,0.0,0.0,0.0,0.0,0.0,0.0,2.3101,2.5262,2.7889,2.9564,3.0163,2.9983,2.9355,2.8278,2.7171,2.5032,2.1762,0.0,0.0,0.0,0.0,0.0,0.0,0.0,0.0,0.0,0.0,0.0,0.0,0.0,0.0,0.0,0.0,0.0,0.0,0.0,0.0,0.0,0.0,0.0,0.0,0.0,1.1707,0.0,0.0,0.0,0.0,0.0,0.0,0.0,0.0,0.0,0.0,0.0,1.7668,1.8905,1.9732,2.0413,2.0927,2.0862,2.0878,0.0,0.0,0.0,0.0,0.0,0.0,0.0,0.0,0.0,0.0,0.0,0.0,0.0,0.0,1.9161,1.6157,1.5189,1.487,1.4925,0.0,0.0,0.0,0.0,0.0,0.0,0.0,0.0,0.0,0.0,0.0,0.0,0.0,0.0,0.0,0.0,2.4273,0.0,0.0,0.0,0.0,0.0,0.0,0.0,0.0,2.7926,2.9217,2.8862,3.0024,3.0013,0.0,2.8308,2.595,0.0,0.0,0.0,0.0,0.0,0.0,0.0,0.0,2.4088,2.6273,2.8667,3.0223,3.0821,3.0612,3.0103,2.9265,2.8097,2.5811,2.2313,2.1112,1.9819,0.0,0.0,0.0,0.0,0.0,0.0,0.0,0.0,0.0,0.0,0.0,0.0,0.0,0.0,0.0,0.0,0.0,0.0,0.0,0.0,0.0,0.0,0.0,1.2655,0.0,0.0,0.0,0.0,0.0,0.0,0.0,0.0,0.0,1.6524,1.8156,1.961,2.0316,2.085,2.1322,2.1678,0.0,0.0,0.0,0.0,0.0,0.0,0.0,2.2341,2.2341,2.1921,2.1245,2.023,2.0906,2.1299,2.0568,0.0,0.0,1.8504,1.749,1.7151,1.7141,1.7439,1.7532,1.7102,1.7685,1.8203,0.0,0.0,0.0,0.0,0.0,0.0,0.0,0.0,2.871,2.8928,0.0,2.7545,0.0,0.0,0.0,0.0,0.0,0.0,0.0,0.0,3.2674,3.3844,3.2706,3.2647,3.2288,3.172,3.2198,3.118,2.8547,2.4238,0.0,0.0,0.0,0.0,0.0,0.0,2.5039,2.7615,2.9564,3.0853,3.1481,3.0883,3.0522,3.0372,2.8348,2.629,2.4431,2.3318,2.2092,2.0504,1.8326,0.0,0.0,0.0,0.0,0.0,0.0,0.0,0.0,0.0,0.0,0.0,0.0,0.0,0.0,0.0,0.0,0.0,0.0,0.0,0.0,1.2978,0.0,0.0,0.0,0.0,0.0,0.0,0.0,0.0,0.0,0.0,1.894,2.0237,2.1469,2.2245,0.0,0.0,0.0,0.0,2.216,2.3621,2.3885,2.4032,2.4381,2.4458,2.444,2.4474,0.0,0.0,2.2617,2.3511,2.3729,2.1698,2.251,2.3207,2.2462,2.0961,2.0035,2.0002,1.9486,1.9153,1.9361,1.9901,2.0454,3.7701,0.0,0.0,0.0,0.0,3.3064,3.3854,3.5056,3.5406,3.4554,3.2766,3.1931,0.0,0.0,0.0,0.0,0.0,0.0,3.0363,3.2205,3.4278,3.5489,3.5965,3.5549,3.525,3.504,3.4292,3.3275,3.2018,2.9777,2.6393,2.1924,0.0,0.0,0.0,0.0,2.7315,2.8992,3.0492,3.154,3.2198,3.154,3.0763,2.9891,2.8342,2.676,2.5281,2.4368,2.3165,2.1731,2.022,0.0,0.0,0.0,0.0,0.0,0.0,0.0,0.0,0.0,0.0,0.0,0.0,0.0,0.0,0.0,0.0,0.0,0.0,0.0,1.3876,1.4617,1.4851,0.0,0.0,0.0,0.0,0.0,0.0,0.0,0.0,0.0,2.2378,2.2893,2.3162,0.0,0.0,2.367,2.367,2.3654,2.3719,2.3885,0.0,0.0,0.0,2.4321,2.4508,2.4508,2.4508,2.4338,2.3932,2.4203,2.432,2.3628,2.3864,2.4101,2.3864,2.2665,2.1705,2.1637,2.1468,2.136,2.144,2.1636,2.1765,4.2426,3.9143,3.7758,3.7288,3.7486,3.7952,3.8569,3.9354,3.9519,3.8727,3.7199,3.6237,3.4403,3.1928,3.0397,0.0,0.0,0.0,3.3144,3.5465,3.6011,3.6686,3.7345,3.7015,3.6836,3.6806,3.5789,3.5102,3.4651,3.3335,3.0522,2.6333,0.0,0.0,2.4926,2.741,2.9415,3.0702,3.1779,3.2348,3.2497,3.1839,3.1002,2.9983,2.8933,2.7764,2.6422,2.5621,2.4527,2.3078,2.2061,2.0542,0.0,0.0,0.0,0.0,0.0,0.0,0.0,0.0,0.0,0.0,0.0,1.1233,0.9506,0.0,0.0,0.0,1.2937,1.462,1.5971,1.6645,0.0,0.0,0.0,0.0,0.0,0.0,0.0,2.1017,2.2218,2.3454,2.4986,2.5642,2.5577,2.4551,2.4608,2.4844,2.5123,0.0,2.5277,2.5447,2.5664,2.5629,2.5096,2.5243,2.5388,2.5388,2.5354,2.5354,2.5388,2.5354,2.5286,2.5049,2.4948,2.4831,2.4575,2.3748,2.3071,2.2786,2.2719,2.2651,2.2381,2.2313,2.2313,4.6022,4.5244,4.2851,4.1803,4.1743,4.2381,4.2291,4.1752,4.1683,4.1654,4.1504,4.0247,3.923,3.8327,3.579,0.0,0.0,3.5966,3.6681,3.8601,3.8003,3.7704,3.7644,3.7584,3.7554,3.7464,3.6866,3.657,3.6417,3.522,3.3664,3.1809,3.0043,2.9325,2.9684,3.0372,3.139,3.2617,3.3275,3.3215,3.2527,3.1899,3.1212,3.0432,2.9864,2.8963,2.7645,2.6896,2.5854,2.447,2.3641,2.2418,2.0594,0.0,0.0,0.0,0.0,0.0,0.0,0.0,0.0,0.0,0.0,0.0,0.0,0.0,0.0,0.0,1.5991,0.0,1.8192,1.8755,0.0,0.0,0.0,1.9874,1.9642,2.1397,2.2834,2.3248,0.0,0.0,0.0,0.0,2.8089,2.5791,2.5496,2.5926,2.7067,2.6833,2.6847,2.7666,2.784,2.7638,2.6793,2.6623,2.6556,2.6556,2.6691,2.6623,2.659,2.6623,2.6387,2.5812,2.571,2.5507,2.4812,2.4711,2.444,2.3748,2.3545,2.3274,2.2617,2.2448,2.2415,4.698,4.677,4.6142,4.5304,4.4377,4.4526,4.4526,4.4377,4.4377,4.4077,4.3509,4.2252,4.0726,3.9104,3.8448,3.8662,3.9469,3.9258,3.9705,4.0636,4.0516,4.0187,3.9679,3.917,3.8661,3.8123,3.7494,3.6956,3.6477,3.6178,3.5519,3.4562,3.4083,3.2677,3.0432,3.1958,3.3185,3.4024,3.4204,3.3694,3.2557,3.2377,3.148,2.9861,2.9681,2.8992,2.7645,2.6452,2.5661,2.5266,2.4008,2.2844,2.1815,1.9435,0.0,0.0,0.0,0.0,0.0,0.0,0.0,0.0,0.0,1.4643,1.2002,0.0,1.6443,0.0,1.7451,1.8733,1.8963,1.9524,0.0,0.0,2.1859,2.2818,2.3925,2.5022,2.5914,2.6556,2.6883,2.7366,2.8365,2.8412,2.8325,2.8104,2.8074,2.823,2.8523,2.8468,2.8449,2.8633,2.8721,2.845,2.7655,2.7063,2.6725,2.6691,2.6691,2.6691,2.6691,2.6691,2.6623,2.6505,2.642,2.6353,2.615,2.615,2.5879,2.5203,2.4628,2.4034,2.3308,2.3139,2.297,4.7578,4.7309,4.7309,4.686,4.6202,4.6202,4.6172,4.6172,4.5903,4.5544,4.5155,4.4137,4.291,4.1556,4.1257,4.1316,4.1654,4.1115,4.1205,4.1811,4.1504,4.1175,4.0816,4.0187,3.9649,3.926,3.8302,3.7674,3.7315,3.6746,3.6297,3.5938,3.5639,3.4562,3.2856,3.3844,3.4562,3.4921,3.4653,3.4174,3.3425,3.2826,3.1869,3.0522,2.9894,2.8963,2.7645,2.6602,2.5644,2.4747,2.3897,2.3071,2.2267,2.0426,1.8936,0.0,0.0,0.0,0.0,0.0,0.0,0.0,0.0,0.0,0.0,0.0,1.8137,0.0,1.9562,0.0,2.1117,2.1976,2.2774,2.3423,2.4388,2.5292,2.611,2.6883,2.7502,2.7885,2.82,2.8714,2.9394,2.9494,2.9618,2.992,2.9991,2.9856,2.9548,2.9532,2.9537,2.9495,2.9465,2.9228,2.845,2.7706,2.7199,2.7165,2.6894,2.6691,2.6691,2.6691,2.6691,2.6691,2.6691,2.6691,2.6691,2.6691,2.6556,2.6184,2.5778,2.5117,2.4101,2.3628,2.3241,4.7938,4.7429,4.7339,4.7309,4.7309,4.7309,4.7309,4.7279,4.6711,4.6369,4.6292,4.5693,4.5065,4.4407,4.3798,4.3499,4.3349,4.2252,4.2051,4.247,4.1931,4.1594,4.1512,4.0935,4.0546,4.0337,3.92,3.8571,3.8362,3.7285,3.6656,3.6477,3.5908,3.5609,3.5519,3.5489,3.5489,3.5489,3.4921,3.4593,3.4503,3.3275,3.2258,3.1511,3.0283,2.8992,2.7645,2.6956,2.5764,2.3999,2.3879,2.345,2.2608,2.1216,2.0163,0.0,1.8377,0.0,0.0,0.0,0.0,0.0,0.0,0.0,0.0,1.9306,1.9959,2.1107,2.2152,2.3132,2.4053,2.4963,2.5549,2.5635,2.6564,2.7219,2.7218,2.7912,2.8431,2.8491,2.9518,3.0243,3.0277,3.0818,3.119,3.1089,3.1089,3.0852,3.0374,3.0329,3.0362,3.0253,3.0176,2.977,2.9194,2.8484,2.7959,2.7891,2.7503,2.7013,2.708,2.6962,2.686,2.686,2.6793,2.6691,2.6691,2.6691,2.6691,2.6657,2.659,2.615,2.4982,2.4188,2.368,4.8207,4.8057,4.7519,4.7309,4.7309,4.7309,4.7309,4.7309,4.7189,4.683,4.6322,4.6202,4.5753,4.5125,4.4975,4.4616,4.4067,4.3868,4.3539,4.312,4.303,4.2671,4.2231,4.2081,4.1444,4.0427,4.0157,3.9439,3.8392,3.8153,3.7494,3.6507,3.6357,3.6028,3.5519,0.0,0.0,0.0,3.537,3.504,3.4503,3.3724,3.2736,3.154,3.0283,0.0,2.7675,2.6931,2.6183,2.5285,2.5226,0.0,0.0,0.0,0.0,0.0,0.0,0.0,0.0,0.0,0.0,0.0,2.3764,2.3126,2.1206,2.2526,2.3588,2.3857,2.5002,2.6061,2.6778,2.6541,2.678,2.7689,2.7608,2.7791,2.8633,2.9432,3.0079,3.0555,3.0827,3.0987,3.1021,3.1123,3.1224,3.1224,3.119,3.1157,3.0987,3.0991,3.1004,3.0987,3.0514,3.0108,2.9905,2.9262,2.8755,2.8721,2.8705,2.8536,2.8434,2.7977,2.7587,2.7587,2.7097,2.6725,2.6725,2.6691,2.6691,2.6691,2.6691,2.642,2.5575,2.5288,2.5,4.8865,0.0,4.7938,4.7608,0.0,4.7309,4.7309,4.7309,4.7309,4.713,4.683,4.68,4.6621,4.6262,4.5963,4.5633,4.5274,4.4575,4.4137,4.3768,4.3479,4.318,4.2821,4.256,4.1871,4.0876,4.0546,3.9888,3.8931,3.8542,3.8063,3.7404,3.684,3.6327,3.5998,3.5669,3.5489,3.5489,3.5489,3.534,3.4981,3.4322,3.3335,3.2019,0.0,0.0,0.0,0.0,0.0,0.0,0.0,0.0,0.0,0.0,0.0,2.364,2.4204,2.4459,2.4162,2.5023,2.5848,2.645,2.7453,2.6997,2.4687,2.547,2.638,2.7015,2.7703,2.8339,2.8993,2.8756,2.8805,2.9328,2.9217,2.9375,3.0235,3.0948,3.1494,3.1825,3.2109,3.2273,3.2307,3.2307,3.2104,3.1819,3.1752,3.1616,3.1258,3.119,3.119,3.119,3.092,3.0649,3.0581,3.004,2.9533,2.9499,2.9247,2.901,2.8976,2.8653,2.8383,2.8349,2.7774,2.7266,2.7199,2.6962,2.6691,2.6691,2.6691,2.659,2.6184,2.5879,2.5507,4.9613,4.8626,4.8506,4.8087,4.7489,4.7489,4.7399,4.7309,0.0,0.0,0.0,4.7309,4.7309,4.7279,4.6741,4.6399,4.6219,4.5185,4.4556,4.4287,4.3708,4.3409,4.326,4.2761,4.2231,4.1572,4.0905,4.0247,3.9589,3.8901,3.8512,3.8302,3.7379,3.6716,3.6477,3.5818,3.5489,3.5489,3.5489,3.5489,3.5489,3.4831,3.3963,3.2886,3.2079,3.0524,2.8214,2.8124,2.7255,2.5442,2.5412,2.5442,2.5322,2.583,2.6333,2.6776,2.7475,2.7891,2.782,2.7986,2.8414,2.9095,3.0016,2.991,2.8249,2.8131,2.8591,2.9662,2.9743,3.0097,3.1004,3.0871,3.0834,3.1042,3.0892,3.0991,3.1598,3.2145,3.2475,3.2652,3.3067,3.3389,3.3322,3.3322,3.3186,3.2645,3.2496,3.2327,3.1698,3.1393,3.119,3.119,3.1123,3.1157,3.1089,3.0717,3.0292,3.0277,2.9803,2.9416,2.9382,2.9281,2.9213,2.9179,2.8552,2.8094,2.7959,2.7435,2.6928,2.6894,2.6793,2.6691,2.6657,2.6218,2.5845,5.0076,4.9867,4.9374,4.879,4.8147,4.8147,4.7818,4.7309,4.7309,4.7309,4.7309,4.7309,4.7309,4.7309,4.7219,4.686,4.6322,4.61,4.5382,0.0,4.4227,4.3828,4.329,4.32,4.2851,4.2261,4.1534,4.0905,4.0247,3.9589,3.899,3.8452,3.8212,3.7584,3.6537,3.5848,3.5489,3.5489,3.5489,3.5489,3.5489,3.4831,3.4444,3.4173,3.3006,3.1689,3.0163,3.0073,2.9475,2.8158,2.8577,2.8637,2.8098,2.8128,2.7949,2.755,2.8595,2.9011,2.8539,2.9454,3.0644,3.1836,3.1619,3.1019,3.0272,3.0185,3.0242,3.0407,3.0473,3.1175,3.2792,3.2102,3.1886,3.2836,3.2103,3.1733,3.2335,3.2517,3.2829,3.3278,3.336,3.3457,3.3525,3.3491,3.3491,3.3288,3.3186,3.3152,3.2814,3.2002,3.1292,3.119,3.119,3.119,3.1157,3.1123,3.0987,3.1055,3.0886,3.0683,3.0683,3.0277,2.9973,2.9973,2.933,2.8908,2.8789,2.818,2.7722,2.7587,2.7165,2.6793,2.6725,2.6556,2.6488,5.0524,5.0166,4.9912,4.9404,4.885,4.8491,4.7908,4.7339,4.7309,4.7309,4.7309,4.7309,4.7309,4.7309,4.7309,4.713,4.683,4.6459,4.595,4.5323,4.4646,4.4137,4.3838,4.3469,4.3,4.241,4.2111,4.1384,4.0427,4.0098,3.9619,3.896,3.8571,3.7764,3.6537,3.6178,3.5878,3.5519,3.5489,3.5489,3.5489,3.522,3.4861,3.4503,3.3873,3.2946,3.1659,3.157,3.1122,3.0195,3.0492,3.0494,3.0195,3.0522,3.0582,3.0283,3.116,3.1522,3.1269,3.1796,3.256,3.354,3.3345,3.3012,3.276,3.2397,3.2294,3.2625,3.2351,3.2508,3.3446,3.2698,3.2399,3.2991,3.2805,3.2959,3.3557,3.3983,3.4287,3.4542,3.4607,3.4585,3.4585,3.4585,3.4382,3.41,3.3728,3.3423,3.3423,3.2848,3.2239,3.1853,3.1481,3.1224,3.119,3.119,3.119,3.119,3.119,3.119,3.119,3.0852,3.0717,3.0649,3.0108,2.9668,2.9619,2.8958,2.8383,2.7824,2.7587,2.7215,2.686,2.6691,2.6691,5.093,5.0405,5.0405,5.0092,4.9404,4.8626,4.7997,4.7549,4.7369,4.7309,4.7309,4.7309,4.7309,4.7309,4.7309,4.7309,4.7219,4.677,4.6471,4.6202,4.5095,4.4466,4.4257,4.3618,4.306,4.265,4.25,4.1871,4.0905,4.0546,4.0068,3.9409,3.8721,3.7883,3.6926,3.6626,3.6237,3.5759,3.5579,3.5489,3.5489,3.5489,3.525,3.4771,3.4711,3.4143,3.3036,3.2946,3.2647,3.1989,3.1959,3.1929,3.1959,3.2437,3.2736,3.2766,3.3215,3.3514,3.3514,3.3514,3.3789,3.442,3.4479,3.4541,3.4695,3.4242,3.4091,3.4411,3.4169,3.4029,3.4025,3.3623,3.3283,3.331,3.3895,3.441,3.4807,3.5435,3.5769,3.5667,3.56,3.5566,3.56,3.56,3.5329,3.4776,3.4235,3.3909,3.3875,3.3774,3.3389,3.2848,3.2192,3.1799,3.1664,3.1562,3.1495,3.1447,3.1292,3.1224,3.119,3.119,3.119,3.1089,3.0751,3.0412,3.0311,2.977,2.9127,2.8568,2.8263,2.7858,2.7148,2.6826,2.6725,5.1169,5.1139,5.1109,5.075,4.9956,4.8835,4.8267,4.8117,4.7578,4.7309,4.7309,4.7309,4.7309,4.7309,4.7309,4.7309,4.7309,4.7249,4.689,4.6279,4.5544,4.4885,4.4317,4.3618,4.326,4.315,4.2671,4.2351,4.2051,4.0935,4.0068,3.9373,3.8721,3.8362,3.8093,3.7075,3.6477,3.6387,3.5818,3.5489,3.5489,3.5489,3.5459,3.5429,3.54,3.507,3.4324,3.4324,3.3993,3.3395,3.3305,3.3305,3.3335,3.3395,3.3425,3.3425,3.3484,3.3514,3.3514,3.3514,3.3845,3.4418,3.4509,3.4749,3.5321,3.5377,3.512,3.4959,3.5292,3.5418,3.55,3.535,3.5195,3.519,3.5811,3.6179,3.577,3.6205,3.64,3.5667,3.5769,3.5633,3.5701,3.5633,3.5566,3.5453,3.5228,3.5126,3.5092,3.4742,3.4404,3.4167,3.366,3.322,3.3051,3.2598,3.2226,3.2124,3.165,3.1326,3.1258,3.119,3.119,3.1157,3.1123,3.0987,3.0886,3.0514,3.0006,2.9567,2.9127,2.8619,2.7858,2.7215,2.686,5.1229,5.1229,5.1229,5.0794,5.0136,4.9643,4.8985,4.8267,4.7997,4.7668,4.7339,4.7309,4.7309,4.7309,4.7309,4.7309,4.7309,4.7309,4.716,4.686,4.6202,4.5544,4.4885,4.4227,4.3718,4.329,4.306,4.2761,4.2231,4.1093,4.0247,3.9948,3.9349,3.8811,3.8392,3.7853,3.7434,3.7015,3.6417,3.6088,3.6028,3.5699,3.5489,3.5489,3.5489,3.54,3.513,3.51,3.4951,3.4711,3.4681,3.4681,3.4681,3.4681,3.4681,3.4681,3.4681,3.4681,3.4681,3.4681,3.4801,3.507,3.51,3.522,3.5524,3.6321,3.6745,3.6508,3.6035,3.5837,3.6258,3.5989,3.5894,3.6241,3.658,3.6787,3.6993,3.7225,3.728,3.6986,3.6952,3.6772,3.6332,3.5893,3.5633,3.56,3.56,3.5633,3.5566,3.5351,3.5216,3.5115,3.4856,3.4315,3.366,3.3186,3.278,3.2395,3.2056,3.1765,3.1326,3.119,3.119,3.119,3.119,3.119,3.1157,3.0987,3.0649,3.0243,2.9533,2.8874,2.8552,2.7909,2.7469,5.1229,5.1229,5.1229,5.0913,5.0435,5.0255,4.9657,4.8835,4.8446,4.8027,4.7578,4.7399,4.7309,4.7309,4.7309,4.7309,4.7309,4.7309,4.7309,4.7219,4.6621,4.601,4.5544,4.4915,4.4227,4.3648,4.3559,4.318,4.2381,4.1474,4.0756,4.0397,3.9918,3.9349,3.8721,3.8512,3.8153,3.7674,3.7045,3.6656,3.648,3.6028,3.5669,3.5519,3.5489,3.5489,3.5489,3.5489,3.5489,3.5489,3.5489,3.5489,3.5489,3.5489,3.5489,3.5489,3.5489,3.5489,3.5489,3.5489,3.5489,3.5489,3.5683,3.5814,3.6037,3.7025,3.7851,3.7983,3.7138,3.6848,3.7182,3.6928,3.6799,3.7065,3.7222,3.7551,3.7802,3.799,3.8091,3.7956,3.7729,3.7719,3.7144,3.6637,3.6276,3.6062,3.596,3.5769,3.5667,3.56,3.5566,3.56,3.5566,3.516,3.418,3.3829,3.3457,3.3106,3.2835,3.2341,3.1684,3.1549,3.1292,3.1326,3.1258,3.119,3.119,3.1123,3.1055,3.048,2.9871,2.9348,2.9296,2.8653,2.8094,5.1229,5.1229,5.1229,5.1169,5.1109,5.0495,5.0166,4.9897,4.8835,4.8267,4.8117,4.7578,4.7309,4.7309,4.7309,4.7309,4.7309,4.7309,4.7309,4.7249,4.6608,4.6279,4.619,4.5574,4.4885,4.4227,4.4167,4.3599,4.25,4.2291,4.1662,4.0487,4.0367,4.0008,3.9343,3.8751,3.8392,3.8272,3.7704,3.7105,3.6596,3.6477,3.6148,3.5609,3.5489,3.5489,3.5489,3.5489,3.5489,3.5489,3.5489,3.5489,3.5489,3.5489,3.5489,3.5489,3.5489,3.5489,3.5489,3.5489,3.5489,3.5587,3.6101,3.6538,3.6508,3.7352,3.8133,3.8745,3.8646,3.8668,3.8722,3.8617,3.8341,3.7963,3.8384,3.844,3.7965,3.8606,3.8575,3.8159,3.8058,3.799,3.7855,3.7855,3.7347,3.6907,3.6728,3.6468,3.587,3.5667,3.56,3.56,3.56,3.5566,3.5397,3.4878,3.4472,3.4066,3.3491,3.3085,3.2632,3.2192,3.1853,3.1515,3.1427,3.136,3.1224,3.119,3.1157,3.0852,3.048,3.0142,3.004,2.9431,2.8924,5.1229,5.1229,5.1229,5.1229,5.1199,5.096,5.0584,5.0106,4.9314,4.8656,4.8207,4.7608,4.7309,4.7309,4.7309,4.7309,4.7309,4.7309,4.7309,4.7279,4.704,4.6711,4.6322,4.6052,4.5364,4.4436,4.4317,4.3868,4.303,4.262,4.2171,4.1594,4.0786,4.0277,3.9948,3.9379,3.905,3.899,3.8392,3.7913,3.7644,3.7285,3.6776,3.6148,3.5729,3.5489,3.5489,3.5489,3.5489,3.5489,3.5489,3.5489,3.5489,3.5489,3.5489,3.5489,3.5489,3.5489,3.5489,3.5489,3.5489,3.5554,3.6196,3.66,3.6813,3.7729,3.8635,3.8908,3.942,3.9636,3.9662,3.9662,3.9558,3.9401,3.9506,3.9536,3.9386,3.9522,3.9605,3.9276,3.8937,3.8599,3.8497,3.8193,3.7821,3.7516,3.711,3.6728,3.64,3.5994,3.5633,3.56,3.56,3.56,3.56,3.5419,3.5081,3.4607,3.4134,3.3728,3.3288,3.3051,3.2747,3.2158,3.1921,3.1582,3.1427,3.119,3.119,3.1123,3.0751,3.0717,3.0818,3.0108,2.9668,5.1229,5.1229,5.1229,5.1229,5.1229,5.1229,5.096,5.0435,4.9853,4.9224,4.8566,4.7908,4.7519,4.7339,4.7309,4.7309,4.7309,4.7309,4.7309,4.7309,4.7309,4.707,4.6711,4.6651,4.6052,4.5005,4.4496,4.3947,4.3319,4.291,4.262,4.2321,4.1482,4.0786,4.0397,3.9948,3.9612,3.9379,3.8931,3.8631,3.8392,3.7943,3.7434,3.6836,3.6327,3.5908,3.5549,3.5489,3.5489,3.5489,3.5489,3.5489,3.5489,3.5489,3.5489,3.5489,3.5489,3.5489,3.5489,3.5489,3.5489,3.5522,3.6165,3.6661,3.7024,3.8157,3.8908,3.9315,3.9714,4.0113,4.0113,4.0087,4.0113,4.0113,4.0113,4.0113,4.0113,4.0079,4.0079,3.9977,3.9639,3.9377,3.9276,3.8903,3.8565,3.8328,3.7787,3.7438,3.6863,3.6366,3.5859,3.5667,3.56,3.56,3.56,3.5498,3.5487,3.5081,3.4844,3.4438,3.4066,3.3863,3.3491,3.2882,3.2361,3.1921,3.1562,3.1292,3.119,3.119,3.1123,3.0987,3.0954,3.0818,3.0311,5.1229,5.1229,5.1229,5.1229,5.1229,5.1229,5.1152,5.105,5.0405,4.9793,4.9224,4.8536,4.7878,4.7459,4.7339,4.7309,4.7309,4.7309,4.7309,4.7309,4.7309,4.7309,4.7219,4.7189,4.683,4.6082,4.4945,4.4018,4.3409,4.3319,4.306,4.253,4.2321,4.1662,4.0487,4.0457,4.0098,3.9619,3.9439,3.911,3.8482,3.8422,3.8093,3.7494,3.7375,3.6806,3.5669,3.5579,3.5549,3.5489,3.5489,3.5489,3.5489,3.5489,3.5489,3.5489,3.5489,3.5489,3.5489,3.5489,3.5489,3.5587,3.6196,3.6904,3.7616,3.8414,3.9209,3.985,4.0028,4.0113,4.0113,4.0113,4.0113,4.0113,4.0113,4.0113,4.0113,4.0113,4.0113,4.0079,4.0011,4.0079,4.0079,3.991,3.9571,3.9106,3.8802,3.8352,3.7371,3.6965,3.6468,3.5971,3.5971,3.614,3.587,3.56,3.56,3.5532,3.543,3.516,3.4776,3.445,3.4167,3.3592,3.2869,3.2429,3.1819,3.1529,3.1326,3.1292,3.1258,3.119,3.1089,3.0954,3.0751,5.1229,5.1229,5.1229,5.1229,5.1229,5.1229,5.1229,5.1139,5.0465,5.0076,4.9763,4.8775,4.8177,4.7908,4.7549,4.7309,4.7309,4.7309,4.7309,4.7309,4.7309,4.7309,4.7309,4.7309,4.695,4.6262,4.5424,4.4646,4.4107,4.3977,4.3688,4.309,4.262,4.2231,4.1752,4.1324,4.0756,4.0187,4.0098,3.9768,3.917,3.911,3.8751,3.8182,3.8063,3.7674,3.6866,3.6417,3.5968,3.5549,3.5489,3.5489,3.5489,3.5489,3.5489,3.5489,3.5489,3.5489,3.5489,3.5489,3.5489,3.5619,3.6165,3.6965,3.7735,3.8442,3.9176,3.9927,4.0113,4.0113,4.0113,4.0113,4.0113,4.0113,4.0113,4.0113,4.0113,4.0113,4.0113,4.0113,4.0113,4.0113,4.0113,4.0113,4.0011,3.974,3.9343,3.8725,3.8362,3.7787,3.755,3.7212,3.7144,3.684,3.6535,3.6231,3.6062,3.5859,3.5701,3.5566,3.5228,3.5025,3.4709,3.4201,3.3491,3.2848,3.2239,3.1819,3.165,3.136,3.1258,3.1224,3.119,3.1089,3.092,5.1439,5.1229,5.1229,5.1229,5.1229,5.1229,5.1229,5.1169,5.0734,5.0405,5.0046,4.9404,4.8716,4.8297,4.7848,4.7549,4.7339,4.7309,4.7309,4.7309,4.7309,4.7309,4.7309,4.7309,4.695,4.6381,4.5873,4.5334,4.4676,4.4407,4.4107,4.3658,4.303,4.262,4.241,4.1991,4.1414,4.0876,4.0756,4.0457,3.9918,3.9768,3.9469,3.8871,3.8781,3.8452,3.7823,3.7375,3.6896,3.6297,3.5998,3.5878,3.5848,3.5669,3.5489,3.5489,3.5489,3.5489,3.5489,3.5489,3.5489,3.5587,3.5911,3.6508,3.7293,3.8048,3.8799,3.9506,3.9927,4.0113,4.0113,4.0113,4.0113,4.0113,4.0113,4.0113,4.0113,4.0113,4.0113,4.0113,4.0113,4.0113,4.0113,4.0113,4.0113,4.0011,3.9706,3.9233,3.9039,3.8565,3.8328,3.8058,3.7719,3.7449,3.7212,3.6907,3.6569,3.6197,3.5836,3.5701,3.5464,3.5397,3.5194,3.4607,3.3931,3.3525,3.2949,3.2361,3.2056,3.1718,3.1481,3.1224,3.119,3.119,3.1055,5.1828,5.1242,5.1229,5.1229,5.1229,5.1229,5.1229,5.1229,5.1199,5.0823,5.0345,5.0076,4.9464,4.8566,4.8267,4.7878,4.7399,4.7309,4.7309,4.7309,4.7309,4.7309,4.7309,4.7309,4.701,4.6488,4.6339,4.6022,4.5364,4.4885,4.4377,4.4157,4.3618,4.306,4.265,4.247,4.2111,4.1572,4.1482,4.1115,4.0516,4.0457,4.0157,3.9529,3.9469,3.914,3.8542,3.8362,3.8063,3.7404,3.6776,3.6537,3.6417,3.5938,3.5729,3.5789,3.5639,3.5729,3.5669,3.5818,3.5789,3.5818,3.6017,3.5967,3.7002,3.803,3.8808,3.9385,3.9998,4.035,4.0316,4.0248,4.0214,4.0113,4.0113,4.0113,4.0113,4.0113,4.0113,4.0113,4.0113,4.0113,4.0113,4.0113,4.0113,4.0079,4.0045,3.9706,3.9402,3.9063,3.8734,3.8565,3.8464,3.8227,3.8058,3.7787,3.7415,3.6874,3.6366,3.596,3.5667,3.5566,3.5532,3.4979,3.4539,3.4134,3.3694,3.3173,3.2699,3.2429,3.2002,3.1495,3.1326,3.1461,3.136,5.2097,5.1887,5.1409,5.1229,5.1229,5.1229,5.1229,5.1229,5.1229,5.1109,5.0823,5.0405,4.9823,4.906,4.855,4.7938,4.7489,4.7309,4.7309,4.7309,4.7309,4.7309,4.7309,4.7309,4.7219,4.704,4.698,4.6711,4.6082,4.5813,4.5244,4.4276,4.4197,4.3678,4.318,4.309,4.2731,4.2231,4.2141,4.1811,4.1235,4.1115,4.0816,4.0217,4.0157,3.9798,3.923,3.914,3.8571,3.7524,3.7285,3.7165,3.7135,3.6956,3.6806,3.6806,3.6836,3.6866,3.6866,3.6866,3.6866,3.6963,3.7314,3.7924,3.8085,3.9445,4.021,4.0606,4.1191,4.1467,4.1035,4.0865,4.0663,4.0214,4.0113,4.0113,4.0113,4.0113,4.0113,4.0113,4.0113,4.0113,4.0113,4.0113,4.0113,4.0113,4.0079,4.0045,3.974,3.9673,3.9436,3.9605,3.9571,3.9208,3.8903,3.8633,3.8261,3.7652,3.7009,3.6265,3.5926,3.56,3.5566,3.5329,3.5182,3.4822,3.4472,3.4087,3.3647,3.3119,3.2848,3.2442,3.2124,3.2056,3.1785,5.2456,5.2157,5.1498,5.1229,5.1229,5.1229,5.1229,5.1229,5.1229,5.1229,5.1139,5.0794,5.0255,4.9643,4.8985,4.8327,4.7758,4.7429,4.7309,4.7309,4.7309,4.7309,4.7309,4.7309,4.7309,4.7309,4.7309,4.71,4.6711,4.6471,4.5831,4.5233,4.4855,4.4407,4.3738,4.3678,4.3419,4.288,4.2761,4.2462,4.1901,4.1841,4.1444,4.0965,4.0786,4.0516,3.9948,3.9828,3.932,3.8452,3.8003,3.7823,3.7793,3.7524,3.7404,3.7404,3.7404,3.7375,3.7404,3.7404,3.7404,3.7545,3.8218,3.8611,3.8903,4.0204,4.1144,4.1135,4.1848,4.197,4.1745,4.1407,4.0865,4.0248,4.0113,4.0113,4.0113,4.0113,4.0113,4.0113,4.0113,4.0113,4.0113,4.0113,4.0113,4.0113,4.0113,4.0113,4.0045,4.0113,4.0113,4.0113,4.0113,3.974,3.9402,3.9106,3.8802,3.8261,3.755,3.6772,3.6197,3.5769,3.56,3.5566,3.56,3.5498,3.5115,3.4709,3.4235,3.3829,3.366,3.3355,3.2949,3.2767,3.2429,5.2845,5.2247,5.1528,5.1229,5.1229,5.1229,5.1229,5.1229,5.1229,5.1229,5.1199,5.1229,5.0704,5.0166,4.9583,4.8955,4.8237,4.7698,4.7429,4.7339,4.7309,4.7309,4.7309,4.7309,4.7309,4.7309,4.7309,4.7279,4.71,4.6681,4.6411,4.6052,4.5603,4.5065,4.4496,4.4317,4.3958,4.3469,4.3269,4.3,4.2551,4.2432,4.2132,4.1602,4.1294,4.1025,4.0636,4.0457,4.0187,3.9649,3.8901,3.8542,3.8422,3.7913,3.7734,3.7764,3.7823,3.7793,3.7674,3.7823,3.7704,3.7936,3.8655,3.8927,3.9469,4.0776,4.1868,4.17,4.2143,4.2537,4.2354,4.1779,4.1102,4.0527,4.0282,4.0214,4.0113,4.0113,4.0113,4.0113,4.0113,4.0113,4.0113,4.0113,4.0113,4.0113,4.0113,4.0113,4.0113,4.0113,4.0113,4.0113,4.0113,4.0113,3.9808,3.9571,3.9208,3.8802,3.8058,3.7313,3.6546,3.6107,3.5769,3.56,3.56,3.56,3.5498,3.5092,3.4742,3.4607,3.4438,3.3998,3.3558,3.3525,3.3322,5.3084,5.2875,5.1708,5.1229,5.1229,5.1229,5.1229,5.1229,5.1229,5.1229,5.1229,5.1229,5.0794,5.0226,5.0032,4.9404,4.8416,4.8057,4.7848,4.7339,4.7309,4.7309,4.7309,4.7309,4.7309,4.7309,4.7309,4.7309,4.7219,4.71,4.683,4.6309,4.6202,4.5753,4.5155,4.4676,4.4287,4.3977,4.3589,4.329,4.318,4.306,4.2761,4.2201,4.1752,4.1422,4.1235,4.1175,4.1085,4.0726,3.9918,3.926,3.917,3.8955,3.8835,3.8805,3.8901,3.8895,3.8925,3.8835,3.896,3.8983,4.007,4.1051,4.0491,4.2397,4.3265,4.3215,4.3595,4.3646,4.3098,4.2489,4.1779,4.117,4.0933,4.073,4.0282,4.0113,4.0113,4.0113,4.0113,4.0113,4.0113,4.0113,4.0113,4.0113,4.0113,4.0113,4.0113,4.0113,4.0113,4.0113,4.0113,4.0113,4.0011,3.9808,3.9605,3.9242,3.8565,3.8024,3.728,3.6512,3.6208,3.587,3.56,3.56,3.56,3.5566,3.5216,3.5194,3.5126,3.4721,3.4404,3.4336,3.4235,5.3473,5.3084,5.2097,5.1498,5.1229,5.1229,5.1229,5.1229,5.1229,5.1229,5.1229,5.1229,5.102,5.0644,5.0315,4.9673,4.8775,4.8057,4.7638,4.7339,4.7309,4.7309,4.7309,4.7309,4.7309,4.7309,4.7309,4.7309,4.7309,4.7279,4.713,4.683,4.6728,4.6411,4.5873,4.5394,4.5125,4.4706,4.4137,4.3778,4.3778,4.3409,4.32,4.2851,4.2462,4.2192,4.1901,4.1871,4.1722,4.1294,4.0726,4.0157,3.9828,3.9589,3.9403,3.9403,3.9403,3.9403,3.9373,3.9403,3.9343,3.9439,4.0995,4.1494,4.1853,4.338,4.4236,4.4121,4.4197,4.4248,4.3477,4.3166,4.2489,4.1914,4.1711,4.1508,4.1102,4.0553,4.0113,4.0113,4.0113,4.0113,4.0113,4.0113,4.0113,4.0113,4.0113,4.0113,4.0113,4.0113,4.0113,4.0113,4.0113,4.0113,4.0113,4.0011,3.9943,3.958,3.9106,3.8734,3.8294,3.7483,3.6681,3.64,3.6062,3.5633,3.56,3.56,3.5633,3.5498,3.5363,3.5261,3.5182,3.5013,3.4912,5.3713,5.3114,5.2366,5.1738,5.1259,5.1229,5.1229,5.1229,5.1229,5.1229,5.1229,5.1229,5.1199,5.1079,5.0661,5.0002,4.9105,4.8147,4.7578,4.7339,4.7309,4.7309,4.7309,4.7309,4.7309,4.7309,4.7309,4.7309,4.7309,4.7309,4.7279,4.7279,4.7279,4.695,4.6518,4.6322,4.5963,4.5424,4.4796,4.4347,4.4197,4.3738,4.3469,4.32,4.314,4.294,4.2581,4.2462,4.2282,4.1713,4.1594,4.1235,4.0696,4.0098,3.9709,3.9768,3.9888,3.9948,3.9978,3.9858,3.9798,3.9691,4.1182,4.2013,4.2364,4.341,4.4355,4.4525,4.4547,4.435,4.3673,4.3606,4.3234,4.2692,4.2455,4.2422,4.2083,4.1162,4.0688,4.0316,4.0214,4.0113,4.0113,4.0113,4.0113,4.0113,4.0113,4.0113,4.0113,4.0113,4.0113,4.0113,4.0113,4.0113,4.0113,4.0113,4.0045,3.991,3.9478,3.9343,3.9073,3.8396,3.7618,3.6975,3.6569,3.6163,3.5769,3.5701,3.5701,3.5633,3.5566,3.5464,3.5498,3.56,3.5498,5.3294,5.3084,5.1887,5.1319,5.1229,5.1229,5.1229,5.1229,5.1229,5.1229,5.1229,5.1229,5.1229,5.1169,5.1169,5.0391,4.9344,4.8416,4.7788,4.7429,4.7339,4.7309,4.7309,4.7309,4.7309,4.7309,4.7309,4.7309,4.7309,4.7309,4.7309,4.7309,4.7309,4.716,4.695,4.6651,4.6339,4.6082,4.5484,4.4945,4.4556,4.4287,4.3917,4.3529,4.3469,4.3319,4.324,4.318,4.308,4.297,4.2491,4.2201,4.1931,4.1384,4.1055,4.0876,4.0846,4.0816,4.0846,4.0935,4.0726,4.077,4.1838,4.2492,4.2716,4.3532,4.4541,4.4581,4.4581,4.4513,4.4445,4.431,4.3978,4.347,4.32,4.3031,4.2523,4.2049,4.1644,4.1238,4.0696,4.018,4.0282,4.0248,4.0113,4.0113,4.0113,4.0113,4.0113,4.0113,4.0113,4.0113,4.0113,4.0113,4.0113,4.0113,4.0079,4.0079,3.9876,3.9876,3.9605,3.9174,3.8599,3.8024,3.7313,3.6738,3.64,3.6096,3.5893,3.5926,3.5791,3.5633,3.56,3.56,3.56,5.3503,5.3084,5.2127,5.1528,5.1259,5.1229,5.1229,5.1229,5.1229,5.1229,5.1229,5.1229,5.1229,5.1229,5.1229,5.0631,4.9733,4.8686,4.8147,4.7788,4.7489,4.7309,4.7309,4.7309,4.7309,4.7309,4.7309,4.7309,4.7309,4.7309,4.7309,4.7309,4.7309,4.7309,4.7279,4.701,4.683,4.6681,4.6172,4.5663,4.5263,4.5035,4.4586,4.4377,4.3947,4.3828,4.3738,4.3409,4.329,4.323,4.303,4.288,4.2761,4.2521,4.2073,4.1594,4.1482,4.1452,4.1452,4.1422,4.14,4.1826,4.2871,4.3652,4.394,4.4664,4.4998,4.4716,4.4615,4.4581,4.4581,4.4615,4.4384,4.4147,4.4012,4.3809,4.347,4.3132,4.2726,4.2219,4.1474,4.0933,4.0629,4.0493,4.0214,4.0113,4.0113,4.0113,4.0113,4.0113,4.0113,4.0113,4.0113,4.0113,4.0113,4.0113,4.0113,4.0113,4.0113,4.0113,4.0045,3.9639,3.9503,3.9233,3.8488,3.755,3.7144,3.6874,3.6535,3.6163,3.5926,3.5769,3.5667,3.56,3.56,5.3593,5.2935,5.2276,5.1708,5.1259,5.1229,5.1229,5.1229,5.1229,5.1229,5.1229,5.1229,5.1229,5.1229,5.1139,5.0794,5.0136,4.8985,4.8476,4.8117,4.7608,4.7309,4.7309,4.7309,4.7309,4.7309,4.7309,4.7309,4.7309,4.7309,4.7309,4.7309,4.7309,4.7309,4.7279,4.7249,4.7309,4.713,4.683,4.6531,4.616,4.5693,4.5274,4.5274,4.4766,4.4526,4.4466,4.3928,4.3618,4.3499,4.3379,4.326,4.329,4.329,4.2811,4.1983,4.1803,4.1773,4.1841,4.2214,4.2626,4.2875,4.3976,4.4788,4.5235,4.5481,4.5703,4.5156,4.4886,4.4891,4.4891,4.4716,4.4615,4.4547,4.4513,4.4513,4.4282,4.4012,4.3707,4.3098,4.2252,4.1745,4.1474,4.0899,4.0595,4.0358,4.0358,4.0113,4.0113,4.0113,4.0113,4.0113,4.0113,4.0113,4.0113,4.0113,4.0113,4.0113,4.0113,4.0113,4.0113,4.0011,3.9943,3.9774,3.9368,3.8497,3.8091,3.7618,3.7246,3.6806,3.6265,3.6028,3.6096,3.5825,3.56,5.2905,5.2247,5.1618,5.1289,5.1229,5.1229,5.1229,5.1229,5.1229,5.1229,5.1229,5.1229,5.1229,5.1229,5.1229,5.0794,5.0212,4.9553,4.8925,4.8506,4.7788,4.7429,4.7339,4.7309,4.7309,4.7309,4.7309,4.7309,4.7309,4.7309,4.7309,4.7309,4.7309,4.7309,4.7309,4.7309,4.7309,4.7279,4.7189,4.6847,4.6339,4.5753,4.5484,4.5394,4.5274,4.5185,4.5095,4.4586,4.4227,4.4137,4.3618,4.3349,4.329,4.329,4.329,4.311,4.305,4.309,4.3166,4.3472,4.4019,4.4203,4.5193,4.5734,4.6009,4.6334,4.6583,4.6583,4.5974,4.5602,4.5466,4.5026,4.475,4.4682,4.4756,4.4682,4.4581,4.4451,4.4215,4.4079,4.3234,4.276,4.2388,4.1677,4.1068,4.0832,4.0595,4.035,4.0146,4.018,4.0113,4.0113,4.0113,4.0113,4.0113,4.0113,4.0113,4.0113,4.0113,4.0113,4.0113,4.0113,4.0113,3.991,3.9605,3.9377,3.8903,3.843,3.7956,3.7516,3.7077,3.6806,3.6694,3.6299,3.5938,5.2456,5.2157,5.1498,5.1229,5.1229,5.1229,5.1229,5.1229,5.1229,5.1229,5.1229,5.1229,5.1229,5.1229,5.1229,5.1079,5.0644,5.0092,4.9703,4.9164,4.8416,4.7878,4.7788,4.7489,4.7309,4.7309,4.7309,4.7309,4.7309,4.7309,4.7309,4.7309,4.7309,4.7309,4.7309,4.7309,4.7309,4.7309,4.7279,4.716,4.689,4.6591,4.6411,4.6381,4.6052,4.5903,4.5723,4.5244,4.4885,4.4825,4.4526,4.4257,4.3947,4.3868,4.3778,4.329,4.329,4.3576,4.4051,4.4082,4.4639,4.5607,4.6246,4.6388,4.6764,4.712,4.7192,4.6786,4.6515,4.6346,4.6312,4.6041,4.5635,4.5399,4.5229,4.4891,4.4784,4.4649,4.4479,4.4384,4.4282,4.3741,4.32,4.2557,4.1948,4.1677,4.1305,4.0933,4.0595,4.035,4.0248,4.0113,4.0113,4.0113,4.0113,4.0113,4.0113,4.0113,4.0113,4.0113,4.0113,4.0113,4.0113,4.0113,3.9943,3.9706,3.9537,3.914,3.8599,3.8227,3.7922,3.7652,3.7415,3.7313,3.6941,5.2097,5.1917,5.1409,5.1229,5.1229,5.1229,5.1229,5.1229,5.1229,5.1229,5.1229,5.1229,5.1229,5.1229,5.1229,5.1199,5.1092,5.0495,5.0255,4.9777,4.9194,4.8506,4.8147,4.7758,4.7489,4.7309,4.7309,4.7309,4.7309,4.7309,4.7309,4.7309,4.7309,4.7309,4.7309,4.7309,4.7309,4.7309,4.7309,4.7279,4.7249,4.7249,4.7219,4.71,4.686,4.6561,4.6471,4.5903,4.5574,4.5544,4.5274,4.4915,4.4616,4.4526,4.4407,4.4037,4.3977,4.4276,4.4618,4.4823,4.5374,4.6349,4.7406,4.7473,4.7936,4.8142,4.8037,4.7564,4.7192,4.7124,4.7022,4.6887,4.6447,4.6109,4.5974,4.55,4.5094,4.506,4.4852,4.4547,4.4451,4.4513,4.3972,4.3396,4.2895,4.2557,4.2117,4.1576,4.117,4.0798,4.0654,4.0519,4.018,4.018,4.0146,4.0146,4.0113,4.0113,4.0113,4.0113,4.0113,4.0113,4.0113,4.0113,4.0113,4.0011,3.9808,3.9512,3.9242,3.9005,3.8734,3.8396,3.8159,3.8091,3.7821,5.1858,5.1289,5.1229,5.1229,5.1229,5.1229,5.1229,5.1229,5.1229,5.1229,5.1229,5.1229,5.1229,5.1229,5.1229,5.1229,5.1199,5.0495,5.0345,5.0092,4.9553,4.8985,4.8626,4.8327,4.7938,4.7459,4.7459,4.7429,4.7309,4.7309,4.7309,4.7309,4.7309,4.7309,4.7309,4.7309,4.7309,4.7309,4.7309,4.7309,4.7309,4.7309,4.7309,4.7309,4.7249,4.7219,4.7189,4.6591,4.6232,4.6232,4.5843,4.5484,4.5304,4.5244,4.5095,4.4885,4.4825,4.5032,4.5262,4.5516,4.5989,4.6694,4.7572,4.848,4.8686,4.8849,4.8815,4.8578,4.8071,4.7868,4.7631,4.7293,4.709,4.6819,4.665,4.6278,4.5906,4.5703,4.5399,4.4818,4.4649,4.4784,4.4581,4.4005,4.3735,4.3369,4.2726,4.2185,4.1847,4.1508,4.1271,4.1035,4.0485,4.0282,4.0214,4.018,4.0113,4.0113,4.0113,4.0113,4.0113,4.0113,4.0113,4.0113,4.0113,4.0113,4.0079,3.9842,3.9706,3.9774,3.9571,3.9106,3.8734,3.8531,3.8294,5.1468,5.1229,5.1229,5.1229,5.1229,5.1229,5.1229,5.1229,5.1229,5.1229,5.1229,5.1229,5.1229,5.1229,5.1229,5.1229,5.1199,5.0973,5.0794,5.0584,5.0182,4.9763,4.9404,4.8985,4.8566,4.8027,4.7908,4.7638,4.7339,4.7369,4.7309,4.7309,4.7309,4.7309,4.7309,4.7309,4.7309,4.7309,4.7309,4.7309,4.7309,4.7309,4.7309,4.7309,4.7309,4.7309,4.7249,4.707,4.695,4.683,4.6591,4.6292,4.5992,4.5933,4.5753,4.5484,4.5424,4.5462,4.5546,4.5887,4.6185,4.7204,4.8225,4.9052,4.9086,4.9018,4.9018,4.8883,4.8748,4.8511,4.8477,4.8308,4.8105,4.7699,4.7327,4.7022,4.6718,4.6447,4.6041,4.5466,4.5196,4.5128,4.4857,4.4547,4.4378,4.4175,4.3436,4.2861,4.2557,4.2219,4.2016,4.1711,4.117,4.0865,4.0764,4.0519,4.018,4.018,4.018,4.0146,4.018,4.0113,4.0113,4.0113,4.0113,4.0113,4.0113,4.0113,4.0045,3.9977,3.991,3.9774,3.9377,3.9005,3.8841,5.1229,5.1229,5.1229,5.1229,5.1229,5.1229,5.1229,5.1229,5.1229,5.1229,5.1229,5.1229,5.1229,5.1229,5.1229,5.1229,5.1229,5.1169,5.1199,5.102,5.0704,5.0405,5.0106,4.9763,4.9224,4.8716,4.8506,4.8267,4.7698,4.7608,4.7489,4.7399,4.7309,4.7309,4.7309,4.7309,4.7309,4.7309,4.7309,4.7309,4.7309,4.7309,4.7309,4.7309,4.7309,4.7309,4.7309,4.7219,4.7249,4.7249,4.716,4.701,4.677,4.6518,4.6322,4.6052,4.5873,4.5813,4.5744,4.6259,4.6993,4.8223,4.8887,4.9331,4.9323,4.9154,4.9018,4.9018,4.8984,4.9018,4.9018,4.8815,4.868,4.8274,4.824,4.797,4.7462,4.709,4.665,4.6177,4.5974,4.5771,4.5196,4.4886,4.4615,4.4479,4.4147,4.3639,4.3436,4.3098,4.2692,4.2388,4.1982,4.1711,4.1508,4.1305,4.1035,4.0629,4.0595,4.035,4.0282,4.018,4.0113,4.0113,4.0113,4.0113,4.0113,4.0113,4.0113,4.0079,4.0045,3.9977,3.991,3.9562,3.9632,5.1229,5.1229,5.1229,5.1229,5.1229,5.1229,5.1229,5.1229,5.1229,5.1229,5.1229,5.1229,5.1229,5.1229,5.1229,5.1229,5.1229,5.1229,5.1229,5.1169,5.1079,5.0704,5.0435,5.0106,4.9883,4.9404,4.9194,4.8895,4.8267,4.8117,4.7848,4.7489,4.7369,4.7309,4.7309,4.7309,4.7309,4.7309,4.7309,4.7309,4.7309,4.7309,4.7309,4.7309,4.7309,4.7309,4.7309,4.7309,4.7309,4.7309,4.7309,4.7219,4.716,4.713,4.707,4.704,4.707,4.683,4.6491,4.7598,4.8615,4.9281,4.9722,5.0069,4.9932,4.956,4.9154,4.9289,4.9086,4.9018,4.9018,4.9018,4.8917,4.8883,4.8815,4.8646,4.8139,4.7868,4.7462,4.6955,4.6752,4.6481,4.5771,4.5196,4.4852,4.4682,4.4615,4.4412,4.4141,4.3876,4.347,4.3166,4.2794,4.2489,4.2252,4.2185,4.1914,4.1441,4.1001,4.0696,4.0417,4.0248,4.018,4.0146,4.0113,4.0113,4.0113,4.0113,4.0113,4.0113,4.0113,4.0079,4.0079,4.0036,4.0016,5.1229,5.1229,5.1229,5.1229,5.1229,5.1229,5.1229,5.1229,5.1229,5.1229,5.1229,5.1229,5.1229,5.1229,5.1229,5.1229,5.1229,5.1229,5.1229,5.1229,5.1229,5.1139,5.0853,5.0704,5.0511,5.0062,4.9853,4.9583,4.8925,4.8596,4.8267,4.7938,4.7459,4.7309,4.7309,4.7309,4.7309,4.7309,4.7309,4.7309,4.7309,4.7309,4.7309,4.7309,4.7309,4.7309,4.7309,4.7309,4.7309,4.7309,4.7309,4.7309,4.7309,4.7309,4.7309,4.7309,4.7352,4.7576,4.8204,4.9394,5.0206,5.0283,5.0393,5.0813,5.0744,5.0135,4.983,4.9627,4.939,4.9255,4.9018,4.9018,4.8984,4.8984,4.8917,4.8917,4.8646,4.8612,4.8376,4.7834,4.7496,4.7124,4.6515,4.5872,4.5432,4.5094,4.5026,4.4716,4.4412,4.4412,4.4175,4.3944,4.3639,4.3267,4.2997,4.2895,4.2625,4.2117,4.1576,4.1068,4.0764,4.0519,4.0282,4.0282,4.018,4.0113,4.0113,4.0113,4.0113,4.0113,4.0113,4.0113,4.0079,4.0079,4.0095,5.1229,5.1229,5.1229,5.1229,5.1229,5.1229,5.1229,5.1229,5.1229,5.1229,5.1229,5.1229,5.1229,5.1229,5.1229,5.1229,5.1229,5.1229,5.1229,5.1229,5.1229,5.1199,5.1199,5.1199,5.0883,5.0584,5.0465,5.0242,4.9583,4.8955,4.8356,4.7848,4.7549,4.7339,4.7309,4.7309,4.7309,4.7309,4.7309,4.7309,4.7309,4.7309,4.7309,4.7309,4.7309,4.7309,4.7309,4.7309,4.7309,4.7309,4.7309,4.7309,4.7309,4.7309,4.7309,4.7309,4.7764,4.8084,4.8951,5.0606,5.1044,5.0768,5.1263,5.1524,5.1454,5.0913,5.0608,5.0338,4.9932,4.983,4.9729,4.9661,4.939,4.939,4.9154,4.912,4.9018,4.8951,4.8849,4.8376,4.8173,4.7767,4.7293,4.6684,4.6109,4.5771,4.55,4.5094,4.4688,4.4615,4.4615,4.4384,4.4248,4.3944,4.3707,4.3633,4.3267,4.276,4.2286,4.1779,4.1373,4.1136,4.079,4.0383,4.0282,4.018,4.0113,4.0113,4.0113,4.0113,4.0113,4.0113,4.0113,4.0113,4.0113,5.1229,5.1229,5.1229,5.1229,5.1229,5.1229,5.1229,5.1229,5.1229,5.1229,5.1229,5.1229,5.1229,5.1229,5.1229,5.1229,5.1229,5.1229,5.1229,5.1229,5.1229,5.1229,5.1229,5.1199,5.1109,5.1169,5.1079,5.072,5.0196,4.9613,4.8716,4.7758,4.7578,4.7429,4.7369,4.7309,4.7309,4.7309,4.7309,4.7309,4.7309,4.7309,4.7309,4.7309,4.7309,4.7309,4.7309,4.7309,4.7309,4.7309,4.7309,4.7309,4.7309,4.7309,4.7309,4.7624,4.8335,4.881,4.9544,5.1303,5.1957,5.1883,5.2101,5.2336,5.2164,5.1725,5.1352,5.115,5.0913,5.098,5.1014,5.0574,5.0135,4.9864,4.9458,4.9323,4.9187,4.9086,4.9018,4.8849,4.8815,4.8511,4.8003,4.7394,4.6819,4.6583,4.6244,4.5737,4.5297,4.4682,4.4649,4.4581,4.4513,4.4547,4.4378,4.4141,4.3972,4.3504,4.32,4.2726,4.2286,4.1745,4.1271,4.0891,4.0417,4.0214,4.0146,4.0113,4.0113,4.0113,4.0113,4.0113,4.0113,4.0138,4.0204,5.1229,5.1229,5.1229,5.1229,5.1229,5.1229,5.1229,5.1229,5.1229,5.1229,5.1229,5.1229,5.1229,5.1229,5.1229,5.1229,5.1229,5.1229,5.1229,5.1229,5.1229,5.1229,5.1229,5.1229,5.1229,5.1229,5.1169,5.1079,5.0764,5.0242,4.9254,4.8237,4.7938,4.7728,4.7489,4.7309,4.7309,4.7309,4.7309,4.7309,4.7309,4.7309,4.7309,4.7309,4.7309,4.7309,4.7309,4.7309,4.7309,4.7309,4.7309,4.7309,4.7309,4.7352,4.7452,4.8418,4.9336,5.0242,5.108,5.2241,5.2939,5.2904,5.3011,5.3112,5.2942,5.2503,5.2029,5.1928,5.1725,5.1657,5.1557,5.1217,5.0947,5.0676,5.0236,4.983,4.9627,4.9357,4.9255,4.9018,4.9018,4.8917,4.8443,4.8071,4.7564,4.7361,4.7056,4.6515,4.5872,4.5229,4.4823,4.4818,4.4581,4.4581,4.4581,4.4412,4.4412,4.4276,4.3876,4.3504,4.3098,4.2523,4.188,4.1271,4.079,4.0417,4.0113,4.0113,4.0113,4.0113,4.0113,4.0113,4.0113,4.0204,4.0319,5.1229,5.1229,5.1229,5.1229,5.1229,5.1229,5.1229,5.1229,5.1229,5.1229,5.1229,5.1229,5.1229,5.1229,5.1229,5.1229,5.1229,5.1229,5.1229,5.1229,5.1229,5.1229,5.1229,5.1229,5.1229,5.1229,5.1229,5.1199,5.105,5.0495,4.9568,4.8745,4.8476,4.8087,4.7758,4.7489,4.7309,4.7309,4.7309,4.7309,4.7309,4.7309,4.7309,4.7309,4.7309,4.7309,4.7309,4.7309,4.7309,4.7309,4.7309,4.7309,4.7309,4.7352,4.7396,4.8293,4.9536,5.032,5.1117,5.2557,5.3246,5.3518,5.3518,5.3484,5.3348,5.301,5.2841,5.2739,5.2435,5.2164,5.1996,5.1827,5.1758,5.1623,5.1014,5.0439,5.0067,4.9695,4.939,4.9086,4.9018,4.9018,4.8781,4.8477,4.8308,4.8139,4.7834,4.7361,4.665,4.5872,4.5432,4.5229,4.4857,4.4581,4.4615,4.4649,4.4547,4.4479,4.4344,4.3978,4.3741,4.3234,4.2523,4.1813,4.1102,4.0764,4.0527,4.018,4.0113,4.0138,4.0254,4.0441,4.048,4.0528,4.0696,5.1229,5.1229,5.1229,5.1229,5.1229,5.1229,5.1229,5.1229,5.1229,5.1229,5.1229,5.1229,5.1229,5.1229,5.1229,5.1229,5.1229,5.1229,5.1229,5.1229,5.1229,5.1229,5.1229,5.1229,5.1229,5.1229,5.1229,5.1229,5.1079,5.069,5.0122,4.9389,4.8895,4.8476,4.8117,4.7728,4.7519,4.7309,4.7309,4.7309,4.7309,4.7309,4.7309,4.7309,4.7309,4.7309,4.7309,4.7309,4.7309,4.7309,4.7309,4.7309,4.7309,4.7309,4.7352,4.8115,4.9527,5.0397,5.1336,5.2592,5.328,5.3518,5.3518,5.3518,5.3416,5.3382,5.3247,5.3213,5.2942,5.2875,5.2773,5.2604,5.2469,5.2232,5.1792,5.1285,5.0879,5.0304,4.9593,4.9289,4.9018,4.9018,4.8984,4.868,4.8646,4.868,4.8545,4.8105,4.7564,4.6718,4.621,4.5838,4.5297,4.4959,4.4852,4.4852,4.4649,4.4547,4.4547,4.4479,4.4181,4.3707,4.3166,4.2489,4.1813,4.1373,4.1035,4.0696,4.0375,4.0179,4.0368,4.0733,4.0897,4.0967,4.1286,5.1229,5.1229,5.1229,5.1229,5.1229,5.1229,5.1229,5.1229,5.1229,5.1229,5.1229,5.1229,5.1229,5.1229,5.1229,5.1229,5.1229,5.1229,5.1229,5.1229,5.1229,5.1229,5.1229,5.1229,5.1229,5.1229,5.1229,5.1229,5.1169,5.096,5.0614,5.0062,4.9598,4.9284,4.8506,4.8117,4.7788,4.7459,4.7309,4.7309,4.7309,4.7309,4.7309,4.7309,4.7309,4.7309,4.7309,4.7309,4.7309,4.7309,4.7309,4.7309,4.7309,4.7309,4.7722,4.8501,4.9496,5.0397,5.1373,5.2381,5.3076,5.3416,5.345,5.3484,5.3518,5.3518,5.3518,5.3518,5.3518,5.3518,5.345,5.3281,5.3078,5.2807,5.2536,5.2131,5.1691,5.0811,4.9898,4.9458,4.912,4.9052,4.9052,4.9018,4.9018,4.8984,4.8917,4.868,4.8443,4.7834,4.7225,4.6718,4.5906,4.5534,4.5331,4.519,4.5089,4.4852,4.4756,4.4716,4.4615,4.4079,4.3538,4.3132,4.2625,4.2151,4.1644,4.117,4.0849,4.0518,4.0601,4.1036,4.1407,4.1573,4.1979,5.1229,5.1229,5.1229,5.1229,5.1229,5.1229,5.1229,5.1229,5.1229,5.1229,5.1229,5.1229,5.1229,5.1229,5.1229,5.1229,5.1229,5.1229,5.1229,5.1229,5.1229,5.1229,5.1229,5.1229,5.1229,5.1229,5.1229,5.1229,5.1229,5.1199,5.093,5.0584,5.0375,4.9837,4.9045,4.8656,4.8177,4.7758,4.7519,4.7369,4.7369,4.7309,4.7309,4.7309,4.7309,4.7309,4.7309,4.7309,4.7309,4.7309,4.7309,4.7309,4.7309,4.7309,4.7581,4.8157,4.9044,5.0165,5.108,5.1918,5.2696,5.3076,5.2939,5.2765,5.3484,5.3518,5.3518,5.3518,5.3518,5.3518,5.3518,5.3382,5.3348,5.3179,5.301,5.2739,5.2097,5.1285,5.0439,4.9796,4.9526,4.9357,4.9289,4.9018,4.9018,4.9018,4.8984,4.8984,4.8815,4.868,4.8173,4.7631,4.6853,4.6312,4.6143,4.594,4.5669,4.5399,4.5094,4.4919,4.4784,4.4316,4.3876,4.3639,4.3301,4.2861,4.2354,4.1813,4.1271,4.0857,4.104,4.1375,4.1746,4.2216,4.258,5.1229,5.1229,5.1229,5.1229,5.1229,5.1229,5.1229,5.1229,5.1229,5.1229,5.1229,5.1229,5.1229,5.1229,5.1229,5.1229,5.1229,5.1229,5.1229,5.1229,5.1229,5.1229,5.1229,5.1229,5.1229,5.1229,5.1229,5.1229,5.1229,5.1199,5.1169,5.1033,5.0704,5.0255,4.9867,4.9284,4.8596,4.8356,4.8057,4.7638,4.7489,4.7339,4.7309,4.7309,4.7309,4.7309,4.7309,4.7309,4.7309,4.7309,4.7309,4.7309,4.7309,4.7309,4.7309,4.7764,4.847,4.9376,5.0126,5.0817,5.1882,5.2522,5.2205,5.2522,5.328,5.3518,5.3518,5.3518,5.3518,5.3518,5.3518,5.3518,5.3518,5.3484,5.3348,5.3145,5.2401,5.1758,5.1082,5.0338,5.0067,4.9898,4.9661,4.9357,4.9154,4.9154,4.9052,4.9018,4.8984,4.8917,4.8612,4.8308,4.7834,4.7394,4.7022,4.6616,4.6312,4.6075,4.5771,4.5365,4.4953,4.4553,4.435,4.4344,4.3978,4.3504,4.2997,4.2455,4.188,4.1503,4.168,4.2062,4.2465,4.2868,4.3178,5.1229,5.1229,5.1229,5.1229,5.1229,5.1229,5.1229,5.1229,5.1229,5.1229,5.1229,5.1229,5.1229,5.1229,5.1229,5.1229,5.1229,5.1229,5.1229,5.1229,5.1229,5.1229,5.1229,5.1229,5.1229,5.1229,5.1229,5.1229,5.1229,5.1229,5.1229,5.1169,5.1169,5.0704,5.0196,4.9687,4.9464,4.9134,4.888,4.8506,4.7997,4.7758,4.7339,4.7309,4.7309,4.7309,4.7309,4.7309,4.7309,4.7309,4.7309,4.7309,4.7309,4.7309,4.7309,4.7452,4.8168,4.8718,4.9416,5.0358,5.1484,5.2241,5.2241,5.2904,5.3382,5.3518,5.3518,5.3518,5.3518,5.3518,5.3518,5.3518,5.3518,5.3518,5.3416,5.3078,5.2503,5.2198,5.1826,5.1319,5.0947,5.0811,5.0676,5.0304,4.9898,4.9796,4.9458,4.939,4.9221,4.912,4.9086,4.8815,4.8578,4.8274,4.7834,4.7259,4.6887,4.6718,4.6447,4.6007,4.55,4.4919,4.475,4.4784,4.4547,4.4079,4.3572,4.3112,4.3022,4.2755,4.2649,4.2831,4.3212,4.3427,4.365]}]]